<?xml version="1.0" encoding="UTF-8" standalone="no" ?>
<gpx xmlns="http://www.topografix.com/GPX/1/1" xmlns:xsi="http://www.w3.org/2001/XMLSchema-instance" xsi:schemaLocation="http://www.topografix.com/GPX/1/1 http://www.topografix.com/GPX/1/1/gpx.xsd" version="1.1" creator="VisuGPX - https://www.visugpx.com">
  <metadata>
    <name>Rando VTT 35km La Vertonne 2019</name>
    <desc><![CDATA[Tracé de la rando 35km de la Vertonne 2019, au départ de Vertou, le 03/02/2019.

Passage par Saint Fiacre, Monnières, La Haie Fouassière. Ravito à Monnières.

Grand soleil, températures légèrement négatives, de la boue, conditions très agréables.

Première partie intéressante, seconde beaucoup moins, avec que des vignes et du bitume. Pour bien connaitre le coin, le tracé est très moyen et met peu le secteur en valeur ! Déçu de cette rando, pourtant il y a un gros potentiel autour de la Sèvre et de la Maine, ou entre Vertou et les Sorinières.]]></desc>
  </metadata>
  <trk>
    <name><![CDATA[20190203121656-BBUJA]]></name>
    <trkseg>
      <trkpt lat="47.16364" lon="-1.46774">
        <ele>27</ele>
        <time>2019-02-03T07:59:29Z</time>
      </trkpt>
      <trkpt lat="47.16364" lon="-1.46774">
        <ele>27</ele>
        <time>2019-02-03T07:59:29Z</time>
      </trkpt>
      <trkpt lat="47.1636" lon="-1.46784">
        <ele>25</ele>
        <time>2019-02-03T07:59:39Z</time>
      </trkpt>
      <trkpt lat="47.16359" lon="-1.46794">
        <ele>24</ele>
        <time>2019-02-03T07:59:41Z</time>
      </trkpt>
      <trkpt lat="47.16358" lon="-1.46802">
        <ele>25</ele>
        <time>2019-02-03T07:59:43Z</time>
      </trkpt>
      <trkpt lat="47.16356" lon="-1.46811">
        <ele>24</ele>
        <time>2019-02-03T07:59:45Z</time>
      </trkpt>
      <trkpt lat="47.16356" lon="-1.46819">
        <ele>23</ele>
        <time>2019-02-03T07:59:47Z</time>
      </trkpt>
      <trkpt lat="47.1636" lon="-1.46825">
        <ele>23</ele>
        <time>2019-02-03T07:59:49Z</time>
      </trkpt>
      <trkpt lat="47.16365" lon="-1.46828">
        <ele>22</ele>
        <time>2019-02-03T07:59:51Z</time>
      </trkpt>
      <trkpt lat="47.16369" lon="-1.46833">
        <ele>22</ele>
        <time>2019-02-03T07:59:53Z</time>
      </trkpt>
      <trkpt lat="47.16369" lon="-1.46842">
        <ele>23</ele>
        <time>2019-02-03T07:59:55Z</time>
      </trkpt>
      <trkpt lat="47.16366" lon="-1.46847">
        <ele>22</ele>
        <time>2019-02-03T07:59:57Z</time>
      </trkpt>
      <trkpt lat="47.16361" lon="-1.46852">
        <ele>22</ele>
        <time>2019-02-03T07:59:59Z</time>
      </trkpt>
      <trkpt lat="47.16357" lon="-1.46855">
        <ele>22</ele>
        <time>2019-02-03T08:00:02Z</time>
      </trkpt>
      <trkpt lat="47.1635" lon="-1.46859">
        <ele>22</ele>
        <time>2019-02-03T08:00:10Z</time>
      </trkpt>
      <trkpt lat="47.16345" lon="-1.46867">
        <ele>23</ele>
        <time>2019-02-03T08:00:14Z</time>
      </trkpt>
      <trkpt lat="47.16344" lon="-1.46874">
        <ele>23</ele>
        <time>2019-02-03T08:00:16Z</time>
      </trkpt>
      <trkpt lat="47.16344" lon="-1.46881">
        <ele>23</ele>
        <time>2019-02-03T08:00:18Z</time>
      </trkpt>
      <trkpt lat="47.16342" lon="-1.46888">
        <ele>22</ele>
        <time>2019-02-03T08:00:20Z</time>
      </trkpt>
      <trkpt lat="47.16336" lon="-1.46887">
        <ele>23</ele>
        <time>2019-02-03T08:00:22Z</time>
      </trkpt>
      <trkpt lat="47.16325" lon="-1.46878">
        <ele>23</ele>
        <time>2019-02-03T08:00:25Z</time>
      </trkpt>
      <trkpt lat="47.16322" lon="-1.46874">
        <ele>23</ele>
        <time>2019-02-03T08:00:26Z</time>
      </trkpt>
      <trkpt lat="47.16308" lon="-1.46863">
        <ele>24</ele>
        <time>2019-02-03T08:00:30Z</time>
      </trkpt>
      <trkpt lat="47.16303" lon="-1.46859">
        <ele>24</ele>
        <time>2019-02-03T08:00:32Z</time>
      </trkpt>
      <trkpt lat="47.16295" lon="-1.46858">
        <ele>24</ele>
        <time>2019-02-03T08:00:34Z</time>
      </trkpt>
      <trkpt lat="47.16284" lon="-1.46862">
        <ele>23</ele>
        <time>2019-02-03T08:00:36Z</time>
      </trkpt>
      <trkpt lat="47.16278" lon="-1.46861">
        <ele>23</ele>
        <time>2019-02-03T08:00:37Z</time>
      </trkpt>
      <trkpt lat="47.16269" lon="-1.46862">
        <ele>24</ele>
        <time>2019-02-03T08:00:39Z</time>
      </trkpt>
      <trkpt lat="47.16259" lon="-1.46862">
        <ele>24</ele>
        <time>2019-02-03T08:00:41Z</time>
      </trkpt>
      <trkpt lat="47.16249" lon="-1.46872">
        <ele>23</ele>
        <time>2019-02-03T08:00:43Z</time>
      </trkpt>
      <trkpt lat="47.16248" lon="-1.46885">
        <ele>23</ele>
        <time>2019-02-03T08:00:46Z</time>
      </trkpt>
      <trkpt lat="47.1625" lon="-1.46904">
        <ele>24</ele>
        <time>2019-02-03T08:00:49Z</time>
      </trkpt>
      <trkpt lat="47.16251" lon="-1.46919">
        <ele>23</ele>
        <time>2019-02-03T08:00:51Z</time>
      </trkpt>
      <trkpt lat="47.16251" lon="-1.46926">
        <ele>23</ele>
        <time>2019-02-03T08:00:52Z</time>
      </trkpt>
      <trkpt lat="47.1625" lon="-1.46934">
        <ele>22</ele>
        <time>2019-02-03T08:00:53Z</time>
      </trkpt>
      <trkpt lat="47.16252" lon="-1.46946">
        <ele>23</ele>
        <time>2019-02-03T08:00:55Z</time>
      </trkpt>
      <trkpt lat="47.16251" lon="-1.46953">
        <ele>23</ele>
        <time>2019-02-03T08:00:56Z</time>
      </trkpt>
      <trkpt lat="47.1625" lon="-1.46967">
        <ele>23</ele>
        <time>2019-02-03T08:00:58Z</time>
      </trkpt>
      <trkpt lat="47.16249" lon="-1.46979">
        <ele>21</ele>
        <time>2019-02-03T08:01:00Z</time>
      </trkpt>
      <trkpt lat="47.16247" lon="-1.47">
        <ele>23</ele>
        <time>2019-02-03T08:01:03Z</time>
      </trkpt>
      <trkpt lat="47.16245" lon="-1.47013">
        <ele>22</ele>
        <time>2019-02-03T08:01:05Z</time>
      </trkpt>
      <trkpt lat="47.16243" lon="-1.47021">
        <ele>21</ele>
        <time>2019-02-03T08:01:06Z</time>
      </trkpt>
      <trkpt lat="47.16245" lon="-1.47039">
        <ele>22</ele>
        <time>2019-02-03T08:01:08Z</time>
      </trkpt>
      <trkpt lat="47.16247" lon="-1.47046">
        <ele>21</ele>
        <time>2019-02-03T08:01:09Z</time>
      </trkpt>
      <trkpt lat="47.1625" lon="-1.47071">
        <ele>21</ele>
        <time>2019-02-03T08:01:12Z</time>
      </trkpt>
      <trkpt lat="47.1625" lon="-1.47079">
        <ele>20</ele>
        <time>2019-02-03T08:01:13Z</time>
      </trkpt>
      <trkpt lat="47.16248" lon="-1.47088">
        <ele>20</ele>
        <time>2019-02-03T08:01:14Z</time>
      </trkpt>
      <trkpt lat="47.16246" lon="-1.47095">
        <ele>20</ele>
        <time>2019-02-03T08:01:15Z</time>
      </trkpt>
      <trkpt lat="47.1621" lon="-1.47186">
        <ele>20</ele>
        <time>2019-02-03T08:01:27Z</time>
      </trkpt>
      <trkpt lat="47.16157" lon="-1.47264">
        <ele>19</ele>
        <time>2019-02-03T08:01:41Z</time>
      </trkpt>
      <trkpt lat="47.16152" lon="-1.47269">
        <ele>19</ele>
        <time>2019-02-03T08:01:42Z</time>
      </trkpt>
      <trkpt lat="47.16141" lon="-1.47274">
        <ele>18</ele>
        <time>2019-02-03T08:01:44Z</time>
      </trkpt>
      <trkpt lat="47.16128" lon="-1.4728">
        <ele>18</ele>
        <time>2019-02-03T08:01:46Z</time>
      </trkpt>
      <trkpt lat="47.16095" lon="-1.47302">
        <ele>15</ele>
        <time>2019-02-03T08:01:51Z</time>
      </trkpt>
      <trkpt lat="47.15989" lon="-1.47356">
        <ele>8</ele>
        <time>2019-02-03T08:02:06Z</time>
      </trkpt>
      <trkpt lat="47.15985" lon="-1.4736">
        <ele>8</ele>
        <time>2019-02-03T08:02:07Z</time>
      </trkpt>
      <trkpt lat="47.15962" lon="-1.47373">
        <ele>8</ele>
        <time>2019-02-03T08:02:12Z</time>
      </trkpt>
      <trkpt lat="47.15941" lon="-1.47389">
        <ele>6</ele>
        <time>2019-02-03T08:02:17Z</time>
      </trkpt>
      <trkpt lat="47.15938" lon="-1.47396">
        <ele>6</ele>
        <time>2019-02-03T08:02:18Z</time>
      </trkpt>
      <trkpt lat="47.15929" lon="-1.47399">
        <ele>5</ele>
        <time>2019-02-03T08:02:20Z</time>
      </trkpt>
      <trkpt lat="47.15922" lon="-1.47399">
        <ele>5</ele>
        <time>2019-02-03T08:02:22Z</time>
      </trkpt>
      <trkpt lat="47.15917" lon="-1.47398">
        <ele>5</ele>
        <time>2019-02-03T08:02:24Z</time>
      </trkpt>
      <trkpt lat="47.15912" lon="-1.47394">
        <ele>6</ele>
        <time>2019-02-03T08:02:26Z</time>
      </trkpt>
      <trkpt lat="47.15909" lon="-1.47387">
        <ele>5</ele>
        <time>2019-02-03T08:02:28Z</time>
      </trkpt>
      <trkpt lat="47.15907" lon="-1.4738">
        <ele>4</ele>
        <time>2019-02-03T08:02:29Z</time>
      </trkpt>
      <trkpt lat="47.15886" lon="-1.47348">
        <ele>6</ele>
        <time>2019-02-03T08:02:36Z</time>
      </trkpt>
      <trkpt lat="47.15882" lon="-1.4734">
        <ele>6</ele>
        <time>2019-02-03T08:02:38Z</time>
      </trkpt>
      <trkpt lat="47.15877" lon="-1.47333">
        <ele>5</ele>
        <time>2019-02-03T08:02:40Z</time>
      </trkpt>
      <trkpt lat="47.15867" lon="-1.47321">
        <ele>5</ele>
        <time>2019-02-03T08:02:43Z</time>
      </trkpt>
      <trkpt lat="47.15863" lon="-1.47313">
        <ele>5</ele>
        <time>2019-02-03T08:02:44Z</time>
      </trkpt>
      <trkpt lat="47.15861" lon="-1.47305">
        <ele>4</ele>
        <time>2019-02-03T08:02:45Z</time>
      </trkpt>
      <trkpt lat="47.15861" lon="-1.47297">
        <ele>4</ele>
        <time>2019-02-03T08:02:46Z</time>
      </trkpt>
      <trkpt lat="47.15866" lon="-1.47283">
        <ele>4</ele>
        <time>2019-02-03T08:02:47Z</time>
      </trkpt>
      <trkpt lat="47.15861" lon="-1.4727">
        <ele>4</ele>
        <time>2019-02-03T08:02:48Z</time>
      </trkpt>
      <trkpt lat="47.15856" lon="-1.4727">
        <ele>5</ele>
        <time>2019-02-03T08:02:49Z</time>
      </trkpt>
      <trkpt lat="47.15854" lon="-1.47262">
        <ele>5</ele>
        <time>2019-02-03T08:02:50Z</time>
      </trkpt>
      <trkpt lat="47.15852" lon="-1.47253">
        <ele>5</ele>
        <time>2019-02-03T08:02:51Z</time>
      </trkpt>
      <trkpt lat="47.15851" lon="-1.47245">
        <ele>6</ele>
        <time>2019-02-03T08:02:52Z</time>
      </trkpt>
      <trkpt lat="47.15848" lon="-1.47238">
        <ele>6</ele>
        <time>2019-02-03T08:02:53Z</time>
      </trkpt>
      <trkpt lat="47.15843" lon="-1.47233">
        <ele>6</ele>
        <time>2019-02-03T08:02:54Z</time>
      </trkpt>
      <trkpt lat="47.15837" lon="-1.47231">
        <ele>6</ele>
        <time>2019-02-03T08:02:55Z</time>
      </trkpt>
      <trkpt lat="47.15813" lon="-1.47221">
        <ele>5</ele>
        <time>2019-02-03T08:02:58Z</time>
      </trkpt>
      <trkpt lat="47.15805" lon="-1.47217">
        <ele>5</ele>
        <time>2019-02-03T08:02:59Z</time>
      </trkpt>
      <trkpt lat="47.15797" lon="-1.4721">
        <ele>5</ele>
        <time>2019-02-03T08:03:00Z</time>
      </trkpt>
      <trkpt lat="47.15789" lon="-1.47203">
        <ele>5</ele>
        <time>2019-02-03T08:03:01Z</time>
      </trkpt>
      <trkpt lat="47.15729" lon="-1.4714">
        <ele>2</ele>
        <time>2019-02-03T08:03:09Z</time>
      </trkpt>
      <trkpt lat="47.15697" lon="-1.47097">
        <ele>5</ele>
        <time>2019-02-03T08:03:14Z</time>
      </trkpt>
      <trkpt lat="47.15691" lon="-1.47093">
        <ele>4</ele>
        <time>2019-02-03T08:03:15Z</time>
      </trkpt>
      <trkpt lat="47.15684" lon="-1.47088">
        <ele>4</ele>
        <time>2019-02-03T08:03:16Z</time>
      </trkpt>
      <trkpt lat="47.15677" lon="-1.47084">
        <ele>5</ele>
        <time>2019-02-03T08:03:17Z</time>
      </trkpt>
      <trkpt lat="47.1567" lon="-1.47079">
        <ele>4</ele>
        <time>2019-02-03T08:03:18Z</time>
      </trkpt>
      <trkpt lat="47.15664" lon="-1.47073">
        <ele>4</ele>
        <time>2019-02-03T08:03:19Z</time>
      </trkpt>
      <trkpt lat="47.15659" lon="-1.47066">
        <ele>3</ele>
        <time>2019-02-03T08:03:20Z</time>
      </trkpt>
      <trkpt lat="47.15655" lon="-1.47058">
        <ele>4</ele>
        <time>2019-02-03T08:03:21Z</time>
      </trkpt>
      <trkpt lat="47.15651" lon="-1.47049">
        <ele>5</ele>
        <time>2019-02-03T08:03:22Z</time>
      </trkpt>
      <trkpt lat="47.15645" lon="-1.47041">
        <ele>5</ele>
        <time>2019-02-03T08:03:23Z</time>
      </trkpt>
      <trkpt lat="47.15639" lon="-1.47035">
        <ele>5</ele>
        <time>2019-02-03T08:03:24Z</time>
      </trkpt>
      <trkpt lat="47.1563" lon="-1.47031">
        <ele>4</ele>
        <time>2019-02-03T08:03:25Z</time>
      </trkpt>
      <trkpt lat="47.15607" lon="-1.47034">
        <ele>5</ele>
        <time>2019-02-03T08:03:28Z</time>
      </trkpt>
      <trkpt lat="47.15594" lon="-1.47028">
        <ele>3</ele>
        <time>2019-02-03T08:03:30Z</time>
      </trkpt>
      <trkpt lat="47.15553" lon="-1.47008">
        <ele>2</ele>
        <time>2019-02-03T08:03:36Z</time>
      </trkpt>
      <trkpt lat="47.15486" lon="-1.46986">
        <ele>3</ele>
        <time>2019-02-03T08:03:46Z</time>
      </trkpt>
      <trkpt lat="47.15481" lon="-1.4698">
        <ele>3</ele>
        <time>2019-02-03T08:03:47Z</time>
      </trkpt>
      <trkpt lat="47.15476" lon="-1.46976">
        <ele>4</ele>
        <time>2019-02-03T08:03:48Z</time>
      </trkpt>
      <trkpt lat="47.15471" lon="-1.4697">
        <ele>4</ele>
        <time>2019-02-03T08:03:49Z</time>
      </trkpt>
      <trkpt lat="47.15466" lon="-1.46965">
        <ele>4</ele>
        <time>2019-02-03T08:03:50Z</time>
      </trkpt>
      <trkpt lat="47.15413" lon="-1.46895">
        <ele>2</ele>
        <time>2019-02-03T08:04:02Z</time>
      </trkpt>
      <trkpt lat="47.15398" lon="-1.46872">
        <ele>3</ele>
        <time>2019-02-03T08:04:06Z</time>
      </trkpt>
      <trkpt lat="47.15352" lon="-1.46815">
        <ele>2</ele>
        <time>2019-02-03T08:04:16Z</time>
      </trkpt>
      <trkpt lat="47.1535" lon="-1.46809">
        <ele>3</ele>
        <time>2019-02-03T08:04:17Z</time>
      </trkpt>
      <trkpt lat="47.15346" lon="-1.46795">
        <ele>2</ele>
        <time>2019-02-03T08:04:19Z</time>
      </trkpt>
      <trkpt lat="47.15346" lon="-1.46786">
        <ele>3</ele>
        <time>2019-02-03T08:04:20Z</time>
      </trkpt>
      <trkpt lat="47.15339" lon="-1.46747">
        <ele>2</ele>
        <time>2019-02-03T08:04:24Z</time>
      </trkpt>
      <trkpt lat="47.15334" lon="-1.46728">
        <ele>2</ele>
        <time>2019-02-03T08:04:26Z</time>
      </trkpt>
      <trkpt lat="47.15322" lon="-1.46688">
        <ele>2</ele>
        <time>2019-02-03T08:04:31Z</time>
      </trkpt>
      <trkpt lat="47.15316" lon="-1.46663">
        <ele>4</ele>
        <time>2019-02-03T08:04:34Z</time>
      </trkpt>
      <trkpt lat="47.15313" lon="-1.46647">
        <ele>3</ele>
        <time>2019-02-03T08:04:36Z</time>
      </trkpt>
      <trkpt lat="47.15313" lon="-1.46639">
        <ele>3</ele>
        <time>2019-02-03T08:04:37Z</time>
      </trkpt>
      <trkpt lat="47.15313" lon="-1.4663">
        <ele>3</ele>
        <time>2019-02-03T08:04:38Z</time>
      </trkpt>
      <trkpt lat="47.15314" lon="-1.46614">
        <ele>4</ele>
        <time>2019-02-03T08:04:40Z</time>
      </trkpt>
      <trkpt lat="47.15322" lon="-1.46577">
        <ele>4</ele>
        <time>2019-02-03T08:04:46Z</time>
      </trkpt>
      <trkpt lat="47.15327" lon="-1.46566">
        <ele>4</ele>
        <time>2019-02-03T08:04:48Z</time>
      </trkpt>
      <trkpt lat="47.1533" lon="-1.46561">
        <ele>4</ele>
        <time>2019-02-03T08:04:49Z</time>
      </trkpt>
      <trkpt lat="47.15336" lon="-1.46551">
        <ele>4</ele>
        <time>2019-02-03T08:04:51Z</time>
      </trkpt>
      <trkpt lat="47.15337" lon="-1.46539">
        <ele>4</ele>
        <time>2019-02-03T08:04:53Z</time>
      </trkpt>
      <trkpt lat="47.15334" lon="-1.4653">
        <ele>4</ele>
        <time>2019-02-03T08:04:55Z</time>
      </trkpt>
      <trkpt lat="47.1533" lon="-1.46522">
        <ele>4</ele>
        <time>2019-02-03T08:04:57Z</time>
      </trkpt>
      <trkpt lat="47.15324" lon="-1.46512">
        <ele>3</ele>
        <time>2019-02-03T08:04:59Z</time>
      </trkpt>
      <trkpt lat="47.15322" lon="-1.46506">
        <ele>4</ele>
        <time>2019-02-03T08:05:00Z</time>
      </trkpt>
      <trkpt lat="47.1532" lon="-1.46488">
        <ele>4</ele>
        <time>2019-02-03T08:05:04Z</time>
      </trkpt>
      <trkpt lat="47.15316" lon="-1.4648">
        <ele>4</ele>
        <time>2019-02-03T08:05:06Z</time>
      </trkpt>
      <trkpt lat="47.15312" lon="-1.46472">
        <ele>4</ele>
        <time>2019-02-03T08:05:08Z</time>
      </trkpt>
      <trkpt lat="47.15308" lon="-1.46461">
        <ele>4</ele>
        <time>2019-02-03T08:05:10Z</time>
      </trkpt>
      <trkpt lat="47.15303" lon="-1.46453">
        <ele>5</ele>
        <time>2019-02-03T08:05:12Z</time>
      </trkpt>
      <trkpt lat="47.15297" lon="-1.4644">
        <ele>5</ele>
        <time>2019-02-03T08:05:17Z</time>
      </trkpt>
      <trkpt lat="47.15293" lon="-1.46433">
        <ele>5</ele>
        <time>2019-02-03T08:05:19Z</time>
      </trkpt>
      <trkpt lat="47.15289" lon="-1.46419">
        <ele>6</ele>
        <time>2019-02-03T08:05:28Z</time>
      </trkpt>
      <trkpt lat="47.15293" lon="-1.46415">
        <ele>6</ele>
        <time>2019-02-03T08:05:31Z</time>
      </trkpt>
      <trkpt lat="47.15299" lon="-1.46414">
        <ele>6</ele>
        <time>2019-02-03T08:05:34Z</time>
      </trkpt>
      <trkpt lat="47.15303" lon="-1.46409">
        <ele>5</ele>
        <time>2019-02-03T08:05:37Z</time>
      </trkpt>
      <trkpt lat="47.15308" lon="-1.46407">
        <ele>5</ele>
        <time>2019-02-03T08:05:40Z</time>
      </trkpt>
      <trkpt lat="47.15316" lon="-1.46404">
        <ele>5</ele>
        <time>2019-02-03T08:05:44Z</time>
      </trkpt>
      <trkpt lat="47.1532" lon="-1.46398">
        <ele>5</ele>
        <time>2019-02-03T08:05:46Z</time>
      </trkpt>
      <trkpt lat="47.15324" lon="-1.46392">
        <ele>5</ele>
        <time>2019-02-03T08:05:48Z</time>
      </trkpt>
      <trkpt lat="47.15324" lon="-1.46385">
        <ele>6</ele>
        <time>2019-02-03T08:05:50Z</time>
      </trkpt>
      <trkpt lat="47.15322" lon="-1.46377">
        <ele>7</ele>
        <time>2019-02-03T08:05:52Z</time>
      </trkpt>
      <trkpt lat="47.15319" lon="-1.46371">
        <ele>6</ele>
        <time>2019-02-03T08:05:54Z</time>
      </trkpt>
      <trkpt lat="47.15311" lon="-1.46339">
        <ele>8</ele>
        <time>2019-02-03T08:06:02Z</time>
      </trkpt>
      <trkpt lat="47.15311" lon="-1.46321">
        <ele>9</ele>
        <time>2019-02-03T08:06:06Z</time>
      </trkpt>
      <trkpt lat="47.15309" lon="-1.46301">
        <ele>9</ele>
        <time>2019-02-03T08:06:10Z</time>
      </trkpt>
      <trkpt lat="47.15308" lon="-1.46291">
        <ele>10</ele>
        <time>2019-02-03T08:06:12Z</time>
      </trkpt>
      <trkpt lat="47.15307" lon="-1.4628">
        <ele>10</ele>
        <time>2019-02-03T08:06:14Z</time>
      </trkpt>
      <trkpt lat="47.15309" lon="-1.46257">
        <ele>9</ele>
        <time>2019-02-03T08:06:18Z</time>
      </trkpt>
      <trkpt lat="47.15312" lon="-1.46247">
        <ele>9</ele>
        <time>2019-02-03T08:06:20Z</time>
      </trkpt>
      <trkpt lat="47.15316" lon="-1.46238">
        <ele>8</ele>
        <time>2019-02-03T08:06:22Z</time>
      </trkpt>
      <trkpt lat="47.15321" lon="-1.4623">
        <ele>8</ele>
        <time>2019-02-03T08:06:24Z</time>
      </trkpt>
      <trkpt lat="47.15325" lon="-1.46222">
        <ele>8</ele>
        <time>2019-02-03T08:06:26Z</time>
      </trkpt>
      <trkpt lat="47.15328" lon="-1.46215">
        <ele>9</ele>
        <time>2019-02-03T08:06:28Z</time>
      </trkpt>
      <trkpt lat="47.15331" lon="-1.46208">
        <ele>9</ele>
        <time>2019-02-03T08:06:30Z</time>
      </trkpt>
      <trkpt lat="47.15332" lon="-1.46191">
        <ele>10</ele>
        <time>2019-02-03T08:06:33Z</time>
      </trkpt>
      <trkpt lat="47.15331" lon="-1.46179">
        <ele>10</ele>
        <time>2019-02-03T08:06:35Z</time>
      </trkpt>
      <trkpt lat="47.15325" lon="-1.46148">
        <ele>9</ele>
        <time>2019-02-03T08:06:42Z</time>
      </trkpt>
      <trkpt lat="47.15325" lon="-1.46135">
        <ele>9</ele>
        <time>2019-02-03T08:06:44Z</time>
      </trkpt>
      <trkpt lat="47.15327" lon="-1.46117">
        <ele>8</ele>
        <time>2019-02-03T08:06:47Z</time>
      </trkpt>
      <trkpt lat="47.15328" lon="-1.46107">
        <ele>10</ele>
        <time>2019-02-03T08:06:49Z</time>
      </trkpt>
      <trkpt lat="47.15331" lon="-1.46091">
        <ele>9</ele>
        <time>2019-02-03T08:06:53Z</time>
      </trkpt>
      <trkpt lat="47.15332" lon="-1.46079">
        <ele>9</ele>
        <time>2019-02-03T08:06:55Z</time>
      </trkpt>
      <trkpt lat="47.15333" lon="-1.46072">
        <ele>8</ele>
        <time>2019-02-03T08:06:56Z</time>
      </trkpt>
      <trkpt lat="47.15337" lon="-1.46066">
        <ele>7</ele>
        <time>2019-02-03T08:06:57Z</time>
      </trkpt>
      <trkpt lat="47.1534" lon="-1.46052">
        <ele>6</ele>
        <time>2019-02-03T08:06:59Z</time>
      </trkpt>
      <trkpt lat="47.15343" lon="-1.46045">
        <ele>6</ele>
        <time>2019-02-03T08:07:00Z</time>
      </trkpt>
      <trkpt lat="47.1535" lon="-1.46035">
        <ele>5</ele>
        <time>2019-02-03T08:07:02Z</time>
      </trkpt>
      <trkpt lat="47.15354" lon="-1.46032">
        <ele>6</ele>
        <time>2019-02-03T08:07:03Z</time>
      </trkpt>
      <trkpt lat="47.15356" lon="-1.46025">
        <ele>6</ele>
        <time>2019-02-03T08:07:04Z</time>
      </trkpt>
      <trkpt lat="47.15362" lon="-1.46019">
        <ele>5</ele>
        <time>2019-02-03T08:07:06Z</time>
      </trkpt>
      <trkpt lat="47.15381" lon="-1.46019">
        <ele>6</ele>
        <time>2019-02-03T08:07:09Z</time>
      </trkpt>
      <trkpt lat="47.15388" lon="-1.46016">
        <ele>8</ele>
        <time>2019-02-03T08:07:12Z</time>
      </trkpt>
      <trkpt lat="47.15392" lon="-1.46013">
        <ele>8</ele>
        <time>2019-02-03T08:07:13Z</time>
      </trkpt>
      <trkpt lat="47.15406" lon="-1.45999">
        <ele>10</ele>
        <time>2019-02-03T08:07:17Z</time>
      </trkpt>
      <trkpt lat="47.15416" lon="-1.45987">
        <ele>9</ele>
        <time>2019-02-03T08:07:20Z</time>
      </trkpt>
      <trkpt lat="47.15422" lon="-1.45982">
        <ele>10</ele>
        <time>2019-02-03T08:07:22Z</time>
      </trkpt>
      <trkpt lat="47.15428" lon="-1.45986">
        <ele>10</ele>
        <time>2019-02-03T08:07:24Z</time>
      </trkpt>
      <trkpt lat="47.15437" lon="-1.46013">
        <ele>11</ele>
        <time>2019-02-03T08:07:28Z</time>
      </trkpt>
      <trkpt lat="47.15443" lon="-1.46026">
        <ele>14</ele>
        <time>2019-02-03T08:07:32Z</time>
      </trkpt>
      <trkpt lat="47.15453" lon="-1.46038">
        <ele>15</ele>
        <time>2019-02-03T08:07:36Z</time>
      </trkpt>
      <trkpt lat="47.15459" lon="-1.46041">
        <ele>15</ele>
        <time>2019-02-03T08:07:38Z</time>
      </trkpt>
      <trkpt lat="47.15465" lon="-1.46039">
        <ele>14</ele>
        <time>2019-02-03T08:07:40Z</time>
      </trkpt>
      <trkpt lat="47.15471" lon="-1.46032">
        <ele>14</ele>
        <time>2019-02-03T08:07:42Z</time>
      </trkpt>
      <trkpt lat="47.15502" lon="-1.45999">
        <ele>16</ele>
        <time>2019-02-03T08:07:52Z</time>
      </trkpt>
      <trkpt lat="47.15507" lon="-1.45992">
        <ele>16</ele>
        <time>2019-02-03T08:07:54Z</time>
      </trkpt>
      <trkpt lat="47.1552" lon="-1.45979">
        <ele>18</ele>
        <time>2019-02-03T08:08:00Z</time>
      </trkpt>
      <trkpt lat="47.15526" lon="-1.45974">
        <ele>18</ele>
        <time>2019-02-03T08:08:03Z</time>
      </trkpt>
      <trkpt lat="47.15531" lon="-1.45974">
        <ele>19</ele>
        <time>2019-02-03T08:08:05Z</time>
      </trkpt>
      <trkpt lat="47.15537" lon="-1.45974">
        <ele>19</ele>
        <time>2019-02-03T08:08:08Z</time>
      </trkpt>
      <trkpt lat="47.15542" lon="-1.4597">
        <ele>19</ele>
        <time>2019-02-03T08:08:11Z</time>
      </trkpt>
      <trkpt lat="47.15551" lon="-1.45964">
        <ele>20</ele>
        <time>2019-02-03T08:08:16Z</time>
      </trkpt>
      <trkpt lat="47.15557" lon="-1.45963">
        <ele>20</ele>
        <time>2019-02-03T08:08:20Z</time>
      </trkpt>
      <trkpt lat="47.15566" lon="-1.45951">
        <ele>21</ele>
        <time>2019-02-03T08:08:25Z</time>
      </trkpt>
      <trkpt lat="47.15574" lon="-1.45946">
        <ele>21</ele>
        <time>2019-02-03T08:08:28Z</time>
      </trkpt>
      <trkpt lat="47.15581" lon="-1.45936">
        <ele>20</ele>
        <time>2019-02-03T08:08:32Z</time>
      </trkpt>
      <trkpt lat="47.15587" lon="-1.45929">
        <ele>21</ele>
        <time>2019-02-03T08:08:36Z</time>
      </trkpt>
      <trkpt lat="47.15598" lon="-1.45915">
        <ele>20</ele>
        <time>2019-02-03T08:08:45Z</time>
      </trkpt>
      <trkpt lat="47.15603" lon="-1.45915">
        <ele>22</ele>
        <time>2019-02-03T08:08:48Z</time>
      </trkpt>
      <trkpt lat="47.15622" lon="-1.459">
        <ele>22</ele>
        <time>2019-02-03T08:09:00Z</time>
      </trkpt>
      <trkpt lat="47.15634" lon="-1.45894">
        <ele>23</ele>
        <time>2019-02-03T08:09:04Z</time>
      </trkpt>
      <trkpt lat="47.15647" lon="-1.45887">
        <ele>22</ele>
        <time>2019-02-03T08:09:08Z</time>
      </trkpt>
      <trkpt lat="47.15664" lon="-1.45871">
        <ele>23</ele>
        <time>2019-02-03T08:09:14Z</time>
      </trkpt>
      <trkpt lat="47.1567" lon="-1.45863">
        <ele>23</ele>
        <time>2019-02-03T08:09:16Z</time>
      </trkpt>
      <trkpt lat="47.15674" lon="-1.45852">
        <ele>26</ele>
        <time>2019-02-03T08:09:18Z</time>
      </trkpt>
      <trkpt lat="47.15676" lon="-1.45841">
        <ele>26</ele>
        <time>2019-02-03T08:09:20Z</time>
      </trkpt>
      <trkpt lat="47.15677" lon="-1.45828">
        <ele>27</ele>
        <time>2019-02-03T08:09:22Z</time>
      </trkpt>
      <trkpt lat="47.15677" lon="-1.45804">
        <ele>26</ele>
        <time>2019-02-03T08:09:26Z</time>
      </trkpt>
      <trkpt lat="47.15676" lon="-1.45794">
        <ele>26</ele>
        <time>2019-02-03T08:09:28Z</time>
      </trkpt>
      <trkpt lat="47.15671" lon="-1.45786">
        <ele>26</ele>
        <time>2019-02-03T08:09:30Z</time>
      </trkpt>
      <trkpt lat="47.15668" lon="-1.45779">
        <ele>25</ele>
        <time>2019-02-03T08:09:32Z</time>
      </trkpt>
      <trkpt lat="47.15672" lon="-1.45769">
        <ele>25</ele>
        <time>2019-02-03T08:09:34Z</time>
      </trkpt>
      <trkpt lat="47.15711" lon="-1.45737">
        <ele>29</ele>
        <time>2019-02-03T08:09:43Z</time>
      </trkpt>
      <trkpt lat="47.15718" lon="-1.45729">
        <ele>28</ele>
        <time>2019-02-03T08:09:45Z</time>
      </trkpt>
      <trkpt lat="47.15732" lon="-1.45713">
        <ele>31</ele>
        <time>2019-02-03T08:09:49Z</time>
      </trkpt>
      <trkpt lat="47.15753" lon="-1.45681">
        <ele>30</ele>
        <time>2019-02-03T08:09:57Z</time>
      </trkpt>
      <trkpt lat="47.15758" lon="-1.45672">
        <ele>30</ele>
        <time>2019-02-03T08:09:59Z</time>
      </trkpt>
      <trkpt lat="47.15764" lon="-1.45663">
        <ele>29</ele>
        <time>2019-02-03T08:10:01Z</time>
      </trkpt>
      <trkpt lat="47.158" lon="-1.45618">
        <ele>31</ele>
        <time>2019-02-03T08:10:12Z</time>
      </trkpt>
      <trkpt lat="47.15807" lon="-1.45601">
        <ele>31</ele>
        <time>2019-02-03T08:10:15Z</time>
      </trkpt>
      <trkpt lat="47.15808" lon="-1.45594">
        <ele>31</ele>
        <time>2019-02-03T08:10:16Z</time>
      </trkpt>
      <trkpt lat="47.15812" lon="-1.45574">
        <ele>32</ele>
        <time>2019-02-03T08:10:19Z</time>
      </trkpt>
      <trkpt lat="47.15823" lon="-1.45401">
        <ele>35</ele>
        <time>2019-02-03T08:10:45Z</time>
      </trkpt>
      <trkpt lat="47.15823" lon="-1.45387">
        <ele>35</ele>
        <time>2019-02-03T08:10:47Z</time>
      </trkpt>
      <trkpt lat="47.15821" lon="-1.45381">
        <ele>35</ele>
        <time>2019-02-03T08:10:48Z</time>
      </trkpt>
      <trkpt lat="47.15769" lon="-1.45372">
        <ele>32</ele>
        <time>2019-02-03T08:10:57Z</time>
      </trkpt>
      <trkpt lat="47.15765" lon="-1.45361">
        <ele>32</ele>
        <time>2019-02-03T08:10:59Z</time>
      </trkpt>
      <trkpt lat="47.15764" lon="-1.45348">
        <ele>32</ele>
        <time>2019-02-03T08:11:01Z</time>
      </trkpt>
      <trkpt lat="47.15737" lon="-1.45192">
        <ele>26</ele>
        <time>2019-02-03T08:11:21Z</time>
      </trkpt>
      <trkpt lat="47.15732" lon="-1.45181">
        <ele>25</ele>
        <time>2019-02-03T08:11:22Z</time>
      </trkpt>
      <trkpt lat="47.15726" lon="-1.45157">
        <ele>24</ele>
        <time>2019-02-03T08:11:24Z</time>
      </trkpt>
      <trkpt lat="47.15724" lon="-1.45147">
        <ele>22</ele>
        <time>2019-02-03T08:11:25Z</time>
      </trkpt>
      <trkpt lat="47.15721" lon="-1.4511">
        <ele>20</ele>
        <time>2019-02-03T08:11:28Z</time>
      </trkpt>
      <trkpt lat="47.15713" lon="-1.45077">
        <ele>20</ele>
        <time>2019-02-03T08:11:31Z</time>
      </trkpt>
      <trkpt lat="47.1571" lon="-1.45068">
        <ele>19</ele>
        <time>2019-02-03T08:11:32Z</time>
      </trkpt>
      <trkpt lat="47.15707" lon="-1.4506">
        <ele>19</ele>
        <time>2019-02-03T08:11:33Z</time>
      </trkpt>
      <trkpt lat="47.15698" lon="-1.45047">
        <ele>20</ele>
        <time>2019-02-03T08:11:36Z</time>
      </trkpt>
      <trkpt lat="47.15696" lon="-1.45039">
        <ele>19</ele>
        <time>2019-02-03T08:11:37Z</time>
      </trkpt>
      <trkpt lat="47.15686" lon="-1.45025">
        <ele>20</ele>
        <time>2019-02-03T08:11:40Z</time>
      </trkpt>
      <trkpt lat="47.1568" lon="-1.45024">
        <ele>20</ele>
        <time>2019-02-03T08:11:41Z</time>
      </trkpt>
      <trkpt lat="47.15675" lon="-1.45023">
        <ele>19</ele>
        <time>2019-02-03T08:11:42Z</time>
      </trkpt>
      <trkpt lat="47.15651" lon="-1.45036">
        <ele>18</ele>
        <time>2019-02-03T08:11:46Z</time>
      </trkpt>
      <trkpt lat="47.15631" lon="-1.45046">
        <ele>16</ele>
        <time>2019-02-03T08:11:49Z</time>
      </trkpt>
      <trkpt lat="47.15624" lon="-1.4505">
        <ele>15</ele>
        <time>2019-02-03T08:11:50Z</time>
      </trkpt>
      <trkpt lat="47.15611" lon="-1.45055">
        <ele>14</ele>
        <time>2019-02-03T08:11:52Z</time>
      </trkpt>
      <trkpt lat="47.15604" lon="-1.45059">
        <ele>14</ele>
        <time>2019-02-03T08:11:53Z</time>
      </trkpt>
      <trkpt lat="47.15598" lon="-1.45062">
        <ele>16</ele>
        <time>2019-02-03T08:11:54Z</time>
      </trkpt>
      <trkpt lat="47.15592" lon="-1.45066">
        <ele>16</ele>
        <time>2019-02-03T08:11:55Z</time>
      </trkpt>
      <trkpt lat="47.15586" lon="-1.45068">
        <ele>15</ele>
        <time>2019-02-03T08:11:56Z</time>
      </trkpt>
      <trkpt lat="47.1558" lon="-1.45071">
        <ele>16</ele>
        <time>2019-02-03T08:11:57Z</time>
      </trkpt>
      <trkpt lat="47.15566" lon="-1.45079">
        <ele>15</ele>
        <time>2019-02-03T08:12:00Z</time>
      </trkpt>
      <trkpt lat="47.15561" lon="-1.45083">
        <ele>15</ele>
        <time>2019-02-03T08:12:01Z</time>
      </trkpt>
      <trkpt lat="47.15557" lon="-1.45085">
        <ele>15</ele>
        <time>2019-02-03T08:12:02Z</time>
      </trkpt>
      <trkpt lat="47.15531" lon="-1.45099">
        <ele>16</ele>
        <time>2019-02-03T08:12:08Z</time>
      </trkpt>
      <trkpt lat="47.15527" lon="-1.45108">
        <ele>15</ele>
        <time>2019-02-03T08:12:10Z</time>
      </trkpt>
      <trkpt lat="47.15527" lon="-1.45121">
        <ele>16</ele>
        <time>2019-02-03T08:12:12Z</time>
      </trkpt>
      <trkpt lat="47.15529" lon="-1.45127">
        <ele>16</ele>
        <time>2019-02-03T08:12:13Z</time>
      </trkpt>
      <trkpt lat="47.15532" lon="-1.45142">
        <ele>15</ele>
        <time>2019-02-03T08:12:15Z</time>
      </trkpt>
      <trkpt lat="47.15541" lon="-1.45165">
        <ele>14</ele>
        <time>2019-02-03T08:12:18Z</time>
      </trkpt>
      <trkpt lat="47.15544" lon="-1.45173">
        <ele>14</ele>
        <time>2019-02-03T08:12:19Z</time>
      </trkpt>
      <trkpt lat="47.15548" lon="-1.4519">
        <ele>14</ele>
        <time>2019-02-03T08:12:21Z</time>
      </trkpt>
      <trkpt lat="47.15546" lon="-1.45198">
        <ele>13</ele>
        <time>2019-02-03T08:12:22Z</time>
      </trkpt>
      <trkpt lat="47.15544" lon="-1.45207">
        <ele>13</ele>
        <time>2019-02-03T08:12:24Z</time>
      </trkpt>
      <trkpt lat="47.15546" lon="-1.45218">
        <ele>12</ele>
        <time>2019-02-03T08:12:26Z</time>
      </trkpt>
      <trkpt lat="47.15541" lon="-1.45226">
        <ele>11</ele>
        <time>2019-02-03T08:12:28Z</time>
      </trkpt>
      <trkpt lat="47.15525" lon="-1.45238">
        <ele>11</ele>
        <time>2019-02-03T08:12:32Z</time>
      </trkpt>
      <trkpt lat="47.15512" lon="-1.45241">
        <ele>10</ele>
        <time>2019-02-03T08:12:35Z</time>
      </trkpt>
      <trkpt lat="47.15492" lon="-1.4524">
        <ele>9</ele>
        <time>2019-02-03T08:12:39Z</time>
      </trkpt>
      <trkpt lat="47.15487" lon="-1.45239">
        <ele>9</ele>
        <time>2019-02-03T08:12:40Z</time>
      </trkpt>
      <trkpt lat="47.15482" lon="-1.45239">
        <ele>9</ele>
        <time>2019-02-03T08:12:41Z</time>
      </trkpt>
      <trkpt lat="47.15473" lon="-1.4524">
        <ele>9</ele>
        <time>2019-02-03T08:12:43Z</time>
      </trkpt>
      <trkpt lat="47.15464" lon="-1.4524">
        <ele>9</ele>
        <time>2019-02-03T08:12:45Z</time>
      </trkpt>
      <trkpt lat="47.15459" lon="-1.45239">
        <ele>8</ele>
        <time>2019-02-03T08:12:46Z</time>
      </trkpt>
      <trkpt lat="47.15454" lon="-1.45237">
        <ele>8</ele>
        <time>2019-02-03T08:12:47Z</time>
      </trkpt>
      <trkpt lat="47.1545" lon="-1.45233">
        <ele>7</ele>
        <time>2019-02-03T08:12:48Z</time>
      </trkpt>
      <trkpt lat="47.15446" lon="-1.45225">
        <ele>7</ele>
        <time>2019-02-03T08:12:49Z</time>
      </trkpt>
      <trkpt lat="47.15444" lon="-1.45215">
        <ele>8</ele>
        <time>2019-02-03T08:12:50Z</time>
      </trkpt>
      <trkpt lat="47.15438" lon="-1.45194">
        <ele>8</ele>
        <time>2019-02-03T08:12:52Z</time>
      </trkpt>
      <trkpt lat="47.15431" lon="-1.45153">
        <ele>9</ele>
        <time>2019-02-03T08:12:56Z</time>
      </trkpt>
      <trkpt lat="47.15428" lon="-1.45145">
        <ele>9</ele>
        <time>2019-02-03T08:12:57Z</time>
      </trkpt>
      <trkpt lat="47.15426" lon="-1.45133">
        <ele>9</ele>
        <time>2019-02-03T08:12:58Z</time>
      </trkpt>
      <trkpt lat="47.15418" lon="-1.45108">
        <ele>9</ele>
        <time>2019-02-03T08:13:01Z</time>
      </trkpt>
      <trkpt lat="47.15416" lon="-1.45097">
        <ele>8</ele>
        <time>2019-02-03T08:13:02Z</time>
      </trkpt>
      <trkpt lat="47.15416" lon="-1.45034">
        <ele>6</ele>
        <time>2019-02-03T08:13:09Z</time>
      </trkpt>
      <trkpt lat="47.15417" lon="-1.45022">
        <ele>7</ele>
        <time>2019-02-03T08:13:11Z</time>
      </trkpt>
      <trkpt lat="47.15419" lon="-1.4501">
        <ele>6</ele>
        <time>2019-02-03T08:13:13Z</time>
      </trkpt>
      <trkpt lat="47.15422" lon="-1.44997">
        <ele>5</ele>
        <time>2019-02-03T08:13:15Z</time>
      </trkpt>
      <trkpt lat="47.15424" lon="-1.44984">
        <ele>5</ele>
        <time>2019-02-03T08:13:17Z</time>
      </trkpt>
      <trkpt lat="47.15428" lon="-1.44953">
        <ele>8</ele>
        <time>2019-02-03T08:13:23Z</time>
      </trkpt>
      <trkpt lat="47.15428" lon="-1.44944">
        <ele>9</ele>
        <time>2019-02-03T08:13:25Z</time>
      </trkpt>
      <trkpt lat="47.15425" lon="-1.44936">
        <ele>8</ele>
        <time>2019-02-03T08:13:27Z</time>
      </trkpt>
      <trkpt lat="47.15424" lon="-1.44914">
        <ele>6</ele>
        <time>2019-02-03T08:13:31Z</time>
      </trkpt>
      <trkpt lat="47.15426" lon="-1.44904">
        <ele>5</ele>
        <time>2019-02-03T08:13:33Z</time>
      </trkpt>
      <trkpt lat="47.15428" lon="-1.44897">
        <ele>6</ele>
        <time>2019-02-03T08:13:35Z</time>
      </trkpt>
      <trkpt lat="47.15431" lon="-1.44887">
        <ele>7</ele>
        <time>2019-02-03T08:13:38Z</time>
      </trkpt>
      <trkpt lat="47.15431" lon="-1.44875">
        <ele>8</ele>
        <time>2019-02-03T08:13:40Z</time>
      </trkpt>
      <trkpt lat="47.15429" lon="-1.44864">
        <ele>8</ele>
        <time>2019-02-03T08:13:42Z</time>
      </trkpt>
      <trkpt lat="47.15428" lon="-1.44856">
        <ele>7</ele>
        <time>2019-02-03T08:13:44Z</time>
      </trkpt>
      <trkpt lat="47.15424" lon="-1.44823">
        <ele>7</ele>
        <time>2019-02-03T08:13:50Z</time>
      </trkpt>
      <trkpt lat="47.15424" lon="-1.44813">
        <ele>7</ele>
        <time>2019-02-03T08:13:52Z</time>
      </trkpt>
      <trkpt lat="47.15424" lon="-1.44804">
        <ele>7</ele>
        <time>2019-02-03T08:13:54Z</time>
      </trkpt>
      <trkpt lat="47.15425" lon="-1.4479">
        <ele>8</ele>
        <time>2019-02-03T08:13:58Z</time>
      </trkpt>
      <trkpt lat="47.15424" lon="-1.44779">
        <ele>7</ele>
        <time>2019-02-03T08:14:01Z</time>
      </trkpt>
      <trkpt lat="47.15423" lon="-1.44769">
        <ele>7</ele>
        <time>2019-02-03T08:14:03Z</time>
      </trkpt>
      <trkpt lat="47.15424" lon="-1.44762">
        <ele>6</ele>
        <time>2019-02-03T08:14:04Z</time>
      </trkpt>
      <trkpt lat="47.15427" lon="-1.44743">
        <ele>7</ele>
        <time>2019-02-03T08:14:07Z</time>
      </trkpt>
      <trkpt lat="47.15427" lon="-1.44732">
        <ele>8</ele>
        <time>2019-02-03T08:14:09Z</time>
      </trkpt>
      <trkpt lat="47.15423" lon="-1.44658">
        <ele>4</ele>
        <time>2019-02-03T08:14:18Z</time>
      </trkpt>
      <trkpt lat="47.15417" lon="-1.44641">
        <ele>4</ele>
        <time>2019-02-03T08:14:21Z</time>
      </trkpt>
      <trkpt lat="47.15416" lon="-1.44627">
        <ele>5</ele>
        <time>2019-02-03T08:14:23Z</time>
      </trkpt>
      <trkpt lat="47.15419" lon="-1.44617">
        <ele>5</ele>
        <time>2019-02-03T08:14:25Z</time>
      </trkpt>
      <trkpt lat="47.15426" lon="-1.44614">
        <ele>6</ele>
        <time>2019-02-03T08:14:27Z</time>
      </trkpt>
      <trkpt lat="47.15432" lon="-1.44615">
        <ele>6</ele>
        <time>2019-02-03T08:14:28Z</time>
      </trkpt>
      <trkpt lat="47.15436" lon="-1.44617">
        <ele>6</ele>
        <time>2019-02-03T08:14:29Z</time>
      </trkpt>
      <trkpt lat="47.15443" lon="-1.44623">
        <ele>6</ele>
        <time>2019-02-03T08:14:31Z</time>
      </trkpt>
      <trkpt lat="47.15449" lon="-1.44628">
        <ele>6</ele>
        <time>2019-02-03T08:14:33Z</time>
      </trkpt>
      <trkpt lat="47.15455" lon="-1.44632">
        <ele>7</ele>
        <time>2019-02-03T08:14:35Z</time>
      </trkpt>
      <trkpt lat="47.15461" lon="-1.4463">
        <ele>10</ele>
        <time>2019-02-03T08:14:37Z</time>
      </trkpt>
      <trkpt lat="47.15465" lon="-1.44622">
        <ele>13</ele>
        <time>2019-02-03T08:14:39Z</time>
      </trkpt>
      <trkpt lat="47.15466" lon="-1.44611">
        <ele>14</ele>
        <time>2019-02-03T08:14:42Z</time>
      </trkpt>
      <trkpt lat="47.15462" lon="-1.44601">
        <ele>13</ele>
        <time>2019-02-03T08:14:45Z</time>
      </trkpt>
      <trkpt lat="47.15467" lon="-1.44589">
        <ele>11</ele>
        <time>2019-02-03T08:14:50Z</time>
      </trkpt>
      <trkpt lat="47.15475" lon="-1.4458">
        <ele>11</ele>
        <time>2019-02-03T08:14:55Z</time>
      </trkpt>
      <trkpt lat="47.15479" lon="-1.44575">
        <ele>12</ele>
        <time>2019-02-03T08:14:58Z</time>
      </trkpt>
      <trkpt lat="47.15482" lon="-1.44566">
        <ele>12</ele>
        <time>2019-02-03T08:15:01Z</time>
      </trkpt>
      <trkpt lat="47.15484" lon="-1.4456">
        <ele>13</ele>
        <time>2019-02-03T08:15:03Z</time>
      </trkpt>
      <trkpt lat="47.15483" lon="-1.44552">
        <ele>13</ele>
        <time>2019-02-03T08:15:05Z</time>
      </trkpt>
      <trkpt lat="47.15482" lon="-1.44546">
        <ele>12</ele>
        <time>2019-02-03T08:15:07Z</time>
      </trkpt>
      <trkpt lat="47.15487" lon="-1.44537">
        <ele>12</ele>
        <time>2019-02-03T08:15:11Z</time>
      </trkpt>
      <trkpt lat="47.15508" lon="-1.44518">
        <ele>13</ele>
        <time>2019-02-03T08:15:16Z</time>
      </trkpt>
      <trkpt lat="47.15507" lon="-1.44509">
        <ele>12</ele>
        <time>2019-02-03T08:15:17Z</time>
      </trkpt>
      <trkpt lat="47.15512" lon="-1.44507">
        <ele>13</ele>
        <time>2019-02-03T08:15:19Z</time>
      </trkpt>
      <trkpt lat="47.15513" lon="-1.44497">
        <ele>13</ele>
        <time>2019-02-03T08:15:22Z</time>
      </trkpt>
      <trkpt lat="47.15517" lon="-1.44494">
        <ele>13</ele>
        <time>2019-02-03T08:15:25Z</time>
      </trkpt>
      <trkpt lat="47.15526" lon="-1.44495">
        <ele>13</ele>
        <time>2019-02-03T08:15:30Z</time>
      </trkpt>
      <trkpt lat="47.15533" lon="-1.44495">
        <ele>13</ele>
        <time>2019-02-03T08:15:34Z</time>
      </trkpt>
      <trkpt lat="47.15539" lon="-1.44495">
        <ele>13</ele>
        <time>2019-02-03T08:15:37Z</time>
      </trkpt>
      <trkpt lat="47.15544" lon="-1.44493">
        <ele>14</ele>
        <time>2019-02-03T08:15:39Z</time>
      </trkpt>
      <trkpt lat="47.15553" lon="-1.44488">
        <ele>14</ele>
        <time>2019-02-03T08:15:41Z</time>
      </trkpt>
      <trkpt lat="47.15557" lon="-1.44483">
        <ele>14</ele>
        <time>2019-02-03T08:15:42Z</time>
      </trkpt>
      <trkpt lat="47.15561" lon="-1.44477">
        <ele>14</ele>
        <time>2019-02-03T08:15:43Z</time>
      </trkpt>
      <trkpt lat="47.15564" lon="-1.44472">
        <ele>15</ele>
        <time>2019-02-03T08:15:44Z</time>
      </trkpt>
      <trkpt lat="47.1557" lon="-1.44468">
        <ele>15</ele>
        <time>2019-02-03T08:15:46Z</time>
      </trkpt>
      <trkpt lat="47.15576" lon="-1.44467">
        <ele>15</ele>
        <time>2019-02-03T08:15:48Z</time>
      </trkpt>
      <trkpt lat="47.15581" lon="-1.44462">
        <ele>15</ele>
        <time>2019-02-03T08:15:50Z</time>
      </trkpt>
      <trkpt lat="47.15583" lon="-1.44454">
        <ele>16</ele>
        <time>2019-02-03T08:15:52Z</time>
      </trkpt>
      <trkpt lat="47.15583" lon="-1.44444">
        <ele>16</ele>
        <time>2019-02-03T08:15:54Z</time>
      </trkpt>
      <trkpt lat="47.1558" lon="-1.44435">
        <ele>16</ele>
        <time>2019-02-03T08:15:56Z</time>
      </trkpt>
      <trkpt lat="47.15575" lon="-1.44428">
        <ele>15</ele>
        <time>2019-02-03T08:15:58Z</time>
      </trkpt>
      <trkpt lat="47.15569" lon="-1.44424">
        <ele>15</ele>
        <time>2019-02-03T08:16:00Z</time>
      </trkpt>
      <trkpt lat="47.15543" lon="-1.44427">
        <ele>13</ele>
        <time>2019-02-03T08:16:05Z</time>
      </trkpt>
      <trkpt lat="47.15538" lon="-1.44426">
        <ele>13</ele>
        <time>2019-02-03T08:16:06Z</time>
      </trkpt>
      <trkpt lat="47.15525" lon="-1.44425">
        <ele>12</ele>
        <time>2019-02-03T08:16:08Z</time>
      </trkpt>
      <trkpt lat="47.1552" lon="-1.44424">
        <ele>11</ele>
        <time>2019-02-03T08:16:09Z</time>
      </trkpt>
      <trkpt lat="47.15488" lon="-1.44421">
        <ele>10</ele>
        <time>2019-02-03T08:16:14Z</time>
      </trkpt>
      <trkpt lat="47.15479" lon="-1.44418">
        <ele>11</ele>
        <time>2019-02-03T08:16:16Z</time>
      </trkpt>
      <trkpt lat="47.15458" lon="-1.44409">
        <ele>10</ele>
        <time>2019-02-03T08:16:20Z</time>
      </trkpt>
      <trkpt lat="47.15453" lon="-1.44405">
        <ele>10</ele>
        <time>2019-02-03T08:16:21Z</time>
      </trkpt>
      <trkpt lat="47.15446" lon="-1.44402">
        <ele>10</ele>
        <time>2019-02-03T08:16:22Z</time>
      </trkpt>
      <trkpt lat="47.15434" lon="-1.44394">
        <ele>10</ele>
        <time>2019-02-03T08:16:24Z</time>
      </trkpt>
      <trkpt lat="47.15429" lon="-1.44388">
        <ele>9</ele>
        <time>2019-02-03T08:16:25Z</time>
      </trkpt>
      <trkpt lat="47.15399" lon="-1.44353">
        <ele>8</ele>
        <time>2019-02-03T08:16:31Z</time>
      </trkpt>
      <trkpt lat="47.15391" lon="-1.44337">
        <ele>7</ele>
        <time>2019-02-03T08:16:33Z</time>
      </trkpt>
      <trkpt lat="47.15381" lon="-1.44316">
        <ele>7</ele>
        <time>2019-02-03T08:16:36Z</time>
      </trkpt>
      <trkpt lat="47.15375" lon="-1.44303">
        <ele>8</ele>
        <time>2019-02-03T08:16:38Z</time>
      </trkpt>
      <trkpt lat="47.15373" lon="-1.44294">
        <ele>8</ele>
        <time>2019-02-03T08:16:39Z</time>
      </trkpt>
      <trkpt lat="47.15372" lon="-1.44285">
        <ele>9</ele>
        <time>2019-02-03T08:16:40Z</time>
      </trkpt>
      <trkpt lat="47.1537" lon="-1.44273">
        <ele>9</ele>
        <time>2019-02-03T08:16:41Z</time>
      </trkpt>
      <trkpt lat="47.15369" lon="-1.44267">
        <ele>9</ele>
        <time>2019-02-03T08:16:42Z</time>
      </trkpt>
      <trkpt lat="47.15369" lon="-1.44257">
        <ele>10</ele>
        <time>2019-02-03T08:16:43Z</time>
      </trkpt>
      <trkpt lat="47.15367" lon="-1.44248">
        <ele>10</ele>
        <time>2019-02-03T08:16:44Z</time>
      </trkpt>
      <trkpt lat="47.15367" lon="-1.44238">
        <ele>10</ele>
        <time>2019-02-03T08:16:45Z</time>
      </trkpt>
      <trkpt lat="47.15366" lon="-1.44231">
        <ele>11</ele>
        <time>2019-02-03T08:16:46Z</time>
      </trkpt>
      <trkpt lat="47.15365" lon="-1.44204">
        <ele>10</ele>
        <time>2019-02-03T08:16:49Z</time>
      </trkpt>
      <trkpt lat="47.15366" lon="-1.44197">
        <ele>11</ele>
        <time>2019-02-03T08:16:50Z</time>
      </trkpt>
      <trkpt lat="47.15366" lon="-1.44188">
        <ele>11</ele>
        <time>2019-02-03T08:16:51Z</time>
      </trkpt>
      <trkpt lat="47.15365" lon="-1.44164">
        <ele>12</ele>
        <time>2019-02-03T08:16:54Z</time>
      </trkpt>
      <trkpt lat="47.15366" lon="-1.44156">
        <ele>12</ele>
        <time>2019-02-03T08:16:55Z</time>
      </trkpt>
      <trkpt lat="47.15367" lon="-1.44134">
        <ele>10</ele>
        <time>2019-02-03T08:16:58Z</time>
      </trkpt>
      <trkpt lat="47.15369" lon="-1.44126">
        <ele>11</ele>
        <time>2019-02-03T08:16:59Z</time>
      </trkpt>
      <trkpt lat="47.15372" lon="-1.44099">
        <ele>9</ele>
        <time>2019-02-03T08:17:03Z</time>
      </trkpt>
      <trkpt lat="47.15373" lon="-1.44091">
        <ele>9</ele>
        <time>2019-02-03T08:17:04Z</time>
      </trkpt>
      <trkpt lat="47.15375" lon="-1.44071">
        <ele>8</ele>
        <time>2019-02-03T08:17:06Z</time>
      </trkpt>
      <trkpt lat="47.15375" lon="-1.44061">
        <ele>8</ele>
        <time>2019-02-03T08:17:07Z</time>
      </trkpt>
      <trkpt lat="47.15372" lon="-1.44051">
        <ele>7</ele>
        <time>2019-02-03T08:17:09Z</time>
      </trkpt>
      <trkpt lat="47.15368" lon="-1.44043">
        <ele>6</ele>
        <time>2019-02-03T08:17:10Z</time>
      </trkpt>
      <trkpt lat="47.15357" lon="-1.4402">
        <ele>3</ele>
        <time>2019-02-03T08:17:15Z</time>
      </trkpt>
      <trkpt lat="47.1535" lon="-1.44009">
        <ele>3</ele>
        <time>2019-02-03T08:17:17Z</time>
      </trkpt>
      <trkpt lat="47.15339" lon="-1.43988">
        <ele>3</ele>
        <time>2019-02-03T08:17:21Z</time>
      </trkpt>
      <trkpt lat="47.15282" lon="-1.43905">
        <ele>7</ele>
        <time>2019-02-03T08:17:35Z</time>
      </trkpt>
      <trkpt lat="47.15278" lon="-1.43895">
        <ele>7</ele>
        <time>2019-02-03T08:17:36Z</time>
      </trkpt>
      <trkpt lat="47.15272" lon="-1.43857">
        <ele>8</ele>
        <time>2019-02-03T08:17:41Z</time>
      </trkpt>
      <trkpt lat="47.15271" lon="-1.4385">
        <ele>8</ele>
        <time>2019-02-03T08:17:42Z</time>
      </trkpt>
      <trkpt lat="47.15268" lon="-1.43821">
        <ele>8</ele>
        <time>2019-02-03T08:17:46Z</time>
      </trkpt>
      <trkpt lat="47.15268" lon="-1.43809">
        <ele>8</ele>
        <time>2019-02-03T08:17:48Z</time>
      </trkpt>
      <trkpt lat="47.15271" lon="-1.43803">
        <ele>7</ele>
        <time>2019-02-03T08:17:52Z</time>
      </trkpt>
      <trkpt lat="47.15271" lon="-1.43816">
        <ele>6</ele>
        <time>2019-02-03T08:17:55Z</time>
      </trkpt>
      <trkpt lat="47.15272" lon="-1.43826">
        <ele>7</ele>
        <time>2019-02-03T08:17:57Z</time>
      </trkpt>
      <trkpt lat="47.15272" lon="-1.43835">
        <ele>7</ele>
        <time>2019-02-03T08:18:00Z</time>
      </trkpt>
      <trkpt lat="47.15278" lon="-1.43837">
        <ele>5</ele>
        <time>2019-02-03T08:18:04Z</time>
      </trkpt>
      <trkpt lat="47.15282" lon="-1.4383">
        <ele>5</ele>
        <time>2019-02-03T08:18:06Z</time>
      </trkpt>
      <trkpt lat="47.15284" lon="-1.43818">
        <ele>4</ele>
        <time>2019-02-03T08:18:08Z</time>
      </trkpt>
      <trkpt lat="47.15286" lon="-1.43805">
        <ele>5</ele>
        <time>2019-02-03T08:18:10Z</time>
      </trkpt>
      <trkpt lat="47.15289" lon="-1.43792">
        <ele>5</ele>
        <time>2019-02-03T08:18:12Z</time>
      </trkpt>
      <trkpt lat="47.15291" lon="-1.43734">
        <ele>6</ele>
        <time>2019-02-03T08:18:22Z</time>
      </trkpt>
      <trkpt lat="47.15295" lon="-1.43716">
        <ele>5</ele>
        <time>2019-02-03T08:18:25Z</time>
      </trkpt>
      <trkpt lat="47.15297" lon="-1.4371">
        <ele>5</ele>
        <time>2019-02-03T08:18:26Z</time>
      </trkpt>
      <trkpt lat="47.15299" lon="-1.43704">
        <ele>5</ele>
        <time>2019-02-03T08:18:27Z</time>
      </trkpt>
      <trkpt lat="47.15305" lon="-1.43667">
        <ele>3</ele>
        <time>2019-02-03T08:18:33Z</time>
      </trkpt>
      <trkpt lat="47.15306" lon="-1.43655">
        <ele>3</ele>
        <time>2019-02-03T08:18:35Z</time>
      </trkpt>
      <trkpt lat="47.15308" lon="-1.43642">
        <ele>3</ele>
        <time>2019-02-03T08:18:37Z</time>
      </trkpt>
      <trkpt lat="47.15308" lon="-1.43618">
        <ele>4</ele>
        <time>2019-02-03T08:18:41Z</time>
      </trkpt>
      <trkpt lat="47.15309" lon="-1.43608">
        <ele>4</ele>
        <time>2019-02-03T08:18:43Z</time>
      </trkpt>
      <trkpt lat="47.1531" lon="-1.43596">
        <ele>3</ele>
        <time>2019-02-03T08:18:45Z</time>
      </trkpt>
      <trkpt lat="47.15309" lon="-1.43584">
        <ele>3</ele>
        <time>2019-02-03T08:18:47Z</time>
      </trkpt>
      <trkpt lat="47.15309" lon="-1.43574">
        <ele>4</ele>
        <time>2019-02-03T08:18:49Z</time>
      </trkpt>
      <trkpt lat="47.15307" lon="-1.43562">
        <ele>3</ele>
        <time>2019-02-03T08:18:51Z</time>
      </trkpt>
      <trkpt lat="47.15306" lon="-1.4355">
        <ele>4</ele>
        <time>2019-02-03T08:18:53Z</time>
      </trkpt>
      <trkpt lat="47.15304" lon="-1.43542">
        <ele>4</ele>
        <time>2019-02-03T08:18:54Z</time>
      </trkpt>
      <trkpt lat="47.15303" lon="-1.43535">
        <ele>4</ele>
        <time>2019-02-03T08:18:55Z</time>
      </trkpt>
      <trkpt lat="47.15302" lon="-1.4352">
        <ele>4</ele>
        <time>2019-02-03T08:18:57Z</time>
      </trkpt>
      <trkpt lat="47.15302" lon="-1.43512">
        <ele>4</ele>
        <time>2019-02-03T08:18:58Z</time>
      </trkpt>
      <trkpt lat="47.15298" lon="-1.43501">
        <ele>5</ele>
        <time>2019-02-03T08:19:00Z</time>
      </trkpt>
      <trkpt lat="47.15297" lon="-1.43493">
        <ele>6</ele>
        <time>2019-02-03T08:19:01Z</time>
      </trkpt>
      <trkpt lat="47.15297" lon="-1.43486">
        <ele>5</ele>
        <time>2019-02-03T08:19:02Z</time>
      </trkpt>
      <trkpt lat="47.15293" lon="-1.43465">
        <ele>5</ele>
        <time>2019-02-03T08:19:06Z</time>
      </trkpt>
      <trkpt lat="47.15289" lon="-1.43445">
        <ele>6</ele>
        <time>2019-02-03T08:19:10Z</time>
      </trkpt>
      <trkpt lat="47.15283" lon="-1.43411">
        <ele>5</ele>
        <time>2019-02-03T08:19:15Z</time>
      </trkpt>
      <trkpt lat="47.1528" lon="-1.43404">
        <ele>5</ele>
        <time>2019-02-03T08:19:16Z</time>
      </trkpt>
      <trkpt lat="47.15281" lon="-1.43396">
        <ele>5</ele>
        <time>2019-02-03T08:19:17Z</time>
      </trkpt>
      <trkpt lat="47.1528" lon="-1.4334">
        <ele>5</ele>
        <time>2019-02-03T08:19:25Z</time>
      </trkpt>
      <trkpt lat="47.15283" lon="-1.43332">
        <ele>5</ele>
        <time>2019-02-03T08:19:26Z</time>
      </trkpt>
      <trkpt lat="47.15288" lon="-1.43314">
        <ele>5</ele>
        <time>2019-02-03T08:19:29Z</time>
      </trkpt>
      <trkpt lat="47.15292" lon="-1.43302">
        <ele>6</ele>
        <time>2019-02-03T08:19:31Z</time>
      </trkpt>
      <trkpt lat="47.15294" lon="-1.43295">
        <ele>6</ele>
        <time>2019-02-03T08:19:32Z</time>
      </trkpt>
      <trkpt lat="47.15296" lon="-1.43288">
        <ele>7</ele>
        <time>2019-02-03T08:19:33Z</time>
      </trkpt>
      <trkpt lat="47.153" lon="-1.43275">
        <ele>6</ele>
        <time>2019-02-03T08:19:35Z</time>
      </trkpt>
      <trkpt lat="47.15302" lon="-1.43267">
        <ele>7</ele>
        <time>2019-02-03T08:19:36Z</time>
      </trkpt>
      <trkpt lat="47.15305" lon="-1.43261">
        <ele>7</ele>
        <time>2019-02-03T08:19:37Z</time>
      </trkpt>
      <trkpt lat="47.15307" lon="-1.43255">
        <ele>7</ele>
        <time>2019-02-03T08:19:38Z</time>
      </trkpt>
      <trkpt lat="47.15307" lon="-1.43249">
        <ele>7</ele>
        <time>2019-02-03T08:19:39Z</time>
      </trkpt>
      <trkpt lat="47.15308" lon="-1.43242">
        <ele>7</ele>
        <time>2019-02-03T08:19:40Z</time>
      </trkpt>
      <trkpt lat="47.15308" lon="-1.43235">
        <ele>7</ele>
        <time>2019-02-03T08:19:41Z</time>
      </trkpt>
      <trkpt lat="47.15306" lon="-1.43222">
        <ele>7</ele>
        <time>2019-02-03T08:19:43Z</time>
      </trkpt>
      <trkpt lat="47.15302" lon="-1.43204">
        <ele>7</ele>
        <time>2019-02-03T08:19:46Z</time>
      </trkpt>
      <trkpt lat="47.15297" lon="-1.43192">
        <ele>7</ele>
        <time>2019-02-03T08:19:48Z</time>
      </trkpt>
      <trkpt lat="47.15295" lon="-1.43185">
        <ele>8</ele>
        <time>2019-02-03T08:19:50Z</time>
      </trkpt>
      <trkpt lat="47.15286" lon="-1.43161">
        <ele>8</ele>
        <time>2019-02-03T08:19:55Z</time>
      </trkpt>
      <trkpt lat="47.1528" lon="-1.43144">
        <ele>10</ele>
        <time>2019-02-03T08:19:59Z</time>
      </trkpt>
      <trkpt lat="47.15277" lon="-1.43135">
        <ele>9</ele>
        <time>2019-02-03T08:20:01Z</time>
      </trkpt>
      <trkpt lat="47.15261" lon="-1.43085">
        <ele>13</ele>
        <time>2019-02-03T08:20:14Z</time>
      </trkpt>
      <trkpt lat="47.15259" lon="-1.43076">
        <ele>13</ele>
        <time>2019-02-03T08:20:16Z</time>
      </trkpt>
      <trkpt lat="47.15255" lon="-1.43061">
        <ele>15</ele>
        <time>2019-02-03T08:20:20Z</time>
      </trkpt>
      <trkpt lat="47.1525" lon="-1.43052">
        <ele>18</ele>
        <time>2019-02-03T08:20:24Z</time>
      </trkpt>
      <trkpt lat="47.15243" lon="-1.43045">
        <ele>18</ele>
        <time>2019-02-03T08:20:29Z</time>
      </trkpt>
      <trkpt lat="47.15238" lon="-1.43046">
        <ele>19</ele>
        <time>2019-02-03T08:20:32Z</time>
      </trkpt>
      <trkpt lat="47.15234" lon="-1.43049">
        <ele>19</ele>
        <time>2019-02-03T08:20:34Z</time>
      </trkpt>
      <trkpt lat="47.15222" lon="-1.43061">
        <ele>21</ele>
        <time>2019-02-03T08:20:40Z</time>
      </trkpt>
      <trkpt lat="47.15205" lon="-1.43063">
        <ele>21</ele>
        <time>2019-02-03T08:20:46Z</time>
      </trkpt>
      <trkpt lat="47.15193" lon="-1.43064">
        <ele>23</ele>
        <time>2019-02-03T08:20:50Z</time>
      </trkpt>
      <trkpt lat="47.15187" lon="-1.43065">
        <ele>22</ele>
        <time>2019-02-03T08:20:52Z</time>
      </trkpt>
      <trkpt lat="47.15176" lon="-1.43067">
        <ele>24</ele>
        <time>2019-02-03T08:20:56Z</time>
      </trkpt>
      <trkpt lat="47.15158" lon="-1.4307">
        <ele>24</ele>
        <time>2019-02-03T08:21:02Z</time>
      </trkpt>
      <trkpt lat="47.1514" lon="-1.43073">
        <ele>26</ele>
        <time>2019-02-03T08:21:08Z</time>
      </trkpt>
      <trkpt lat="47.15134" lon="-1.43073">
        <ele>26</ele>
        <time>2019-02-03T08:21:10Z</time>
      </trkpt>
      <trkpt lat="47.15129" lon="-1.43074">
        <ele>26</ele>
        <time>2019-02-03T08:21:12Z</time>
      </trkpt>
      <trkpt lat="47.15123" lon="-1.43073">
        <ele>27</ele>
        <time>2019-02-03T08:21:14Z</time>
      </trkpt>
      <trkpt lat="47.15119" lon="-1.43068">
        <ele>27</ele>
        <time>2019-02-03T08:21:16Z</time>
      </trkpt>
      <trkpt lat="47.15104" lon="-1.43045">
        <ele>27</ele>
        <time>2019-02-03T08:21:22Z</time>
      </trkpt>
      <trkpt lat="47.15096" lon="-1.43024">
        <ele>27</ele>
        <time>2019-02-03T08:21:26Z</time>
      </trkpt>
      <trkpt lat="47.15089" lon="-1.4299">
        <ele>27</ele>
        <time>2019-02-03T08:21:31Z</time>
      </trkpt>
      <trkpt lat="47.15087" lon="-1.42984">
        <ele>27</ele>
        <time>2019-02-03T08:21:32Z</time>
      </trkpt>
      <trkpt lat="47.15084" lon="-1.42971">
        <ele>27</ele>
        <time>2019-02-03T08:21:34Z</time>
      </trkpt>
      <trkpt lat="47.15082" lon="-1.42957">
        <ele>28</ele>
        <time>2019-02-03T08:21:36Z</time>
      </trkpt>
      <trkpt lat="47.15078" lon="-1.42942">
        <ele>28</ele>
        <time>2019-02-03T08:21:38Z</time>
      </trkpt>
      <trkpt lat="47.15074" lon="-1.42936">
        <ele>28</ele>
        <time>2019-02-03T08:21:39Z</time>
      </trkpt>
      <trkpt lat="47.15069" lon="-1.42935">
        <ele>28</ele>
        <time>2019-02-03T08:21:40Z</time>
      </trkpt>
      <trkpt lat="47.15064" lon="-1.42933">
        <ele>28</ele>
        <time>2019-02-03T08:21:41Z</time>
      </trkpt>
      <trkpt lat="47.15004" lon="-1.42919">
        <ele>28</ele>
        <time>2019-02-03T08:21:53Z</time>
      </trkpt>
      <trkpt lat="47.14888" lon="-1.42955">
        <ele>24</ele>
        <time>2019-02-03T08:22:10Z</time>
      </trkpt>
      <trkpt lat="47.14874" lon="-1.42965">
        <ele>23</ele>
        <time>2019-02-03T08:22:12Z</time>
      </trkpt>
      <trkpt lat="47.14868" lon="-1.42966">
        <ele>23</ele>
        <time>2019-02-03T08:22:13Z</time>
      </trkpt>
      <trkpt lat="47.14862" lon="-1.42963">
        <ele>23</ele>
        <time>2019-02-03T08:22:14Z</time>
      </trkpt>
      <trkpt lat="47.14857" lon="-1.42959">
        <ele>23</ele>
        <time>2019-02-03T08:22:15Z</time>
      </trkpt>
      <trkpt lat="47.14849" lon="-1.4294">
        <ele>23</ele>
        <time>2019-02-03T08:22:18Z</time>
      </trkpt>
      <trkpt lat="47.14843" lon="-1.4293">
        <ele>24</ele>
        <time>2019-02-03T08:22:20Z</time>
      </trkpt>
      <trkpt lat="47.1484" lon="-1.42925">
        <ele>23</ele>
        <time>2019-02-03T08:22:21Z</time>
      </trkpt>
      <trkpt lat="47.14815" lon="-1.42875">
        <ele>24</ele>
        <time>2019-02-03T08:22:30Z</time>
      </trkpt>
      <trkpt lat="47.14813" lon="-1.42869">
        <ele>23</ele>
        <time>2019-02-03T08:22:31Z</time>
      </trkpt>
      <trkpt lat="47.14748" lon="-1.42731">
        <ele>29</ele>
        <time>2019-02-03T08:23:03Z</time>
      </trkpt>
      <trkpt lat="47.14691" lon="-1.42598">
        <ele>33</ele>
        <time>2019-02-03T08:23:33Z</time>
      </trkpt>
      <trkpt lat="47.14685" lon="-1.42587">
        <ele>34</ele>
        <time>2019-02-03T08:23:35Z</time>
      </trkpt>
      <trkpt lat="47.14579" lon="-1.42363">
        <ele>28</ele>
        <time>2019-02-03T08:24:05Z</time>
      </trkpt>
      <trkpt lat="47.14567" lon="-1.42334">
        <ele>27</ele>
        <time>2019-02-03T08:24:08Z</time>
      </trkpt>
      <trkpt lat="47.14561" lon="-1.42321">
        <ele>26</ele>
        <time>2019-02-03T08:24:09Z</time>
      </trkpt>
      <trkpt lat="47.14553" lon="-1.42302">
        <ele>26</ele>
        <time>2019-02-03T08:24:12Z</time>
      </trkpt>
      <trkpt lat="47.14545" lon="-1.42303">
        <ele>26</ele>
        <time>2019-02-03T08:24:14Z</time>
      </trkpt>
      <trkpt lat="47.14521" lon="-1.42338">
        <ele>26</ele>
        <time>2019-02-03T08:24:20Z</time>
      </trkpt>
      <trkpt lat="47.14412" lon="-1.42409">
        <ele>18</ele>
        <time>2019-02-03T08:24:32Z</time>
      </trkpt>
      <trkpt lat="47.14405" lon="-1.42412">
        <ele>17</ele>
        <time>2019-02-03T08:24:33Z</time>
      </trkpt>
      <trkpt lat="47.14399" lon="-1.42412">
        <ele>17</ele>
        <time>2019-02-03T08:24:34Z</time>
      </trkpt>
      <trkpt lat="47.14395" lon="-1.4241">
        <ele>16</ele>
        <time>2019-02-03T08:24:35Z</time>
      </trkpt>
      <trkpt lat="47.14391" lon="-1.42404">
        <ele>16</ele>
        <time>2019-02-03T08:24:36Z</time>
      </trkpt>
      <trkpt lat="47.14387" lon="-1.42398">
        <ele>16</ele>
        <time>2019-02-03T08:24:37Z</time>
      </trkpt>
      <trkpt lat="47.14376" lon="-1.42369">
        <ele>14</ele>
        <time>2019-02-03T08:24:41Z</time>
      </trkpt>
      <trkpt lat="47.14367" lon="-1.4235">
        <ele>14</ele>
        <time>2019-02-03T08:24:43Z</time>
      </trkpt>
      <trkpt lat="47.14363" lon="-1.42344">
        <ele>14</ele>
        <time>2019-02-03T08:24:44Z</time>
      </trkpt>
      <trkpt lat="47.14356" lon="-1.42331">
        <ele>14</ele>
        <time>2019-02-03T08:24:46Z</time>
      </trkpt>
      <trkpt lat="47.14353" lon="-1.42326">
        <ele>12</ele>
        <time>2019-02-03T08:24:47Z</time>
      </trkpt>
      <trkpt lat="47.14346" lon="-1.42313">
        <ele>11</ele>
        <time>2019-02-03T08:24:49Z</time>
      </trkpt>
      <trkpt lat="47.14339" lon="-1.42295">
        <ele>11</ele>
        <time>2019-02-03T08:24:51Z</time>
      </trkpt>
      <trkpt lat="47.14325" lon="-1.42271">
        <ele>9</ele>
        <time>2019-02-03T08:24:54Z</time>
      </trkpt>
      <trkpt lat="47.14318" lon="-1.42258">
        <ele>9</ele>
        <time>2019-02-03T08:24:56Z</time>
      </trkpt>
      <trkpt lat="47.14314" lon="-1.42252">
        <ele>8</ele>
        <time>2019-02-03T08:24:57Z</time>
      </trkpt>
      <trkpt lat="47.14306" lon="-1.42239">
        <ele>8</ele>
        <time>2019-02-03T08:24:59Z</time>
      </trkpt>
      <trkpt lat="47.14303" lon="-1.42228">
        <ele>7</ele>
        <time>2019-02-03T08:25:00Z</time>
      </trkpt>
      <trkpt lat="47.14291" lon="-1.42209">
        <ele>7</ele>
        <time>2019-02-03T08:25:03Z</time>
      </trkpt>
      <trkpt lat="47.14288" lon="-1.42204">
        <ele>7</ele>
        <time>2019-02-03T08:25:04Z</time>
      </trkpt>
      <trkpt lat="47.14284" lon="-1.42198">
        <ele>7</ele>
        <time>2019-02-03T08:25:05Z</time>
      </trkpt>
      <trkpt lat="47.14271" lon="-1.42174">
        <ele>6</ele>
        <time>2019-02-03T08:25:09Z</time>
      </trkpt>
      <trkpt lat="47.14265" lon="-1.42147">
        <ele>8</ele>
        <time>2019-02-03T08:25:13Z</time>
      </trkpt>
      <trkpt lat="47.14266" lon="-1.4213">
        <ele>8</ele>
        <time>2019-02-03T08:25:18Z</time>
      </trkpt>
      <trkpt lat="47.14266" lon="-1.42122">
        <ele>8</ele>
        <time>2019-02-03T08:25:20Z</time>
      </trkpt>
      <trkpt lat="47.14264" lon="-1.42104">
        <ele>10</ele>
        <time>2019-02-03T08:25:24Z</time>
      </trkpt>
      <trkpt lat="47.14259" lon="-1.42096">
        <ele>11</ele>
        <time>2019-02-03T08:25:26Z</time>
      </trkpt>
      <trkpt lat="47.1425" lon="-1.42081">
        <ele>12</ele>
        <time>2019-02-03T08:25:30Z</time>
      </trkpt>
      <trkpt lat="47.14241" lon="-1.42065">
        <ele>12</ele>
        <time>2019-02-03T08:25:34Z</time>
      </trkpt>
      <trkpt lat="47.14237" lon="-1.42056">
        <ele>12</ele>
        <time>2019-02-03T08:25:36Z</time>
      </trkpt>
      <trkpt lat="47.14229" lon="-1.42038">
        <ele>12</ele>
        <time>2019-02-03T08:25:40Z</time>
      </trkpt>
      <trkpt lat="47.1422" lon="-1.42018">
        <ele>13</ele>
        <time>2019-02-03T08:25:44Z</time>
      </trkpt>
      <trkpt lat="47.14211" lon="-1.41998">
        <ele>13</ele>
        <time>2019-02-03T08:25:48Z</time>
      </trkpt>
      <trkpt lat="47.14196" lon="-1.4197">
        <ele>11</ele>
        <time>2019-02-03T08:25:54Z</time>
      </trkpt>
      <trkpt lat="47.14179" lon="-1.41934">
        <ele>14</ele>
        <time>2019-02-03T08:26:02Z</time>
      </trkpt>
      <trkpt lat="47.14176" lon="-1.41927">
        <ele>14</ele>
        <time>2019-02-03T08:26:04Z</time>
      </trkpt>
      <trkpt lat="47.14167" lon="-1.41908">
        <ele>17</ele>
        <time>2019-02-03T08:26:10Z</time>
      </trkpt>
      <trkpt lat="47.14164" lon="-1.41894">
        <ele>18</ele>
        <time>2019-02-03T08:26:14Z</time>
      </trkpt>
      <trkpt lat="47.14161" lon="-1.41887">
        <ele>18</ele>
        <time>2019-02-03T08:26:16Z</time>
      </trkpt>
      <trkpt lat="47.1415" lon="-1.41848">
        <ele>23</ele>
        <time>2019-02-03T08:26:29Z</time>
      </trkpt>
      <trkpt lat="47.14149" lon="-1.41837">
        <ele>23</ele>
        <time>2019-02-03T08:26:30Z</time>
      </trkpt>
      <trkpt lat="47.14147" lon="-1.41819">
        <ele>26</ele>
        <time>2019-02-03T08:26:40Z</time>
      </trkpt>
      <trkpt lat="47.14143" lon="-1.41806">
        <ele>26</ele>
        <time>2019-02-03T08:26:44Z</time>
      </trkpt>
      <trkpt lat="47.1413" lon="-1.41769">
        <ele>29</ele>
        <time>2019-02-03T08:26:59Z</time>
      </trkpt>
      <trkpt lat="47.14134" lon="-1.41758">
        <ele>31</ele>
        <time>2019-02-03T08:27:03Z</time>
      </trkpt>
      <trkpt lat="47.14178" lon="-1.41721">
        <ele>40</ele>
        <time>2019-02-03T08:27:28Z</time>
      </trkpt>
      <trkpt lat="47.14183" lon="-1.41716">
        <ele>40</ele>
        <time>2019-02-03T08:27:31Z</time>
      </trkpt>
      <trkpt lat="47.14192" lon="-1.41708">
        <ele>42</ele>
        <time>2019-02-03T08:27:36Z</time>
      </trkpt>
      <trkpt lat="47.14196" lon="-1.41694">
        <ele>43</ele>
        <time>2019-02-03T08:27:39Z</time>
      </trkpt>
      <trkpt lat="47.14197" lon="-1.41683">
        <ele>43</ele>
        <time>2019-02-03T08:27:45Z</time>
      </trkpt>
      <trkpt lat="47.14199" lon="-1.41673">
        <ele>43</ele>
        <time>2019-02-03T08:27:47Z</time>
      </trkpt>
      <trkpt lat="47.14202" lon="-1.41667">
        <ele>43</ele>
        <time>2019-02-03T08:27:49Z</time>
      </trkpt>
      <trkpt lat="47.14211" lon="-1.41659">
        <ele>43</ele>
        <time>2019-02-03T08:27:55Z</time>
      </trkpt>
      <trkpt lat="47.1422" lon="-1.41653">
        <ele>44</ele>
        <time>2019-02-03T08:27:59Z</time>
      </trkpt>
      <trkpt lat="47.14225" lon="-1.4165">
        <ele>44</ele>
        <time>2019-02-03T08:28:01Z</time>
      </trkpt>
      <trkpt lat="47.14229" lon="-1.41645">
        <ele>44</ele>
        <time>2019-02-03T08:28:03Z</time>
      </trkpt>
      <trkpt lat="47.14232" lon="-1.41634">
        <ele>46</ele>
        <time>2019-02-03T08:28:07Z</time>
      </trkpt>
      <trkpt lat="47.14228" lon="-1.41627">
        <ele>46</ele>
        <time>2019-02-03T08:28:09Z</time>
      </trkpt>
      <trkpt lat="47.14219" lon="-1.41611">
        <ele>47</ele>
        <time>2019-02-03T08:28:13Z</time>
      </trkpt>
      <trkpt lat="47.14215" lon="-1.41602">
        <ele>45</ele>
        <time>2019-02-03T08:28:15Z</time>
      </trkpt>
      <trkpt lat="47.14211" lon="-1.41594">
        <ele>46</ele>
        <time>2019-02-03T08:28:17Z</time>
      </trkpt>
      <trkpt lat="47.14209" lon="-1.41586">
        <ele>47</ele>
        <time>2019-02-03T08:28:19Z</time>
      </trkpt>
      <trkpt lat="47.14202" lon="-1.4157">
        <ele>46</ele>
        <time>2019-02-03T08:28:23Z</time>
      </trkpt>
      <trkpt lat="47.14149" lon="-1.41447">
        <ele>36</ele>
        <time>2019-02-03T08:28:42Z</time>
      </trkpt>
      <trkpt lat="47.1415" lon="-1.41438">
        <ele>36</ele>
        <time>2019-02-03T08:28:44Z</time>
      </trkpt>
      <trkpt lat="47.14158" lon="-1.41429">
        <ele>36</ele>
        <time>2019-02-03T08:28:45Z</time>
      </trkpt>
      <trkpt lat="47.14162" lon="-1.41427">
        <ele>36</ele>
        <time>2019-02-03T08:28:46Z</time>
      </trkpt>
      <trkpt lat="47.14166" lon="-1.41424">
        <ele>37</ele>
        <time>2019-02-03T08:28:47Z</time>
      </trkpt>
      <trkpt lat="47.14174" lon="-1.41418">
        <ele>36</ele>
        <time>2019-02-03T08:28:49Z</time>
      </trkpt>
      <trkpt lat="47.14182" lon="-1.41414">
        <ele>36</ele>
        <time>2019-02-03T08:28:51Z</time>
      </trkpt>
      <trkpt lat="47.14185" lon="-1.41411">
        <ele>36</ele>
        <time>2019-02-03T08:28:52Z</time>
      </trkpt>
      <trkpt lat="47.14192" lon="-1.41403">
        <ele>36</ele>
        <time>2019-02-03T08:28:54Z</time>
      </trkpt>
      <trkpt lat="47.14202" lon="-1.41387">
        <ele>37</ele>
        <time>2019-02-03T08:28:58Z</time>
      </trkpt>
      <trkpt lat="47.14207" lon="-1.41378">
        <ele>37</ele>
        <time>2019-02-03T08:29:00Z</time>
      </trkpt>
      <trkpt lat="47.14214" lon="-1.41374">
        <ele>37</ele>
        <time>2019-02-03T08:29:02Z</time>
      </trkpt>
      <trkpt lat="47.1422" lon="-1.41381">
        <ele>38</ele>
        <time>2019-02-03T08:29:04Z</time>
      </trkpt>
      <trkpt lat="47.14223" lon="-1.41391">
        <ele>38</ele>
        <time>2019-02-03T08:29:06Z</time>
      </trkpt>
      <trkpt lat="47.14224" lon="-1.41402">
        <ele>38</ele>
        <time>2019-02-03T08:29:08Z</time>
      </trkpt>
      <trkpt lat="47.14227" lon="-1.4141">
        <ele>39</ele>
        <time>2019-02-03T08:29:10Z</time>
      </trkpt>
      <trkpt lat="47.14232" lon="-1.41411">
        <ele>39</ele>
        <time>2019-02-03T08:29:12Z</time>
      </trkpt>
      <trkpt lat="47.14237" lon="-1.41407">
        <ele>39</ele>
        <time>2019-02-03T08:29:14Z</time>
      </trkpt>
      <trkpt lat="47.1425" lon="-1.41395">
        <ele>41</ele>
        <time>2019-02-03T08:29:18Z</time>
      </trkpt>
      <trkpt lat="47.14265" lon="-1.41384">
        <ele>41</ele>
        <time>2019-02-03T08:29:22Z</time>
      </trkpt>
      <trkpt lat="47.14272" lon="-1.41378">
        <ele>41</ele>
        <time>2019-02-03T08:29:24Z</time>
      </trkpt>
      <trkpt lat="47.14285" lon="-1.41367">
        <ele>41</ele>
        <time>2019-02-03T08:29:28Z</time>
      </trkpt>
      <trkpt lat="47.14291" lon="-1.41361">
        <ele>41</ele>
        <time>2019-02-03T08:29:30Z</time>
      </trkpt>
      <trkpt lat="47.1431" lon="-1.41343">
        <ele>42</ele>
        <time>2019-02-03T08:29:36Z</time>
      </trkpt>
      <trkpt lat="47.14316" lon="-1.41335">
        <ele>42</ele>
        <time>2019-02-03T08:29:38Z</time>
      </trkpt>
      <trkpt lat="47.14328" lon="-1.41321">
        <ele>43</ele>
        <time>2019-02-03T08:29:42Z</time>
      </trkpt>
      <trkpt lat="47.1435" lon="-1.41304">
        <ele>42</ele>
        <time>2019-02-03T08:29:48Z</time>
      </trkpt>
      <trkpt lat="47.14388" lon="-1.41275">
        <ele>44</ele>
        <time>2019-02-03T08:30:00Z</time>
      </trkpt>
      <trkpt lat="47.14397" lon="-1.41265">
        <ele>44</ele>
        <time>2019-02-03T08:30:04Z</time>
      </trkpt>
      <trkpt lat="47.14432" lon="-1.41242">
        <ele>44</ele>
        <time>2019-02-03T08:30:14Z</time>
      </trkpt>
      <trkpt lat="47.14479" lon="-1.41205">
        <ele>45</ele>
        <time>2019-02-03T08:30:25Z</time>
      </trkpt>
      <trkpt lat="47.14494" lon="-1.41198">
        <ele>45</ele>
        <time>2019-02-03T08:30:28Z</time>
      </trkpt>
      <trkpt lat="47.14505" lon="-1.41197">
        <ele>45</ele>
        <time>2019-02-03T08:30:30Z</time>
      </trkpt>
      <trkpt lat="47.14512" lon="-1.41198">
        <ele>45</ele>
        <time>2019-02-03T08:30:31Z</time>
      </trkpt>
      <trkpt lat="47.14538" lon="-1.41208">
        <ele>44</ele>
        <time>2019-02-03T08:30:35Z</time>
      </trkpt>
      <trkpt lat="47.14763" lon="-1.41235">
        <ele>28</ele>
        <time>2019-02-03T08:31:00Z</time>
      </trkpt>
      <trkpt lat="47.14768" lon="-1.41229">
        <ele>26</ele>
        <time>2019-02-03T08:31:06Z</time>
      </trkpt>
      <trkpt lat="47.14766" lon="-1.4122">
        <ele>26</ele>
        <time>2019-02-03T08:31:08Z</time>
      </trkpt>
      <trkpt lat="47.14769" lon="-1.41211">
        <ele>26</ele>
        <time>2019-02-03T08:31:10Z</time>
      </trkpt>
      <trkpt lat="47.14773" lon="-1.41204">
        <ele>25</ele>
        <time>2019-02-03T08:31:12Z</time>
      </trkpt>
      <trkpt lat="47.14777" lon="-1.41198">
        <ele>26</ele>
        <time>2019-02-03T08:31:14Z</time>
      </trkpt>
      <trkpt lat="47.14788" lon="-1.41187">
        <ele>25</ele>
        <time>2019-02-03T08:31:18Z</time>
      </trkpt>
      <trkpt lat="47.14793" lon="-1.41179">
        <ele>25</ele>
        <time>2019-02-03T08:31:20Z</time>
      </trkpt>
      <trkpt lat="47.14792" lon="-1.41169">
        <ele>25</ele>
        <time>2019-02-03T08:31:22Z</time>
      </trkpt>
      <trkpt lat="47.14758" lon="-1.41039">
        <ele>31</ele>
        <time>2019-02-03T08:31:53Z</time>
      </trkpt>
      <trkpt lat="47.14748" lon="-1.41008">
        <ele>33</ele>
        <time>2019-02-03T08:32:04Z</time>
      </trkpt>
      <trkpt lat="47.14743" lon="-1.40981">
        <ele>37</ele>
        <time>2019-02-03T08:32:13Z</time>
      </trkpt>
      <trkpt lat="47.14731" lon="-1.40931">
        <ele>41</ele>
        <time>2019-02-03T08:32:31Z</time>
      </trkpt>
      <trkpt lat="47.14729" lon="-1.40924">
        <ele>41</ele>
        <time>2019-02-03T08:32:33Z</time>
      </trkpt>
      <trkpt lat="47.14728" lon="-1.40918">
        <ele>41</ele>
        <time>2019-02-03T08:32:35Z</time>
      </trkpt>
      <trkpt lat="47.14726" lon="-1.40911">
        <ele>42</ele>
        <time>2019-02-03T08:32:37Z</time>
      </trkpt>
      <trkpt lat="47.14725" lon="-1.40902">
        <ele>42</ele>
        <time>2019-02-03T08:32:40Z</time>
      </trkpt>
      <trkpt lat="47.14728" lon="-1.40894">
        <ele>43</ele>
        <time>2019-02-03T08:32:43Z</time>
      </trkpt>
      <trkpt lat="47.14739" lon="-1.40887">
        <ele>44</ele>
        <time>2019-02-03T08:32:45Z</time>
      </trkpt>
      <trkpt lat="47.1478" lon="-1.40862">
        <ele>45</ele>
        <time>2019-02-03T08:33:01Z</time>
      </trkpt>
      <trkpt lat="47.14787" lon="-1.40858">
        <ele>46</ele>
        <time>2019-02-03T08:33:03Z</time>
      </trkpt>
      <trkpt lat="47.14795" lon="-1.40853">
        <ele>46</ele>
        <time>2019-02-03T08:33:05Z</time>
      </trkpt>
      <trkpt lat="47.14803" lon="-1.40849">
        <ele>45</ele>
        <time>2019-02-03T08:33:07Z</time>
      </trkpt>
      <trkpt lat="47.14807" lon="-1.40831">
        <ele>45</ele>
        <time>2019-02-03T08:33:12Z</time>
      </trkpt>
      <trkpt lat="47.148" lon="-1.40825">
        <ele>45</ele>
        <time>2019-02-03T08:33:14Z</time>
      </trkpt>
      <trkpt lat="47.14782" lon="-1.40801">
        <ele>45</ele>
        <time>2019-02-03T08:33:20Z</time>
      </trkpt>
      <trkpt lat="47.14776" lon="-1.40792">
        <ele>46</ele>
        <time>2019-02-03T08:33:22Z</time>
      </trkpt>
      <trkpt lat="47.14771" lon="-1.40782">
        <ele>46</ele>
        <time>2019-02-03T08:33:24Z</time>
      </trkpt>
      <trkpt lat="47.14743" lon="-1.40736">
        <ele>47</ele>
        <time>2019-02-03T08:33:36Z</time>
      </trkpt>
      <trkpt lat="47.14733" lon="-1.40707">
        <ele>45</ele>
        <time>2019-02-03T08:33:42Z</time>
      </trkpt>
      <trkpt lat="47.14725" lon="-1.40673">
        <ele>46</ele>
        <time>2019-02-03T08:33:48Z</time>
      </trkpt>
      <trkpt lat="47.14723" lon="-1.40661">
        <ele>46</ele>
        <time>2019-02-03T08:33:50Z</time>
      </trkpt>
      <trkpt lat="47.14719" lon="-1.40649">
        <ele>46</ele>
        <time>2019-02-03T08:33:52Z</time>
      </trkpt>
      <trkpt lat="47.14712" lon="-1.40603">
        <ele>45</ele>
        <time>2019-02-03T08:33:58Z</time>
      </trkpt>
      <trkpt lat="47.1471" lon="-1.40587">
        <ele>44</ele>
        <time>2019-02-03T08:34:00Z</time>
      </trkpt>
      <trkpt lat="47.14708" lon="-1.40579">
        <ele>44</ele>
        <time>2019-02-03T08:34:01Z</time>
      </trkpt>
      <trkpt lat="47.14702" lon="-1.40555">
        <ele>44</ele>
        <time>2019-02-03T08:34:04Z</time>
      </trkpt>
      <trkpt lat="47.147" lon="-1.40539">
        <ele>43</ele>
        <time>2019-02-03T08:34:06Z</time>
      </trkpt>
      <trkpt lat="47.14698" lon="-1.40519">
        <ele>43</ele>
        <time>2019-02-03T08:34:08Z</time>
      </trkpt>
      <trkpt lat="47.14698" lon="-1.40485">
        <ele>41</ele>
        <time>2019-02-03T08:34:11Z</time>
      </trkpt>
      <trkpt lat="47.14697" lon="-1.40464">
        <ele>40</ele>
        <time>2019-02-03T08:34:13Z</time>
      </trkpt>
      <trkpt lat="47.14697" lon="-1.40441">
        <ele>40</ele>
        <time>2019-02-03T08:34:15Z</time>
      </trkpt>
      <trkpt lat="47.14696" lon="-1.4043">
        <ele>39</ele>
        <time>2019-02-03T08:34:16Z</time>
      </trkpt>
      <trkpt lat="47.14695" lon="-1.4042">
        <ele>39</ele>
        <time>2019-02-03T08:34:17Z</time>
      </trkpt>
      <trkpt lat="47.14696" lon="-1.40409">
        <ele>38</ele>
        <time>2019-02-03T08:34:18Z</time>
      </trkpt>
      <trkpt lat="47.14698" lon="-1.40399">
        <ele>38</ele>
        <time>2019-02-03T08:34:19Z</time>
      </trkpt>
      <trkpt lat="47.14702" lon="-1.40376">
        <ele>36</ele>
        <time>2019-02-03T08:34:21Z</time>
      </trkpt>
      <trkpt lat="47.14705" lon="-1.40365">
        <ele>36</ele>
        <time>2019-02-03T08:34:22Z</time>
      </trkpt>
      <trkpt lat="47.14714" lon="-1.40335">
        <ele>33</ele>
        <time>2019-02-03T08:34:25Z</time>
      </trkpt>
      <trkpt lat="47.14718" lon="-1.40317">
        <ele>33</ele>
        <time>2019-02-03T08:34:27Z</time>
      </trkpt>
      <trkpt lat="47.14726" lon="-1.40265">
        <ele>31</ele>
        <time>2019-02-03T08:34:32Z</time>
      </trkpt>
      <trkpt lat="47.14723" lon="-1.40245">
        <ele>30</ele>
        <time>2019-02-03T08:34:34Z</time>
      </trkpt>
      <trkpt lat="47.14725" lon="-1.40197">
        <ele>23</ele>
        <time>2019-02-03T08:34:42Z</time>
      </trkpt>
      <trkpt lat="47.14728" lon="-1.4019">
        <ele>23</ele>
        <time>2019-02-03T08:34:45Z</time>
      </trkpt>
      <trkpt lat="47.1473" lon="-1.40183">
        <ele>22</ele>
        <time>2019-02-03T08:34:47Z</time>
      </trkpt>
      <trkpt lat="47.14735" lon="-1.40176">
        <ele>22</ele>
        <time>2019-02-03T08:34:49Z</time>
      </trkpt>
      <trkpt lat="47.14739" lon="-1.40169">
        <ele>22</ele>
        <time>2019-02-03T08:34:51Z</time>
      </trkpt>
      <trkpt lat="47.1474" lon="-1.40161">
        <ele>21</ele>
        <time>2019-02-03T08:34:53Z</time>
      </trkpt>
      <trkpt lat="47.14746" lon="-1.40154">
        <ele>20</ele>
        <time>2019-02-03T08:34:55Z</time>
      </trkpt>
      <trkpt lat="47.14761" lon="-1.40156">
        <ele>19</ele>
        <time>2019-02-03T08:34:58Z</time>
      </trkpt>
      <trkpt lat="47.1478" lon="-1.40164">
        <ele>16</ele>
        <time>2019-02-03T08:35:01Z</time>
      </trkpt>
      <trkpt lat="47.14784" lon="-1.40167">
        <ele>16</ele>
        <time>2019-02-03T08:35:02Z</time>
      </trkpt>
      <trkpt lat="47.14789" lon="-1.40175">
        <ele>14</ele>
        <time>2019-02-03T08:35:04Z</time>
      </trkpt>
      <trkpt lat="47.14796" lon="-1.40168">
        <ele>14</ele>
        <time>2019-02-03T08:35:08Z</time>
      </trkpt>
      <trkpt lat="47.14788" lon="-1.40154">
        <ele>12</ele>
        <time>2019-02-03T08:35:14Z</time>
      </trkpt>
      <trkpt lat="47.14785" lon="-1.40146">
        <ele>12</ele>
        <time>2019-02-03T08:35:16Z</time>
      </trkpt>
      <trkpt lat="47.14786" lon="-1.40135">
        <ele>12</ele>
        <time>2019-02-03T08:35:18Z</time>
      </trkpt>
      <trkpt lat="47.1479" lon="-1.40126">
        <ele>13</ele>
        <time>2019-02-03T08:35:20Z</time>
      </trkpt>
      <trkpt lat="47.14795" lon="-1.40116">
        <ele>13</ele>
        <time>2019-02-03T08:35:22Z</time>
      </trkpt>
      <trkpt lat="47.148" lon="-1.40105">
        <ele>12</ele>
        <time>2019-02-03T08:35:24Z</time>
      </trkpt>
      <trkpt lat="47.14807" lon="-1.40098">
        <ele>12</ele>
        <time>2019-02-03T08:35:26Z</time>
      </trkpt>
      <trkpt lat="47.14818" lon="-1.40096">
        <ele>11</ele>
        <time>2019-02-03T08:35:28Z</time>
      </trkpt>
      <trkpt lat="47.14821" lon="-1.40092">
        <ele>10</ele>
        <time>2019-02-03T08:35:29Z</time>
      </trkpt>
      <trkpt lat="47.14827" lon="-1.40089">
        <ele>10</ele>
        <time>2019-02-03T08:35:30Z</time>
      </trkpt>
      <trkpt lat="47.14832" lon="-1.40087">
        <ele>10</ele>
        <time>2019-02-03T08:35:31Z</time>
      </trkpt>
      <trkpt lat="47.14837" lon="-1.40086">
        <ele>10</ele>
        <time>2019-02-03T08:35:32Z</time>
      </trkpt>
      <trkpt lat="47.14841" lon="-1.40083">
        <ele>10</ele>
        <time>2019-02-03T08:35:33Z</time>
      </trkpt>
      <trkpt lat="47.14842" lon="-1.40075">
        <ele>10</ele>
        <time>2019-02-03T08:35:35Z</time>
      </trkpt>
      <trkpt lat="47.14841" lon="-1.40065">
        <ele>10</ele>
        <time>2019-02-03T08:35:37Z</time>
      </trkpt>
      <trkpt lat="47.14838" lon="-1.39998">
        <ele>10</ele>
        <time>2019-02-03T08:35:49Z</time>
      </trkpt>
      <trkpt lat="47.14833" lon="-1.39981">
        <ele>10</ele>
        <time>2019-02-03T08:35:55Z</time>
      </trkpt>
      <trkpt lat="47.14832" lon="-1.39974">
        <ele>10</ele>
        <time>2019-02-03T08:35:57Z</time>
      </trkpt>
      <trkpt lat="47.14827" lon="-1.39943">
        <ele>11</ele>
        <time>2019-02-03T08:36:03Z</time>
      </trkpt>
      <trkpt lat="47.14823" lon="-1.39935">
        <ele>11</ele>
        <time>2019-02-03T08:36:05Z</time>
      </trkpt>
      <trkpt lat="47.14818" lon="-1.39932">
        <ele>12</ele>
        <time>2019-02-03T08:36:07Z</time>
      </trkpt>
      <trkpt lat="47.14811" lon="-1.3994">
        <ele>12</ele>
        <time>2019-02-03T08:36:09Z</time>
      </trkpt>
      <trkpt lat="47.14807" lon="-1.39944">
        <ele>14</ele>
        <time>2019-02-03T08:36:11Z</time>
      </trkpt>
      <trkpt lat="47.14797" lon="-1.39965">
        <ele>14</ele>
        <time>2019-02-03T08:36:18Z</time>
      </trkpt>
      <trkpt lat="47.14794" lon="-1.39971">
        <ele>14</ele>
        <time>2019-02-03T08:36:20Z</time>
      </trkpt>
      <trkpt lat="47.1478" lon="-1.39983">
        <ele>16</ele>
        <time>2019-02-03T08:36:26Z</time>
      </trkpt>
      <trkpt lat="47.14723" lon="-1.40006">
        <ele>23</ele>
        <time>2019-02-03T08:36:56Z</time>
      </trkpt>
      <trkpt lat="47.1471" lon="-1.40008">
        <ele>25</ele>
        <time>2019-02-03T08:37:03Z</time>
      </trkpt>
      <trkpt lat="47.14706" lon="-1.4001">
        <ele>27</ele>
        <time>2019-02-03T08:37:06Z</time>
      </trkpt>
      <trkpt lat="47.14684" lon="-1.40024">
        <ele>28</ele>
        <time>2019-02-03T08:37:19Z</time>
      </trkpt>
      <trkpt lat="47.14678" lon="-1.40029">
        <ele>28</ele>
        <time>2019-02-03T08:37:22Z</time>
      </trkpt>
      <trkpt lat="47.14673" lon="-1.40033">
        <ele>28</ele>
        <time>2019-02-03T08:37:25Z</time>
      </trkpt>
      <trkpt lat="47.14667" lon="-1.40037">
        <ele>28</ele>
        <time>2019-02-03T08:37:28Z</time>
      </trkpt>
      <trkpt lat="47.14597" lon="-1.40083">
        <ele>33</ele>
        <time>2019-02-03T08:37:59Z</time>
      </trkpt>
      <trkpt lat="47.1451" lon="-1.40147">
        <ele>34</ele>
        <time>2019-02-03T08:38:29Z</time>
      </trkpt>
      <trkpt lat="47.14489" lon="-1.4015">
        <ele>34</ele>
        <time>2019-02-03T08:38:35Z</time>
      </trkpt>
      <trkpt lat="47.14384" lon="-1.40137">
        <ele>37</ele>
        <time>2019-02-03T08:39:05Z</time>
      </trkpt>
      <trkpt lat="47.14339" lon="-1.40141">
        <ele>37</ele>
        <time>2019-02-03T08:39:17Z</time>
      </trkpt>
      <trkpt lat="47.14332" lon="-1.40144">
        <ele>37</ele>
        <time>2019-02-03T08:39:19Z</time>
      </trkpt>
      <trkpt lat="47.14306" lon="-1.40159">
        <ele>37</ele>
        <time>2019-02-03T08:39:27Z</time>
      </trkpt>
      <trkpt lat="47.14299" lon="-1.40164">
        <ele>38</ele>
        <time>2019-02-03T08:39:29Z</time>
      </trkpt>
      <trkpt lat="47.14265" lon="-1.40188">
        <ele>38</ele>
        <time>2019-02-03T08:39:39Z</time>
      </trkpt>
      <trkpt lat="47.14256" lon="-1.40203">
        <ele>39</ele>
        <time>2019-02-03T08:39:43Z</time>
      </trkpt>
      <trkpt lat="47.14253" lon="-1.40213">
        <ele>39</ele>
        <time>2019-02-03T08:39:45Z</time>
      </trkpt>
      <trkpt lat="47.14251" lon="-1.40265">
        <ele>39</ele>
        <time>2019-02-03T08:39:55Z</time>
      </trkpt>
      <trkpt lat="47.14254" lon="-1.40288">
        <ele>40</ele>
        <time>2019-02-03T08:39:59Z</time>
      </trkpt>
      <trkpt lat="47.14268" lon="-1.40333">
        <ele>39</ele>
        <time>2019-02-03T08:40:07Z</time>
      </trkpt>
      <trkpt lat="47.14269" lon="-1.40345">
        <ele>40</ele>
        <time>2019-02-03T08:40:09Z</time>
      </trkpt>
      <trkpt lat="47.14266" lon="-1.40357">
        <ele>41</ele>
        <time>2019-02-03T08:40:11Z</time>
      </trkpt>
      <trkpt lat="47.14262" lon="-1.40361">
        <ele>41</ele>
        <time>2019-02-03T08:40:12Z</time>
      </trkpt>
      <trkpt lat="47.1425" lon="-1.40371">
        <ele>41</ele>
        <time>2019-02-03T08:40:15Z</time>
      </trkpt>
      <trkpt lat="47.14246" lon="-1.40374">
        <ele>41</ele>
        <time>2019-02-03T08:40:16Z</time>
      </trkpt>
      <trkpt lat="47.14231" lon="-1.40386">
        <ele>42</ele>
        <time>2019-02-03T08:40:20Z</time>
      </trkpt>
      <trkpt lat="47.1421" lon="-1.40405">
        <ele>42</ele>
        <time>2019-02-03T08:40:26Z</time>
      </trkpt>
      <trkpt lat="47.14203" lon="-1.4041">
        <ele>42</ele>
        <time>2019-02-03T08:40:28Z</time>
      </trkpt>
      <trkpt lat="47.14086" lon="-1.40447">
        <ele>43</ele>
        <time>2019-02-03T08:40:55Z</time>
      </trkpt>
      <trkpt lat="47.14077" lon="-1.40449">
        <ele>42</ele>
        <time>2019-02-03T08:40:57Z</time>
      </trkpt>
      <trkpt lat="47.14069" lon="-1.40446">
        <ele>42</ele>
        <time>2019-02-03T08:40:59Z</time>
      </trkpt>
      <trkpt lat="47.14065" lon="-1.40442">
        <ele>42</ele>
        <time>2019-02-03T08:41:00Z</time>
      </trkpt>
      <trkpt lat="47.14057" lon="-1.40426">
        <ele>43</ele>
        <time>2019-02-03T08:41:03Z</time>
      </trkpt>
      <trkpt lat="47.14047" lon="-1.40396">
        <ele>42</ele>
        <time>2019-02-03T08:41:08Z</time>
      </trkpt>
      <trkpt lat="47.14041" lon="-1.40378">
        <ele>44</ele>
        <time>2019-02-03T08:41:11Z</time>
      </trkpt>
      <trkpt lat="47.14022" lon="-1.40322">
        <ele>43</ele>
        <time>2019-02-03T08:41:20Z</time>
      </trkpt>
      <trkpt lat="47.14021" lon="-1.40309">
        <ele>44</ele>
        <time>2019-02-03T08:41:22Z</time>
      </trkpt>
      <trkpt lat="47.14014" lon="-1.40274">
        <ele>42</ele>
        <time>2019-02-03T08:41:27Z</time>
      </trkpt>
      <trkpt lat="47.14013" lon="-1.40267">
        <ele>42</ele>
        <time>2019-02-03T08:41:28Z</time>
      </trkpt>
      <trkpt lat="47.14011" lon="-1.4026">
        <ele>42</ele>
        <time>2019-02-03T08:41:29Z</time>
      </trkpt>
      <trkpt lat="47.14005" lon="-1.40238">
        <ele>42</ele>
        <time>2019-02-03T08:41:32Z</time>
      </trkpt>
      <trkpt lat="47.14" lon="-1.40224">
        <ele>41</ele>
        <time>2019-02-03T08:41:34Z</time>
      </trkpt>
      <trkpt lat="47.13993" lon="-1.40203">
        <ele>40</ele>
        <time>2019-02-03T08:41:37Z</time>
      </trkpt>
      <trkpt lat="47.13991" lon="-1.40196">
        <ele>40</ele>
        <time>2019-02-03T08:41:38Z</time>
      </trkpt>
      <trkpt lat="47.13984" lon="-1.40181">
        <ele>39</ele>
        <time>2019-02-03T08:41:40Z</time>
      </trkpt>
      <trkpt lat="47.13982" lon="-1.40174">
        <ele>39</ele>
        <time>2019-02-03T08:41:41Z</time>
      </trkpt>
      <trkpt lat="47.13979" lon="-1.40167">
        <ele>39</ele>
        <time>2019-02-03T08:41:42Z</time>
      </trkpt>
      <trkpt lat="47.13958" lon="-1.4011">
        <ele>37</ele>
        <time>2019-02-03T08:41:50Z</time>
      </trkpt>
      <trkpt lat="47.13955" lon="-1.40102">
        <ele>38</ele>
        <time>2019-02-03T08:41:51Z</time>
      </trkpt>
      <trkpt lat="47.13942" lon="-1.40073">
        <ele>37</ele>
        <time>2019-02-03T08:41:55Z</time>
      </trkpt>
      <trkpt lat="47.13939" lon="-1.40068">
        <ele>37</ele>
        <time>2019-02-03T08:41:56Z</time>
      </trkpt>
      <trkpt lat="47.13936" lon="-1.40062">
        <ele>37</ele>
        <time>2019-02-03T08:41:57Z</time>
      </trkpt>
      <trkpt lat="47.13933" lon="-1.40055">
        <ele>38</ele>
        <time>2019-02-03T08:41:58Z</time>
      </trkpt>
      <trkpt lat="47.1393" lon="-1.40048">
        <ele>38</ele>
        <time>2019-02-03T08:41:59Z</time>
      </trkpt>
      <trkpt lat="47.13922" lon="-1.40013">
        <ele>39</ele>
        <time>2019-02-03T08:42:03Z</time>
      </trkpt>
      <trkpt lat="47.13917" lon="-1.39977">
        <ele>37</ele>
        <time>2019-02-03T08:42:07Z</time>
      </trkpt>
      <trkpt lat="47.13917" lon="-1.39969">
        <ele>38</ele>
        <time>2019-02-03T08:42:08Z</time>
      </trkpt>
      <trkpt lat="47.13915" lon="-1.39959">
        <ele>38</ele>
        <time>2019-02-03T08:42:09Z</time>
      </trkpt>
      <trkpt lat="47.13913" lon="-1.39949">
        <ele>37</ele>
        <time>2019-02-03T08:42:10Z</time>
      </trkpt>
      <trkpt lat="47.13911" lon="-1.39939">
        <ele>37</ele>
        <time>2019-02-03T08:42:11Z</time>
      </trkpt>
      <trkpt lat="47.13893" lon="-1.39793">
        <ele>35</ele>
        <time>2019-02-03T08:42:25Z</time>
      </trkpt>
      <trkpt lat="47.13892" lon="-1.39786">
        <ele>35</ele>
        <time>2019-02-03T08:42:26Z</time>
      </trkpt>
      <trkpt lat="47.13893" lon="-1.39775">
        <ele>35</ele>
        <time>2019-02-03T08:42:28Z</time>
      </trkpt>
      <trkpt lat="47.13895" lon="-1.39738">
        <ele>34</ele>
        <time>2019-02-03T08:42:34Z</time>
      </trkpt>
      <trkpt lat="47.13894" lon="-1.39725">
        <ele>33</ele>
        <time>2019-02-03T08:42:36Z</time>
      </trkpt>
      <trkpt lat="47.13892" lon="-1.39718">
        <ele>33</ele>
        <time>2019-02-03T08:42:37Z</time>
      </trkpt>
      <trkpt lat="47.1389" lon="-1.39712">
        <ele>32</ele>
        <time>2019-02-03T08:42:38Z</time>
      </trkpt>
      <trkpt lat="47.13886" lon="-1.39705">
        <ele>32</ele>
        <time>2019-02-03T08:42:39Z</time>
      </trkpt>
      <trkpt lat="47.13882" lon="-1.397">
        <ele>32</ele>
        <time>2019-02-03T08:42:40Z</time>
      </trkpt>
      <trkpt lat="47.13878" lon="-1.39695">
        <ele>31</ele>
        <time>2019-02-03T08:42:41Z</time>
      </trkpt>
      <trkpt lat="47.13856" lon="-1.39685">
        <ele>31</ele>
        <time>2019-02-03T08:42:45Z</time>
      </trkpt>
      <trkpt lat="47.13851" lon="-1.3968">
        <ele>30</ele>
        <time>2019-02-03T08:42:46Z</time>
      </trkpt>
      <trkpt lat="47.13843" lon="-1.39664">
        <ele>30</ele>
        <time>2019-02-03T08:42:48Z</time>
      </trkpt>
      <trkpt lat="47.13841" lon="-1.39655">
        <ele>30</ele>
        <time>2019-02-03T08:42:49Z</time>
      </trkpt>
      <trkpt lat="47.13835" lon="-1.39637">
        <ele>29</ele>
        <time>2019-02-03T08:42:51Z</time>
      </trkpt>
      <trkpt lat="47.13814" lon="-1.39594">
        <ele>28</ele>
        <time>2019-02-03T08:42:56Z</time>
      </trkpt>
      <trkpt lat="47.13809" lon="-1.39582">
        <ele>28</ele>
        <time>2019-02-03T08:42:57Z</time>
      </trkpt>
      <trkpt lat="47.13805" lon="-1.39562">
        <ele>27</ele>
        <time>2019-02-03T08:42:59Z</time>
      </trkpt>
      <trkpt lat="47.13804" lon="-1.39551">
        <ele>27</ele>
        <time>2019-02-03T08:43:00Z</time>
      </trkpt>
      <trkpt lat="47.13805" lon="-1.39541">
        <ele>27</ele>
        <time>2019-02-03T08:43:01Z</time>
      </trkpt>
      <trkpt lat="47.13805" lon="-1.39531">
        <ele>27</ele>
        <time>2019-02-03T08:43:02Z</time>
      </trkpt>
      <trkpt lat="47.13806" lon="-1.39522">
        <ele>27</ele>
        <time>2019-02-03T08:43:03Z</time>
      </trkpt>
      <trkpt lat="47.13805" lon="-1.39503">
        <ele>27</ele>
        <time>2019-02-03T08:43:05Z</time>
      </trkpt>
      <trkpt lat="47.138" lon="-1.39486">
        <ele>27</ele>
        <time>2019-02-03T08:43:07Z</time>
      </trkpt>
      <trkpt lat="47.13798" lon="-1.39478">
        <ele>27</ele>
        <time>2019-02-03T08:43:08Z</time>
      </trkpt>
      <trkpt lat="47.13797" lon="-1.3947">
        <ele>27</ele>
        <time>2019-02-03T08:43:09Z</time>
      </trkpt>
      <trkpt lat="47.13794" lon="-1.39463">
        <ele>27</ele>
        <time>2019-02-03T08:43:10Z</time>
      </trkpt>
      <trkpt lat="47.13792" lon="-1.39456">
        <ele>27</ele>
        <time>2019-02-03T08:43:11Z</time>
      </trkpt>
      <trkpt lat="47.13789" lon="-1.39449">
        <ele>27</ele>
        <time>2019-02-03T08:43:12Z</time>
      </trkpt>
      <trkpt lat="47.13777" lon="-1.39415">
        <ele>28</ele>
        <time>2019-02-03T08:43:17Z</time>
      </trkpt>
      <trkpt lat="47.13776" lon="-1.39406">
        <ele>27</ele>
        <time>2019-02-03T08:43:18Z</time>
      </trkpt>
      <trkpt lat="47.13764" lon="-1.39376">
        <ele>28</ele>
        <time>2019-02-03T08:43:23Z</time>
      </trkpt>
      <trkpt lat="47.13759" lon="-1.39368">
        <ele>28</ele>
        <time>2019-02-03T08:43:25Z</time>
      </trkpt>
      <trkpt lat="47.13746" lon="-1.39351">
        <ele>29</ele>
        <time>2019-02-03T08:43:29Z</time>
      </trkpt>
      <trkpt lat="47.13739" lon="-1.39343">
        <ele>28</ele>
        <time>2019-02-03T08:43:31Z</time>
      </trkpt>
      <trkpt lat="47.13733" lon="-1.39334">
        <ele>28</ele>
        <time>2019-02-03T08:43:33Z</time>
      </trkpt>
      <trkpt lat="47.13729" lon="-1.3933">
        <ele>29</ele>
        <time>2019-02-03T08:43:34Z</time>
      </trkpt>
      <trkpt lat="47.13704" lon="-1.39296">
        <ele>29</ele>
        <time>2019-02-03T08:43:42Z</time>
      </trkpt>
      <trkpt lat="47.13696" lon="-1.39292">
        <ele>29</ele>
        <time>2019-02-03T08:43:44Z</time>
      </trkpt>
      <trkpt lat="47.13693" lon="-1.39287">
        <ele>29</ele>
        <time>2019-02-03T08:43:45Z</time>
      </trkpt>
      <trkpt lat="47.13675" lon="-1.39256">
        <ele>30</ele>
        <time>2019-02-03T08:43:53Z</time>
      </trkpt>
      <trkpt lat="47.13671" lon="-1.39248">
        <ele>30</ele>
        <time>2019-02-03T08:43:55Z</time>
      </trkpt>
      <trkpt lat="47.13661" lon="-1.39227">
        <ele>30</ele>
        <time>2019-02-03T08:44:01Z</time>
      </trkpt>
      <trkpt lat="47.13656" lon="-1.39221">
        <ele>31</ele>
        <time>2019-02-03T08:44:03Z</time>
      </trkpt>
      <trkpt lat="47.13618" lon="-1.39168">
        <ele>30</ele>
        <time>2019-02-03T08:44:19Z</time>
      </trkpt>
      <trkpt lat="47.13613" lon="-1.39162">
        <ele>30</ele>
        <time>2019-02-03T08:44:21Z</time>
      </trkpt>
      <trkpt lat="47.13609" lon="-1.39156">
        <ele>30</ele>
        <time>2019-02-03T08:44:23Z</time>
      </trkpt>
      <trkpt lat="47.13584" lon="-1.39113">
        <ele>29</ele>
        <time>2019-02-03T08:44:33Z</time>
      </trkpt>
      <trkpt lat="47.13561" lon="-1.39065">
        <ele>30</ele>
        <time>2019-02-03T08:44:43Z</time>
      </trkpt>
      <trkpt lat="47.13555" lon="-1.39056">
        <ele>29</ele>
        <time>2019-02-03T08:44:45Z</time>
      </trkpt>
      <trkpt lat="47.13548" lon="-1.39049">
        <ele>30</ele>
        <time>2019-02-03T08:44:47Z</time>
      </trkpt>
      <trkpt lat="47.13508" lon="-1.39006">
        <ele>30</ele>
        <time>2019-02-03T08:44:58Z</time>
      </trkpt>
      <trkpt lat="47.13476" lon="-1.38925">
        <ele>30</ele>
        <time>2019-02-03T08:45:14Z</time>
      </trkpt>
      <trkpt lat="47.1347" lon="-1.38918">
        <ele>30</ele>
        <time>2019-02-03T08:45:16Z</time>
      </trkpt>
      <trkpt lat="47.13465" lon="-1.38911">
        <ele>30</ele>
        <time>2019-02-03T08:45:18Z</time>
      </trkpt>
      <trkpt lat="47.13451" lon="-1.38889">
        <ele>32</ele>
        <time>2019-02-03T08:45:24Z</time>
      </trkpt>
      <trkpt lat="47.13445" lon="-1.38883">
        <ele>32</ele>
        <time>2019-02-03T08:45:26Z</time>
      </trkpt>
      <trkpt lat="47.1344" lon="-1.38879">
        <ele>32</ele>
        <time>2019-02-03T08:45:28Z</time>
      </trkpt>
      <trkpt lat="47.13434" lon="-1.38875">
        <ele>32</ele>
        <time>2019-02-03T08:45:30Z</time>
      </trkpt>
      <trkpt lat="47.13415" lon="-1.38845">
        <ele>32</ele>
        <time>2019-02-03T08:45:38Z</time>
      </trkpt>
      <trkpt lat="47.1341" lon="-1.38838">
        <ele>31</ele>
        <time>2019-02-03T08:45:40Z</time>
      </trkpt>
      <trkpt lat="47.13393" lon="-1.38819">
        <ele>32</ele>
        <time>2019-02-03T08:45:46Z</time>
      </trkpt>
      <trkpt lat="47.13387" lon="-1.38813">
        <ele>32</ele>
        <time>2019-02-03T08:45:48Z</time>
      </trkpt>
      <trkpt lat="47.13376" lon="-1.38798">
        <ele>33</ele>
        <time>2019-02-03T08:45:52Z</time>
      </trkpt>
      <trkpt lat="47.13371" lon="-1.38789">
        <ele>32</ele>
        <time>2019-02-03T08:45:54Z</time>
      </trkpt>
      <trkpt lat="47.13362" lon="-1.38769">
        <ele>32</ele>
        <time>2019-02-03T08:45:58Z</time>
      </trkpt>
      <trkpt lat="47.13356" lon="-1.38761">
        <ele>32</ele>
        <time>2019-02-03T08:46:00Z</time>
      </trkpt>
      <trkpt lat="47.13344" lon="-1.3875">
        <ele>34</ele>
        <time>2019-02-03T08:46:04Z</time>
      </trkpt>
      <trkpt lat="47.13338" lon="-1.38743">
        <ele>34</ele>
        <time>2019-02-03T08:46:06Z</time>
      </trkpt>
      <trkpt lat="47.13322" lon="-1.38724">
        <ele>36</ele>
        <time>2019-02-03T08:46:12Z</time>
      </trkpt>
      <trkpt lat="47.13318" lon="-1.38718">
        <ele>36</ele>
        <time>2019-02-03T08:46:14Z</time>
      </trkpt>
      <trkpt lat="47.13252" lon="-1.38606">
        <ele>40</ele>
        <time>2019-02-03T08:46:44Z</time>
      </trkpt>
      <trkpt lat="47.13248" lon="-1.386">
        <ele>40</ele>
        <time>2019-02-03T08:46:46Z</time>
      </trkpt>
      <trkpt lat="47.13239" lon="-1.38584">
        <ele>40</ele>
        <time>2019-02-03T08:46:50Z</time>
      </trkpt>
      <trkpt lat="47.13233" lon="-1.38564">
        <ele>40</ele>
        <time>2019-02-03T08:46:54Z</time>
      </trkpt>
      <trkpt lat="47.13225" lon="-1.38542">
        <ele>40</ele>
        <time>2019-02-03T08:46:58Z</time>
      </trkpt>
      <trkpt lat="47.13195" lon="-1.38459">
        <ele>40</ele>
        <time>2019-02-03T08:47:12Z</time>
      </trkpt>
      <trkpt lat="47.13194" lon="-1.38453">
        <ele>40</ele>
        <time>2019-02-03T08:47:13Z</time>
      </trkpt>
      <trkpt lat="47.13194" lon="-1.38445">
        <ele>40</ele>
        <time>2019-02-03T08:47:14Z</time>
      </trkpt>
      <trkpt lat="47.13191" lon="-1.3843">
        <ele>39</ele>
        <time>2019-02-03T08:47:16Z</time>
      </trkpt>
      <trkpt lat="47.1319" lon="-1.38421">
        <ele>40</ele>
        <time>2019-02-03T08:47:17Z</time>
      </trkpt>
      <trkpt lat="47.13189" lon="-1.38413">
        <ele>39</ele>
        <time>2019-02-03T08:47:18Z</time>
      </trkpt>
      <trkpt lat="47.1318" lon="-1.38383">
        <ele>38</ele>
        <time>2019-02-03T08:47:23Z</time>
      </trkpt>
      <trkpt lat="47.1314" lon="-1.38281">
        <ele>38</ele>
        <time>2019-02-03T08:47:43Z</time>
      </trkpt>
      <trkpt lat="47.13138" lon="-1.3827">
        <ele>38</ele>
        <time>2019-02-03T08:47:45Z</time>
      </trkpt>
      <trkpt lat="47.13151" lon="-1.38196">
        <ele>35</ele>
        <time>2019-02-03T08:47:55Z</time>
      </trkpt>
      <trkpt lat="47.13178" lon="-1.38116">
        <ele>32</ele>
        <time>2019-02-03T08:48:04Z</time>
      </trkpt>
      <trkpt lat="47.1318" lon="-1.38106">
        <ele>32</ele>
        <time>2019-02-03T08:48:05Z</time>
      </trkpt>
      <trkpt lat="47.13174" lon="-1.37984">
        <ele>31</ele>
        <time>2019-02-03T08:48:19Z</time>
      </trkpt>
      <trkpt lat="47.13172" lon="-1.37957">
        <ele>29</ele>
        <time>2019-02-03T08:48:22Z</time>
      </trkpt>
      <trkpt lat="47.13171" lon="-1.37923">
        <ele>29</ele>
        <time>2019-02-03T08:48:26Z</time>
      </trkpt>
      <trkpt lat="47.13171" lon="-1.37914">
        <ele>30</ele>
        <time>2019-02-03T08:48:27Z</time>
      </trkpt>
      <trkpt lat="47.13171" lon="-1.37906">
        <ele>30</ele>
        <time>2019-02-03T08:48:28Z</time>
      </trkpt>
      <trkpt lat="47.1317" lon="-1.37897">
        <ele>29</ele>
        <time>2019-02-03T08:48:29Z</time>
      </trkpt>
      <trkpt lat="47.1317" lon="-1.37888">
        <ele>28</ele>
        <time>2019-02-03T08:48:30Z</time>
      </trkpt>
      <trkpt lat="47.1317" lon="-1.3788">
        <ele>29</ele>
        <time>2019-02-03T08:48:31Z</time>
      </trkpt>
      <trkpt lat="47.13169" lon="-1.37861">
        <ele>28</ele>
        <time>2019-02-03T08:48:33Z</time>
      </trkpt>
      <trkpt lat="47.13165" lon="-1.37816">
        <ele>25</ele>
        <time>2019-02-03T08:48:37Z</time>
      </trkpt>
      <trkpt lat="47.13171" lon="-1.37776">
        <ele>23</ele>
        <time>2019-02-03T08:48:40Z</time>
      </trkpt>
      <trkpt lat="47.13177" lon="-1.37752">
        <ele>22</ele>
        <time>2019-02-03T08:48:42Z</time>
      </trkpt>
      <trkpt lat="47.13179" lon="-1.37739">
        <ele>22</ele>
        <time>2019-02-03T08:48:43Z</time>
      </trkpt>
      <trkpt lat="47.13182" lon="-1.37727">
        <ele>20</ele>
        <time>2019-02-03T08:48:44Z</time>
      </trkpt>
      <trkpt lat="47.13185" lon="-1.37703">
        <ele>19</ele>
        <time>2019-02-03T08:48:46Z</time>
      </trkpt>
      <trkpt lat="47.13187" lon="-1.37691">
        <ele>19</ele>
        <time>2019-02-03T08:48:47Z</time>
      </trkpt>
      <trkpt lat="47.13192" lon="-1.37671">
        <ele>20</ele>
        <time>2019-02-03T08:48:49Z</time>
      </trkpt>
      <trkpt lat="47.13193" lon="-1.3766">
        <ele>20</ele>
        <time>2019-02-03T08:48:50Z</time>
      </trkpt>
      <trkpt lat="47.13194" lon="-1.37651">
        <ele>20</ele>
        <time>2019-02-03T08:48:51Z</time>
      </trkpt>
      <trkpt lat="47.13196" lon="-1.37634">
        <ele>21</ele>
        <time>2019-02-03T08:48:53Z</time>
      </trkpt>
      <trkpt lat="47.13197" lon="-1.37625">
        <ele>21</ele>
        <time>2019-02-03T08:48:54Z</time>
      </trkpt>
      <trkpt lat="47.132" lon="-1.37595">
        <ele>22</ele>
        <time>2019-02-03T08:48:58Z</time>
      </trkpt>
      <trkpt lat="47.13199" lon="-1.37576">
        <ele>23</ele>
        <time>2019-02-03T08:49:01Z</time>
      </trkpt>
      <trkpt lat="47.13198" lon="-1.37564">
        <ele>23</ele>
        <time>2019-02-03T08:49:03Z</time>
      </trkpt>
      <trkpt lat="47.13197" lon="-1.37529">
        <ele>26</ele>
        <time>2019-02-03T08:49:09Z</time>
      </trkpt>
      <trkpt lat="47.13195" lon="-1.37517">
        <ele>26</ele>
        <time>2019-02-03T08:49:11Z</time>
      </trkpt>
      <trkpt lat="47.13192" lon="-1.37495">
        <ele>28</ele>
        <time>2019-02-03T08:49:15Z</time>
      </trkpt>
      <trkpt lat="47.13189" lon="-1.37478">
        <ele>28</ele>
        <time>2019-02-03T08:49:19Z</time>
      </trkpt>
      <trkpt lat="47.13179" lon="-1.37413">
        <ele>33</ele>
        <time>2019-02-03T08:49:37Z</time>
      </trkpt>
      <trkpt lat="47.13177" lon="-1.37406">
        <ele>33</ele>
        <time>2019-02-03T08:49:39Z</time>
      </trkpt>
      <trkpt lat="47.13176" lon="-1.374">
        <ele>34</ele>
        <time>2019-02-03T08:49:41Z</time>
      </trkpt>
      <trkpt lat="47.13172" lon="-1.37373">
        <ele>35</ele>
        <time>2019-02-03T08:49:49Z</time>
      </trkpt>
      <trkpt lat="47.13173" lon="-1.37359">
        <ele>36</ele>
        <time>2019-02-03T08:49:53Z</time>
      </trkpt>
      <trkpt lat="47.13175" lon="-1.37352">
        <ele>36</ele>
        <time>2019-02-03T08:49:55Z</time>
      </trkpt>
      <trkpt lat="47.13201" lon="-1.37331">
        <ele>39</ele>
        <time>2019-02-03T08:50:07Z</time>
      </trkpt>
      <trkpt lat="47.13206" lon="-1.37328">
        <ele>40</ele>
        <time>2019-02-03T08:50:09Z</time>
      </trkpt>
      <trkpt lat="47.13211" lon="-1.37324">
        <ele>40</ele>
        <time>2019-02-03T08:50:11Z</time>
      </trkpt>
      <trkpt lat="47.1322" lon="-1.37317">
        <ele>39</ele>
        <time>2019-02-03T08:50:15Z</time>
      </trkpt>
      <trkpt lat="47.13224" lon="-1.37312">
        <ele>40</ele>
        <time>2019-02-03T08:50:17Z</time>
      </trkpt>
      <trkpt lat="47.13229" lon="-1.37307">
        <ele>39</ele>
        <time>2019-02-03T08:50:19Z</time>
      </trkpt>
      <trkpt lat="47.13233" lon="-1.37301">
        <ele>40</ele>
        <time>2019-02-03T08:50:21Z</time>
      </trkpt>
      <trkpt lat="47.13236" lon="-1.37284">
        <ele>40</ele>
        <time>2019-02-03T08:50:25Z</time>
      </trkpt>
      <trkpt lat="47.13235" lon="-1.37275">
        <ele>39</ele>
        <time>2019-02-03T08:50:27Z</time>
      </trkpt>
      <trkpt lat="47.13229" lon="-1.37257">
        <ele>41</ele>
        <time>2019-02-03T08:50:33Z</time>
      </trkpt>
      <trkpt lat="47.13226" lon="-1.37251">
        <ele>41</ele>
        <time>2019-02-03T08:50:35Z</time>
      </trkpt>
      <trkpt lat="47.13224" lon="-1.37234">
        <ele>41</ele>
        <time>2019-02-03T08:50:39Z</time>
      </trkpt>
      <trkpt lat="47.13221" lon="-1.37226">
        <ele>41</ele>
        <time>2019-02-03T08:50:41Z</time>
      </trkpt>
      <trkpt lat="47.13219" lon="-1.37218">
        <ele>41</ele>
        <time>2019-02-03T08:50:43Z</time>
      </trkpt>
      <trkpt lat="47.13217" lon="-1.3721">
        <ele>40</ele>
        <time>2019-02-03T08:50:45Z</time>
      </trkpt>
      <trkpt lat="47.13215" lon="-1.37202">
        <ele>41</ele>
        <time>2019-02-03T08:50:47Z</time>
      </trkpt>
      <trkpt lat="47.13211" lon="-1.37186">
        <ele>42</ele>
        <time>2019-02-03T08:50:51Z</time>
      </trkpt>
      <trkpt lat="47.13208" lon="-1.37178">
        <ele>42</ele>
        <time>2019-02-03T08:50:53Z</time>
      </trkpt>
      <trkpt lat="47.13201" lon="-1.37165">
        <ele>44</ele>
        <time>2019-02-03T08:50:57Z</time>
      </trkpt>
      <trkpt lat="47.13197" lon="-1.3716">
        <ele>43</ele>
        <time>2019-02-03T08:50:59Z</time>
      </trkpt>
      <trkpt lat="47.13191" lon="-1.37155">
        <ele>44</ele>
        <time>2019-02-03T08:51:01Z</time>
      </trkpt>
      <trkpt lat="47.13178" lon="-1.37149">
        <ele>44</ele>
        <time>2019-02-03T08:51:05Z</time>
      </trkpt>
      <trkpt lat="47.13157" lon="-1.37137">
        <ele>45</ele>
        <time>2019-02-03T08:51:11Z</time>
      </trkpt>
      <trkpt lat="47.1315" lon="-1.37133">
        <ele>44</ele>
        <time>2019-02-03T08:51:13Z</time>
      </trkpt>
      <trkpt lat="47.13144" lon="-1.37128">
        <ele>45</ele>
        <time>2019-02-03T08:51:15Z</time>
      </trkpt>
      <trkpt lat="47.1313" lon="-1.37118">
        <ele>44</ele>
        <time>2019-02-03T08:51:19Z</time>
      </trkpt>
      <trkpt lat="47.13114" lon="-1.37089">
        <ele>43</ele>
        <time>2019-02-03T08:51:25Z</time>
      </trkpt>
      <trkpt lat="47.1311" lon="-1.37078">
        <ele>43</ele>
        <time>2019-02-03T08:51:27Z</time>
      </trkpt>
      <trkpt lat="47.13125" lon="-1.36874">
        <ele>44</ele>
        <time>2019-02-03T08:51:57Z</time>
      </trkpt>
      <trkpt lat="47.13137" lon="-1.36729">
        <ele>44</ele>
        <time>2019-02-03T08:52:14Z</time>
      </trkpt>
      <trkpt lat="47.13143" lon="-1.36706">
        <ele>44</ele>
        <time>2019-02-03T08:52:17Z</time>
      </trkpt>
      <trkpt lat="47.13145" lon="-1.36699">
        <ele>44</ele>
        <time>2019-02-03T08:52:18Z</time>
      </trkpt>
      <trkpt lat="47.13152" lon="-1.36688">
        <ele>44</ele>
        <time>2019-02-03T08:52:20Z</time>
      </trkpt>
      <trkpt lat="47.13242" lon="-1.36588">
        <ele>41</ele>
        <time>2019-02-03T08:52:40Z</time>
      </trkpt>
      <trkpt lat="47.13336" lon="-1.36517">
        <ele>40</ele>
        <time>2019-02-03T08:52:57Z</time>
      </trkpt>
      <trkpt lat="47.13444" lon="-1.36424">
        <ele>34</ele>
        <time>2019-02-03T08:53:16Z</time>
      </trkpt>
      <trkpt lat="47.13454" lon="-1.36416">
        <ele>32</ele>
        <time>2019-02-03T08:53:22Z</time>
      </trkpt>
      <trkpt lat="47.13458" lon="-1.36407">
        <ele>31</ele>
        <time>2019-02-03T08:53:27Z</time>
      </trkpt>
      <trkpt lat="47.13458" lon="-1.36398">
        <ele>30</ele>
        <time>2019-02-03T08:53:29Z</time>
      </trkpt>
      <trkpt lat="47.13456" lon="-1.36388">
        <ele>30</ele>
        <time>2019-02-03T08:53:31Z</time>
      </trkpt>
      <trkpt lat="47.13456" lon="-1.36377">
        <ele>30</ele>
        <time>2019-02-03T08:53:33Z</time>
      </trkpt>
      <trkpt lat="47.13479" lon="-1.36367">
        <ele>27</ele>
        <time>2019-02-03T08:53:37Z</time>
      </trkpt>
      <trkpt lat="47.13486" lon="-1.36368">
        <ele>26</ele>
        <time>2019-02-03T08:53:38Z</time>
      </trkpt>
      <trkpt lat="47.1351" lon="-1.36386">
        <ele>25</ele>
        <time>2019-02-03T08:53:41Z</time>
      </trkpt>
      <trkpt lat="47.13518" lon="-1.36395">
        <ele>23</ele>
        <time>2019-02-03T08:53:42Z</time>
      </trkpt>
      <trkpt lat="47.13565" lon="-1.36451">
        <ele>21</ele>
        <time>2019-02-03T08:53:47Z</time>
      </trkpt>
      <trkpt lat="47.13587" lon="-1.36497">
        <ele>19</ele>
        <time>2019-02-03T08:53:51Z</time>
      </trkpt>
      <trkpt lat="47.13593" lon="-1.36502">
        <ele>19</ele>
        <time>2019-02-03T08:53:52Z</time>
      </trkpt>
      <trkpt lat="47.13603" lon="-1.36506">
        <ele>18</ele>
        <time>2019-02-03T08:53:54Z</time>
      </trkpt>
      <trkpt lat="47.13608" lon="-1.36501">
        <ele>18</ele>
        <time>2019-02-03T08:53:55Z</time>
      </trkpt>
      <trkpt lat="47.13612" lon="-1.36495">
        <ele>16</ele>
        <time>2019-02-03T08:53:56Z</time>
      </trkpt>
      <trkpt lat="47.13615" lon="-1.36488">
        <ele>16</ele>
        <time>2019-02-03T08:53:57Z</time>
      </trkpt>
      <trkpt lat="47.13615" lon="-1.36481">
        <ele>16</ele>
        <time>2019-02-03T08:53:58Z</time>
      </trkpt>
      <trkpt lat="47.13619" lon="-1.36469">
        <ele>15</ele>
        <time>2019-02-03T08:54:00Z</time>
      </trkpt>
      <trkpt lat="47.13621" lon="-1.3644">
        <ele>13</ele>
        <time>2019-02-03T08:54:05Z</time>
      </trkpt>
      <trkpt lat="47.13613" lon="-1.36384">
        <ele>10</ele>
        <time>2019-02-03T08:54:13Z</time>
      </trkpt>
      <trkpt lat="47.13612" lon="-1.36378">
        <ele>10</ele>
        <time>2019-02-03T08:54:14Z</time>
      </trkpt>
      <trkpt lat="47.1361" lon="-1.36371">
        <ele>10</ele>
        <time>2019-02-03T08:54:15Z</time>
      </trkpt>
      <trkpt lat="47.13587" lon="-1.36268">
        <ele>9</ele>
        <time>2019-02-03T08:54:31Z</time>
      </trkpt>
      <trkpt lat="47.13588" lon="-1.36244">
        <ele>9</ele>
        <time>2019-02-03T08:54:35Z</time>
      </trkpt>
      <trkpt lat="47.13589" lon="-1.36233">
        <ele>9</ele>
        <time>2019-02-03T08:54:37Z</time>
      </trkpt>
      <trkpt lat="47.13595" lon="-1.36092">
        <ele>8</ele>
        <time>2019-02-03T08:54:59Z</time>
      </trkpt>
      <trkpt lat="47.13594" lon="-1.36082">
        <ele>8</ele>
        <time>2019-02-03T08:55:00Z</time>
      </trkpt>
      <trkpt lat="47.13591" lon="-1.36074">
        <ele>8</ele>
        <time>2019-02-03T08:55:01Z</time>
      </trkpt>
      <trkpt lat="47.13584" lon="-1.3606">
        <ele>8</ele>
        <time>2019-02-03T08:55:03Z</time>
      </trkpt>
      <trkpt lat="47.13574" lon="-1.36048">
        <ele>9</ele>
        <time>2019-02-03T08:55:07Z</time>
      </trkpt>
      <trkpt lat="47.13569" lon="-1.36035">
        <ele>9</ele>
        <time>2019-02-03T08:55:09Z</time>
      </trkpt>
      <trkpt lat="47.13565" lon="-1.36029">
        <ele>9</ele>
        <time>2019-02-03T08:55:10Z</time>
      </trkpt>
      <trkpt lat="47.13548" lon="-1.36007">
        <ele>9</ele>
        <time>2019-02-03T08:55:14Z</time>
      </trkpt>
      <trkpt lat="47.13526" lon="-1.35993">
        <ele>7</ele>
        <time>2019-02-03T08:55:20Z</time>
      </trkpt>
      <trkpt lat="47.13524" lon="-1.35982">
        <ele>8</ele>
        <time>2019-02-03T08:55:24Z</time>
      </trkpt>
      <trkpt lat="47.13525" lon="-1.35975">
        <ele>8</ele>
        <time>2019-02-03T08:55:27Z</time>
      </trkpt>
      <trkpt lat="47.13521" lon="-1.3597">
        <ele>8</ele>
        <time>2019-02-03T08:55:29Z</time>
      </trkpt>
      <trkpt lat="47.13519" lon="-1.35958">
        <ele>8</ele>
        <time>2019-02-03T08:55:33Z</time>
      </trkpt>
      <trkpt lat="47.13515" lon="-1.35942">
        <ele>8</ele>
        <time>2019-02-03T08:55:37Z</time>
      </trkpt>
      <trkpt lat="47.13509" lon="-1.35925">
        <ele>9</ele>
        <time>2019-02-03T08:55:43Z</time>
      </trkpt>
      <trkpt lat="47.13513" lon="-1.35917">
        <ele>9</ele>
        <time>2019-02-03T08:55:50Z</time>
      </trkpt>
      <trkpt lat="47.13506" lon="-1.35899">
        <ele>10</ele>
        <time>2019-02-03T08:55:57Z</time>
      </trkpt>
      <trkpt lat="47.13502" lon="-1.35895">
        <ele>10</ele>
        <time>2019-02-03T08:55:59Z</time>
      </trkpt>
      <trkpt lat="47.13497" lon="-1.35888">
        <ele>10</ele>
        <time>2019-02-03T08:56:02Z</time>
      </trkpt>
      <trkpt lat="47.1349" lon="-1.35879">
        <ele>10</ele>
        <time>2019-02-03T08:56:06Z</time>
      </trkpt>
      <trkpt lat="47.13473" lon="-1.35864">
        <ele>11</ele>
        <time>2019-02-03T08:56:14Z</time>
      </trkpt>
      <trkpt lat="47.13434" lon="-1.3582">
        <ele>15</ele>
        <time>2019-02-03T08:56:35Z</time>
      </trkpt>
      <trkpt lat="47.1342" lon="-1.35806">
        <ele>16</ele>
        <time>2019-02-03T08:56:41Z</time>
      </trkpt>
      <trkpt lat="47.13402" lon="-1.35782">
        <ele>17</ele>
        <time>2019-02-03T08:56:49Z</time>
      </trkpt>
      <trkpt lat="47.13397" lon="-1.35776">
        <ele>17</ele>
        <time>2019-02-03T08:56:51Z</time>
      </trkpt>
      <trkpt lat="47.13393" lon="-1.3577">
        <ele>17</ele>
        <time>2019-02-03T08:56:53Z</time>
      </trkpt>
      <trkpt lat="47.13388" lon="-1.35764">
        <ele>17</ele>
        <time>2019-02-03T08:56:55Z</time>
      </trkpt>
      <trkpt lat="47.13374" lon="-1.35745">
        <ele>19</ele>
        <time>2019-02-03T08:57:01Z</time>
      </trkpt>
      <trkpt lat="47.1337" lon="-1.35736">
        <ele>19</ele>
        <time>2019-02-03T08:57:03Z</time>
      </trkpt>
      <trkpt lat="47.13367" lon="-1.35727">
        <ele>20</ele>
        <time>2019-02-03T08:57:05Z</time>
      </trkpt>
      <trkpt lat="47.13364" lon="-1.35718">
        <ele>19</ele>
        <time>2019-02-03T08:57:07Z</time>
      </trkpt>
      <trkpt lat="47.13362" lon="-1.35707">
        <ele>19</ele>
        <time>2019-02-03T08:57:09Z</time>
      </trkpt>
      <trkpt lat="47.13359" lon="-1.35697">
        <ele>19</ele>
        <time>2019-02-03T08:57:11Z</time>
      </trkpt>
      <trkpt lat="47.13355" lon="-1.35676">
        <ele>19</ele>
        <time>2019-02-03T08:57:15Z</time>
      </trkpt>
      <trkpt lat="47.13348" lon="-1.35616">
        <ele>21</ele>
        <time>2019-02-03T08:57:27Z</time>
      </trkpt>
      <trkpt lat="47.13349" lon="-1.35605">
        <ele>21</ele>
        <time>2019-02-03T08:57:29Z</time>
      </trkpt>
      <trkpt lat="47.13354" lon="-1.35597">
        <ele>21</ele>
        <time>2019-02-03T08:57:31Z</time>
      </trkpt>
      <trkpt lat="47.13509" lon="-1.35544">
        <ele>20</ele>
        <time>2019-02-03T08:58:01Z</time>
      </trkpt>
      <trkpt lat="47.13534" lon="-1.35534">
        <ele>19</ele>
        <time>2019-02-03T08:58:06Z</time>
      </trkpt>
      <trkpt lat="47.13647" lon="-1.35404">
        <ele>15</ele>
        <time>2019-02-03T08:58:31Z</time>
      </trkpt>
      <trkpt lat="47.13651" lon="-1.35396">
        <ele>15</ele>
        <time>2019-02-03T08:58:32Z</time>
      </trkpt>
      <trkpt lat="47.13659" lon="-1.35386">
        <ele>15</ele>
        <time>2019-02-03T08:58:34Z</time>
      </trkpt>
      <trkpt lat="47.13673" lon="-1.35372">
        <ele>15</ele>
        <time>2019-02-03T08:58:38Z</time>
      </trkpt>
      <trkpt lat="47.13698" lon="-1.35363">
        <ele>13</ele>
        <time>2019-02-03T08:58:43Z</time>
      </trkpt>
      <trkpt lat="47.13708" lon="-1.35361">
        <ele>12</ele>
        <time>2019-02-03T08:58:45Z</time>
      </trkpt>
      <trkpt lat="47.13828" lon="-1.35355">
        <ele>8</ele>
        <time>2019-02-03T08:59:08Z</time>
      </trkpt>
      <trkpt lat="47.13834" lon="-1.35358">
        <ele>8</ele>
        <time>2019-02-03T08:59:09Z</time>
      </trkpt>
      <trkpt lat="47.13846" lon="-1.35365">
        <ele>7</ele>
        <time>2019-02-03T08:59:11Z</time>
      </trkpt>
      <trkpt lat="47.13862" lon="-1.35382">
        <ele>8</ele>
        <time>2019-02-03T08:59:14Z</time>
      </trkpt>
      <trkpt lat="47.13866" lon="-1.35388">
        <ele>8</ele>
        <time>2019-02-03T08:59:15Z</time>
      </trkpt>
      <trkpt lat="47.13876" lon="-1.35398">
        <ele>8</ele>
        <time>2019-02-03T08:59:17Z</time>
      </trkpt>
      <trkpt lat="47.13881" lon="-1.35404">
        <ele>9</ele>
        <time>2019-02-03T08:59:18Z</time>
      </trkpt>
      <trkpt lat="47.13894" lon="-1.3542">
        <ele>8</ele>
        <time>2019-02-03T08:59:21Z</time>
      </trkpt>
      <trkpt lat="47.13899" lon="-1.35425">
        <ele>8</ele>
        <time>2019-02-03T08:59:22Z</time>
      </trkpt>
      <trkpt lat="47.13923" lon="-1.35451">
        <ele>6</ele>
        <time>2019-02-03T08:59:27Z</time>
      </trkpt>
      <trkpt lat="47.13942" lon="-1.35464">
        <ele>7</ele>
        <time>2019-02-03T08:59:31Z</time>
      </trkpt>
      <trkpt lat="47.13959" lon="-1.35468">
        <ele>7</ele>
        <time>2019-02-03T08:59:34Z</time>
      </trkpt>
      <trkpt lat="47.13975" lon="-1.35469">
        <ele>6</ele>
        <time>2019-02-03T08:59:37Z</time>
      </trkpt>
      <trkpt lat="47.14002" lon="-1.3547">
        <ele>8</ele>
        <time>2019-02-03T08:59:42Z</time>
      </trkpt>
      <trkpt lat="47.14006" lon="-1.35473">
        <ele>9</ele>
        <time>2019-02-03T08:59:43Z</time>
      </trkpt>
      <trkpt lat="47.14011" lon="-1.35477">
        <ele>10</ele>
        <time>2019-02-03T08:59:45Z</time>
      </trkpt>
      <trkpt lat="47.14014" lon="-1.35485">
        <ele>11</ele>
        <time>2019-02-03T08:59:47Z</time>
      </trkpt>
      <trkpt lat="47.1401" lon="-1.35503">
        <ele>10</ele>
        <time>2019-02-03T08:59:51Z</time>
      </trkpt>
      <trkpt lat="47.14008" lon="-1.35512">
        <ele>10</ele>
        <time>2019-02-03T08:59:53Z</time>
      </trkpt>
      <trkpt lat="47.14006" lon="-1.35521">
        <ele>11</ele>
        <time>2019-02-03T08:59:56Z</time>
      </trkpt>
      <trkpt lat="47.14004" lon="-1.35529">
        <ele>11</ele>
        <time>2019-02-03T08:59:57Z</time>
      </trkpt>
      <trkpt lat="47.14003" lon="-1.35532">
        <ele>11</ele>
        <time>2019-02-03T09:04:48Z</time>
      </trkpt>
      <trkpt lat="47.14003" lon="-1.35532">
        <ele>11</ele>
        <time>2019-02-03T09:04:48Z</time>
      </trkpt>
      <trkpt lat="47.13987" lon="-1.35614">
        <ele>7</ele>
        <time>2019-02-03T09:05:09Z</time>
      </trkpt>
      <trkpt lat="47.13983" lon="-1.35632">
        <ele>8</ele>
        <time>2019-02-03T09:05:11Z</time>
      </trkpt>
      <trkpt lat="47.13979" lon="-1.3565">
        <ele>7</ele>
        <time>2019-02-03T09:05:13Z</time>
      </trkpt>
      <trkpt lat="47.13978" lon="-1.35658">
        <ele>7</ele>
        <time>2019-02-03T09:05:14Z</time>
      </trkpt>
      <trkpt lat="47.13977" lon="-1.35667">
        <ele>7</ele>
        <time>2019-02-03T09:05:15Z</time>
      </trkpt>
      <trkpt lat="47.13973" lon="-1.35685">
        <ele>7</ele>
        <time>2019-02-03T09:05:17Z</time>
      </trkpt>
      <trkpt lat="47.13975" lon="-1.35716">
        <ele>7</ele>
        <time>2019-02-03T09:05:21Z</time>
      </trkpt>
      <trkpt lat="47.13976" lon="-1.35724">
        <ele>6</ele>
        <time>2019-02-03T09:05:22Z</time>
      </trkpt>
      <trkpt lat="47.13977" lon="-1.35743">
        <ele>6</ele>
        <time>2019-02-03T09:05:24Z</time>
      </trkpt>
      <trkpt lat="47.13975" lon="-1.35749">
        <ele>6</ele>
        <time>2019-02-03T09:05:25Z</time>
      </trkpt>
      <trkpt lat="47.13974" lon="-1.35757">
        <ele>5</ele>
        <time>2019-02-03T09:05:26Z</time>
      </trkpt>
      <trkpt lat="47.13967" lon="-1.3578">
        <ele>6</ele>
        <time>2019-02-03T09:05:29Z</time>
      </trkpt>
      <trkpt lat="47.13951" lon="-1.35826">
        <ele>5</ele>
        <time>2019-02-03T09:05:35Z</time>
      </trkpt>
      <trkpt lat="47.13948" lon="-1.35834">
        <ele>5</ele>
        <time>2019-02-03T09:05:36Z</time>
      </trkpt>
      <trkpt lat="47.13935" lon="-1.35867">
        <ele>3</ele>
        <time>2019-02-03T09:05:40Z</time>
      </trkpt>
      <trkpt lat="47.13932" lon="-1.35874">
        <ele>4</ele>
        <time>2019-02-03T09:05:41Z</time>
      </trkpt>
      <trkpt lat="47.1393" lon="-1.35881">
        <ele>4</ele>
        <time>2019-02-03T09:05:42Z</time>
      </trkpt>
      <trkpt lat="47.13925" lon="-1.35897">
        <ele>4</ele>
        <time>2019-02-03T09:05:44Z</time>
      </trkpt>
      <trkpt lat="47.13923" lon="-1.35917">
        <ele>5</ele>
        <time>2019-02-03T09:05:47Z</time>
      </trkpt>
      <trkpt lat="47.13928" lon="-1.35923">
        <ele>5</ele>
        <time>2019-02-03T09:05:48Z</time>
      </trkpt>
      <trkpt lat="47.13932" lon="-1.35934">
        <ele>6</ele>
        <time>2019-02-03T09:05:50Z</time>
      </trkpt>
      <trkpt lat="47.13932" lon="-1.3594">
        <ele>7</ele>
        <time>2019-02-03T09:05:51Z</time>
      </trkpt>
      <trkpt lat="47.13931" lon="-1.35947">
        <ele>7</ele>
        <time>2019-02-03T09:05:52Z</time>
      </trkpt>
      <trkpt lat="47.1393" lon="-1.35954">
        <ele>7</ele>
        <time>2019-02-03T09:05:53Z</time>
      </trkpt>
      <trkpt lat="47.13929" lon="-1.35961">
        <ele>7</ele>
        <time>2019-02-03T09:05:54Z</time>
      </trkpt>
      <trkpt lat="47.13934" lon="-1.3597">
        <ele>7</ele>
        <time>2019-02-03T09:05:56Z</time>
      </trkpt>
      <trkpt lat="47.1394" lon="-1.35973">
        <ele>7</ele>
        <time>2019-02-03T09:05:58Z</time>
      </trkpt>
      <trkpt lat="47.13951" lon="-1.35976">
        <ele>8</ele>
        <time>2019-02-03T09:06:02Z</time>
      </trkpt>
      <trkpt lat="47.13957" lon="-1.35976">
        <ele>9</ele>
        <time>2019-02-03T09:06:04Z</time>
      </trkpt>
      <trkpt lat="47.13963" lon="-1.35972">
        <ele>10</ele>
        <time>2019-02-03T09:06:06Z</time>
      </trkpt>
      <trkpt lat="47.13993" lon="-1.35883">
        <ele>15</ele>
        <time>2019-02-03T09:06:28Z</time>
      </trkpt>
      <trkpt lat="47.13996" lon="-1.35877">
        <ele>16</ele>
        <time>2019-02-03T09:06:30Z</time>
      </trkpt>
      <trkpt lat="47.14" lon="-1.35871">
        <ele>17</ele>
        <time>2019-02-03T09:06:32Z</time>
      </trkpt>
      <trkpt lat="47.14004" lon="-1.35865">
        <ele>17</ele>
        <time>2019-02-03T09:06:34Z</time>
      </trkpt>
      <trkpt lat="47.14008" lon="-1.35858">
        <ele>18</ele>
        <time>2019-02-03T09:06:36Z</time>
      </trkpt>
      <trkpt lat="47.14012" lon="-1.35854">
        <ele>18</ele>
        <time>2019-02-03T09:06:38Z</time>
      </trkpt>
      <trkpt lat="47.1402" lon="-1.3585">
        <ele>20</ele>
        <time>2019-02-03T09:06:41Z</time>
      </trkpt>
      <trkpt lat="47.14026" lon="-1.35848">
        <ele>20</ele>
        <time>2019-02-03T09:06:42Z</time>
      </trkpt>
      <trkpt lat="47.1404" lon="-1.35847">
        <ele>21</ele>
        <time>2019-02-03T09:06:46Z</time>
      </trkpt>
      <trkpt lat="47.14048" lon="-1.35848">
        <ele>21</ele>
        <time>2019-02-03T09:06:48Z</time>
      </trkpt>
      <trkpt lat="47.1407" lon="-1.35846">
        <ele>22</ele>
        <time>2019-02-03T09:06:54Z</time>
      </trkpt>
      <trkpt lat="47.14077" lon="-1.35846">
        <ele>22</ele>
        <time>2019-02-03T09:06:56Z</time>
      </trkpt>
      <trkpt lat="47.14091" lon="-1.35843">
        <ele>22</ele>
        <time>2019-02-03T09:07:00Z</time>
      </trkpt>
      <trkpt lat="47.14099" lon="-1.35842">
        <ele>22</ele>
        <time>2019-02-03T09:07:02Z</time>
      </trkpt>
      <trkpt lat="47.14116" lon="-1.35843">
        <ele>23</ele>
        <time>2019-02-03T09:07:06Z</time>
      </trkpt>
      <trkpt lat="47.14124" lon="-1.35842">
        <ele>22</ele>
        <time>2019-02-03T09:07:08Z</time>
      </trkpt>
      <trkpt lat="47.14147" lon="-1.35842">
        <ele>21</ele>
        <time>2019-02-03T09:07:14Z</time>
      </trkpt>
      <trkpt lat="47.14153" lon="-1.35839">
        <ele>21</ele>
        <time>2019-02-03T09:07:16Z</time>
      </trkpt>
      <trkpt lat="47.1416" lon="-1.35835">
        <ele>20</ele>
        <time>2019-02-03T09:07:18Z</time>
      </trkpt>
      <trkpt lat="47.14168" lon="-1.35831">
        <ele>21</ele>
        <time>2019-02-03T09:07:20Z</time>
      </trkpt>
      <trkpt lat="47.14176" lon="-1.35827">
        <ele>22</ele>
        <time>2019-02-03T09:07:22Z</time>
      </trkpt>
      <trkpt lat="47.14191" lon="-1.35818">
        <ele>21</ele>
        <time>2019-02-03T09:07:26Z</time>
      </trkpt>
      <trkpt lat="47.14215" lon="-1.35815">
        <ele>23</ele>
        <time>2019-02-03T09:07:32Z</time>
      </trkpt>
      <trkpt lat="47.14223" lon="-1.35814">
        <ele>22</ele>
        <time>2019-02-03T09:07:34Z</time>
      </trkpt>
      <trkpt lat="47.14257" lon="-1.35808">
        <ele>24</ele>
        <time>2019-02-03T09:07:42Z</time>
      </trkpt>
      <trkpt lat="47.14282" lon="-1.35802">
        <ele>24</ele>
        <time>2019-02-03T09:07:48Z</time>
      </trkpt>
      <trkpt lat="47.1429" lon="-1.35801">
        <ele>25</ele>
        <time>2019-02-03T09:07:50Z</time>
      </trkpt>
      <trkpt lat="47.14299" lon="-1.35803">
        <ele>25</ele>
        <time>2019-02-03T09:07:52Z</time>
      </trkpt>
      <trkpt lat="47.14305" lon="-1.35804">
        <ele>26</ele>
        <time>2019-02-03T09:07:53Z</time>
      </trkpt>
      <trkpt lat="47.1431" lon="-1.35803">
        <ele>26</ele>
        <time>2019-02-03T09:07:54Z</time>
      </trkpt>
      <trkpt lat="47.14341" lon="-1.35789">
        <ele>27</ele>
        <time>2019-02-03T09:08:00Z</time>
      </trkpt>
      <trkpt lat="47.14347" lon="-1.35787">
        <ele>26</ele>
        <time>2019-02-03T09:08:01Z</time>
      </trkpt>
      <trkpt lat="47.14359" lon="-1.35782">
        <ele>26</ele>
        <time>2019-02-03T09:08:03Z</time>
      </trkpt>
      <trkpt lat="47.14365" lon="-1.3578">
        <ele>25</ele>
        <time>2019-02-03T09:08:04Z</time>
      </trkpt>
      <trkpt lat="47.14372" lon="-1.35778">
        <ele>26</ele>
        <time>2019-02-03T09:08:05Z</time>
      </trkpt>
      <trkpt lat="47.14394" lon="-1.35786">
        <ele>23</ele>
        <time>2019-02-03T09:08:09Z</time>
      </trkpt>
      <trkpt lat="47.14438" lon="-1.35783">
        <ele>21</ele>
        <time>2019-02-03T09:08:17Z</time>
      </trkpt>
      <trkpt lat="47.14453" lon="-1.3579">
        <ele>22</ele>
        <time>2019-02-03T09:08:21Z</time>
      </trkpt>
      <trkpt lat="47.14459" lon="-1.35796">
        <ele>22</ele>
        <time>2019-02-03T09:08:23Z</time>
      </trkpt>
      <trkpt lat="47.14464" lon="-1.35803">
        <ele>22</ele>
        <time>2019-02-03T09:08:25Z</time>
      </trkpt>
      <trkpt lat="47.14471" lon="-1.35821">
        <ele>24</ele>
        <time>2019-02-03T09:08:29Z</time>
      </trkpt>
      <trkpt lat="47.14476" lon="-1.35826">
        <ele>24</ele>
        <time>2019-02-03T09:08:31Z</time>
      </trkpt>
      <trkpt lat="47.14481" lon="-1.35826">
        <ele>25</ele>
        <time>2019-02-03T09:08:33Z</time>
      </trkpt>
      <trkpt lat="47.14497" lon="-1.35814">
        <ele>27</ele>
        <time>2019-02-03T09:08:39Z</time>
      </trkpt>
      <trkpt lat="47.14504" lon="-1.35811">
        <ele>27</ele>
        <time>2019-02-03T09:08:41Z</time>
      </trkpt>
      <trkpt lat="47.14517" lon="-1.35804">
        <ele>28</ele>
        <time>2019-02-03T09:08:45Z</time>
      </trkpt>
      <trkpt lat="47.14523" lon="-1.358">
        <ele>28</ele>
        <time>2019-02-03T09:08:47Z</time>
      </trkpt>
      <trkpt lat="47.1455" lon="-1.35782">
        <ele>29</ele>
        <time>2019-02-03T09:08:55Z</time>
      </trkpt>
      <trkpt lat="47.14556" lon="-1.35777">
        <ele>30</ele>
        <time>2019-02-03T09:08:57Z</time>
      </trkpt>
      <trkpt lat="47.14562" lon="-1.35772">
        <ele>29</ele>
        <time>2019-02-03T09:08:59Z</time>
      </trkpt>
      <trkpt lat="47.14568" lon="-1.35766">
        <ele>29</ele>
        <time>2019-02-03T09:09:01Z</time>
      </trkpt>
      <trkpt lat="47.14588" lon="-1.35745">
        <ele>31</ele>
        <time>2019-02-03T09:09:07Z</time>
      </trkpt>
      <trkpt lat="47.14595" lon="-1.35738">
        <ele>30</ele>
        <time>2019-02-03T09:09:09Z</time>
      </trkpt>
      <trkpt lat="47.14608" lon="-1.35721">
        <ele>31</ele>
        <time>2019-02-03T09:09:13Z</time>
      </trkpt>
      <trkpt lat="47.14621" lon="-1.35703">
        <ele>30</ele>
        <time>2019-02-03T09:09:17Z</time>
      </trkpt>
      <trkpt lat="47.14625" lon="-1.357">
        <ele>30</ele>
        <time>2019-02-03T09:09:18Z</time>
      </trkpt>
      <trkpt lat="47.14729" lon="-1.35571">
        <ele>30</ele>
        <time>2019-02-03T09:09:49Z</time>
      </trkpt>
      <trkpt lat="47.14735" lon="-1.35565">
        <ele>30</ele>
        <time>2019-02-03T09:09:51Z</time>
      </trkpt>
      <trkpt lat="47.14739" lon="-1.35558">
        <ele>30</ele>
        <time>2019-02-03T09:09:53Z</time>
      </trkpt>
      <trkpt lat="47.14737" lon="-1.35536">
        <ele>29</ele>
        <time>2019-02-03T09:09:57Z</time>
      </trkpt>
      <trkpt lat="47.14737" lon="-1.35522">
        <ele>29</ele>
        <time>2019-02-03T09:09:59Z</time>
      </trkpt>
      <trkpt lat="47.14741" lon="-1.35516">
        <ele>29</ele>
        <time>2019-02-03T09:10:00Z</time>
      </trkpt>
      <trkpt lat="47.14746" lon="-1.35513">
        <ele>28</ele>
        <time>2019-02-03T09:10:01Z</time>
      </trkpt>
      <trkpt lat="47.14758" lon="-1.35499">
        <ele>29</ele>
        <time>2019-02-03T09:10:04Z</time>
      </trkpt>
      <trkpt lat="47.14761" lon="-1.35494">
        <ele>28</ele>
        <time>2019-02-03T09:10:05Z</time>
      </trkpt>
      <trkpt lat="47.14765" lon="-1.3549">
        <ele>28</ele>
        <time>2019-02-03T09:10:06Z</time>
      </trkpt>
      <trkpt lat="47.14773" lon="-1.35488">
        <ele>28</ele>
        <time>2019-02-03T09:10:08Z</time>
      </trkpt>
      <trkpt lat="47.14779" lon="-1.35493">
        <ele>28</ele>
        <time>2019-02-03T09:10:10Z</time>
      </trkpt>
      <trkpt lat="47.14782" lon="-1.355">
        <ele>28</ele>
        <time>2019-02-03T09:10:12Z</time>
      </trkpt>
      <trkpt lat="47.14825" lon="-1.35588">
        <ele>29</ele>
        <time>2019-02-03T09:10:30Z</time>
      </trkpt>
      <trkpt lat="47.14829" lon="-1.35595">
        <ele>29</ele>
        <time>2019-02-03T09:10:32Z</time>
      </trkpt>
      <trkpt lat="47.14831" lon="-1.35601">
        <ele>29</ele>
        <time>2019-02-03T09:10:34Z</time>
      </trkpt>
      <trkpt lat="47.14834" lon="-1.35609">
        <ele>29</ele>
        <time>2019-02-03T09:10:37Z</time>
      </trkpt>
      <trkpt lat="47.14844" lon="-1.35625">
        <ele>30</ele>
        <time>2019-02-03T09:10:43Z</time>
      </trkpt>
      <trkpt lat="47.14848" lon="-1.35631">
        <ele>30</ele>
        <time>2019-02-03T09:10:45Z</time>
      </trkpt>
      <trkpt lat="47.14852" lon="-1.35638">
        <ele>31</ele>
        <time>2019-02-03T09:10:47Z</time>
      </trkpt>
      <trkpt lat="47.14856" lon="-1.35645">
        <ele>31</ele>
        <time>2019-02-03T09:10:49Z</time>
      </trkpt>
      <trkpt lat="47.14859" lon="-1.35652">
        <ele>32</ele>
        <time>2019-02-03T09:10:51Z</time>
      </trkpt>
      <trkpt lat="47.14883" lon="-1.35699">
        <ele>33</ele>
        <time>2019-02-03T09:11:03Z</time>
      </trkpt>
      <trkpt lat="47.14888" lon="-1.35708">
        <ele>33</ele>
        <time>2019-02-03T09:11:05Z</time>
      </trkpt>
      <trkpt lat="47.14961" lon="-1.35866">
        <ele>33</ele>
        <time>2019-02-03T09:11:35Z</time>
      </trkpt>
      <trkpt lat="47.15049" lon="-1.3604">
        <ele>33</ele>
        <time>2019-02-03T09:12:02Z</time>
      </trkpt>
      <trkpt lat="47.15056" lon="-1.3604">
        <ele>33</ele>
        <time>2019-02-03T09:12:04Z</time>
      </trkpt>
      <trkpt lat="47.15062" lon="-1.36034">
        <ele>33</ele>
        <time>2019-02-03T09:12:06Z</time>
      </trkpt>
      <trkpt lat="47.15069" lon="-1.36027">
        <ele>33</ele>
        <time>2019-02-03T09:12:08Z</time>
      </trkpt>
      <trkpt lat="47.15074" lon="-1.36026">
        <ele>33</ele>
        <time>2019-02-03T09:12:09Z</time>
      </trkpt>
      <trkpt lat="47.1508" lon="-1.36028">
        <ele>33</ele>
        <time>2019-02-03T09:12:10Z</time>
      </trkpt>
      <trkpt lat="47.15084" lon="-1.36033">
        <ele>33</ele>
        <time>2019-02-03T09:12:11Z</time>
      </trkpt>
      <trkpt lat="47.15139" lon="-1.36167">
        <ele>32</ele>
        <time>2019-02-03T09:12:29Z</time>
      </trkpt>
      <trkpt lat="47.15147" lon="-1.36178">
        <ele>32</ele>
        <time>2019-02-03T09:12:31Z</time>
      </trkpt>
      <trkpt lat="47.15164" lon="-1.36186">
        <ele>32</ele>
        <time>2019-02-03T09:12:34Z</time>
      </trkpt>
      <trkpt lat="47.15174" lon="-1.36188">
        <ele>32</ele>
        <time>2019-02-03T09:12:36Z</time>
      </trkpt>
      <trkpt lat="47.15179" lon="-1.3619">
        <ele>32</ele>
        <time>2019-02-03T09:12:37Z</time>
      </trkpt>
      <trkpt lat="47.152" lon="-1.36195">
        <ele>33</ele>
        <time>2019-02-03T09:12:41Z</time>
      </trkpt>
      <trkpt lat="47.15215" lon="-1.36199">
        <ele>32</ele>
        <time>2019-02-03T09:12:44Z</time>
      </trkpt>
      <trkpt lat="47.15308" lon="-1.36224">
        <ele>35</ele>
        <time>2019-02-03T09:13:03Z</time>
      </trkpt>
      <trkpt lat="47.15313" lon="-1.36225">
        <ele>34</ele>
        <time>2019-02-03T09:13:04Z</time>
      </trkpt>
      <trkpt lat="47.15368" lon="-1.36243">
        <ele>35</ele>
        <time>2019-02-03T09:13:15Z</time>
      </trkpt>
      <trkpt lat="47.15373" lon="-1.36245">
        <ele>35</ele>
        <time>2019-02-03T09:13:16Z</time>
      </trkpt>
      <trkpt lat="47.15388" lon="-1.36251">
        <ele>35</ele>
        <time>2019-02-03T09:13:19Z</time>
      </trkpt>
      <trkpt lat="47.15393" lon="-1.36253">
        <ele>35</ele>
        <time>2019-02-03T09:13:20Z</time>
      </trkpt>
      <trkpt lat="47.15405" lon="-1.36257">
        <ele>35</ele>
        <time>2019-02-03T09:13:22Z</time>
      </trkpt>
      <trkpt lat="47.1541" lon="-1.36259">
        <ele>35</ele>
        <time>2019-02-03T09:13:23Z</time>
      </trkpt>
      <trkpt lat="47.15414" lon="-1.36261">
        <ele>35</ele>
        <time>2019-02-03T09:13:24Z</time>
      </trkpt>
      <trkpt lat="47.15419" lon="-1.36262">
        <ele>34</ele>
        <time>2019-02-03T09:13:25Z</time>
      </trkpt>
      <trkpt lat="47.15439" lon="-1.3627">
        <ele>36</ele>
        <time>2019-02-03T09:13:29Z</time>
      </trkpt>
      <trkpt lat="47.15481" lon="-1.36287">
        <ele>33</ele>
        <time>2019-02-03T09:13:38Z</time>
      </trkpt>
      <trkpt lat="47.15486" lon="-1.36289">
        <ele>32</ele>
        <time>2019-02-03T09:13:40Z</time>
      </trkpt>
      <trkpt lat="47.15492" lon="-1.36292">
        <ele>32</ele>
        <time>2019-02-03T09:13:41Z</time>
      </trkpt>
      <trkpt lat="47.15508" lon="-1.36297">
        <ele>32</ele>
        <time>2019-02-03T09:13:44Z</time>
      </trkpt>
      <trkpt lat="47.15514" lon="-1.36299">
        <ele>33</ele>
        <time>2019-02-03T09:13:45Z</time>
      </trkpt>
      <trkpt lat="47.15521" lon="-1.36294">
        <ele>33</ele>
        <time>2019-02-03T09:13:46Z</time>
      </trkpt>
      <trkpt lat="47.15541" lon="-1.36301">
        <ele>34</ele>
        <time>2019-02-03T09:13:50Z</time>
      </trkpt>
      <trkpt lat="47.15547" lon="-1.36303">
        <ele>33</ele>
        <time>2019-02-03T09:13:51Z</time>
      </trkpt>
      <trkpt lat="47.15558" lon="-1.36308">
        <ele>33</ele>
        <time>2019-02-03T09:13:53Z</time>
      </trkpt>
      <trkpt lat="47.15562" lon="-1.36311">
        <ele>34</ele>
        <time>2019-02-03T09:13:54Z</time>
      </trkpt>
      <trkpt lat="47.15572" lon="-1.36315">
        <ele>33</ele>
        <time>2019-02-03T09:13:56Z</time>
      </trkpt>
      <trkpt lat="47.15583" lon="-1.36316">
        <ele>33</ele>
        <time>2019-02-03T09:13:58Z</time>
      </trkpt>
      <trkpt lat="47.15589" lon="-1.36315">
        <ele>32</ele>
        <time>2019-02-03T09:13:59Z</time>
      </trkpt>
      <trkpt lat="47.15611" lon="-1.36308">
        <ele>33</ele>
        <time>2019-02-03T09:14:03Z</time>
      </trkpt>
      <trkpt lat="47.15616" lon="-1.36304">
        <ele>32</ele>
        <time>2019-02-03T09:14:04Z</time>
      </trkpt>
      <trkpt lat="47.15642" lon="-1.363">
        <ele>30</ele>
        <time>2019-02-03T09:14:09Z</time>
      </trkpt>
      <trkpt lat="47.15653" lon="-1.36305">
        <ele>29</ele>
        <time>2019-02-03T09:14:11Z</time>
      </trkpt>
      <trkpt lat="47.15685" lon="-1.36332">
        <ele>30</ele>
        <time>2019-02-03T09:14:17Z</time>
      </trkpt>
      <trkpt lat="47.15691" lon="-1.36335">
        <ele>30</ele>
        <time>2019-02-03T09:14:18Z</time>
      </trkpt>
      <trkpt lat="47.15703" lon="-1.36343">
        <ele>30</ele>
        <time>2019-02-03T09:14:20Z</time>
      </trkpt>
      <trkpt lat="47.15713" lon="-1.36353">
        <ele>30</ele>
        <time>2019-02-03T09:14:22Z</time>
      </trkpt>
      <trkpt lat="47.15719" lon="-1.36358">
        <ele>30</ele>
        <time>2019-02-03T09:14:23Z</time>
      </trkpt>
      <trkpt lat="47.15725" lon="-1.36362">
        <ele>30</ele>
        <time>2019-02-03T09:14:24Z</time>
      </trkpt>
      <trkpt lat="47.1575" lon="-1.36382">
        <ele>30</ele>
        <time>2019-02-03T09:14:28Z</time>
      </trkpt>
      <trkpt lat="47.15785" lon="-1.36413">
        <ele>29</ele>
        <time>2019-02-03T09:14:34Z</time>
      </trkpt>
      <trkpt lat="47.15791" lon="-1.36418">
        <ele>27</ele>
        <time>2019-02-03T09:14:35Z</time>
      </trkpt>
      <trkpt lat="47.1585" lon="-1.36462">
        <ele>26</ele>
        <time>2019-02-03T09:14:45Z</time>
      </trkpt>
      <trkpt lat="47.15856" lon="-1.36464">
        <ele>25</ele>
        <time>2019-02-03T09:14:46Z</time>
      </trkpt>
      <trkpt lat="47.15862" lon="-1.36465">
        <ele>26</ele>
        <time>2019-02-03T09:14:47Z</time>
      </trkpt>
      <trkpt lat="47.15868" lon="-1.36467">
        <ele>25</ele>
        <time>2019-02-03T09:14:48Z</time>
      </trkpt>
      <trkpt lat="47.15875" lon="-1.36469">
        <ele>25</ele>
        <time>2019-02-03T09:14:49Z</time>
      </trkpt>
      <trkpt lat="47.15958" lon="-1.36509">
        <ele>24</ele>
        <time>2019-02-03T09:15:02Z</time>
      </trkpt>
      <trkpt lat="47.15963" lon="-1.36512">
        <ele>23</ele>
        <time>2019-02-03T09:15:03Z</time>
      </trkpt>
      <trkpt lat="47.1597" lon="-1.36515">
        <ele>24</ele>
        <time>2019-02-03T09:15:04Z</time>
      </trkpt>
      <trkpt lat="47.15995" lon="-1.36523">
        <ele>23</ele>
        <time>2019-02-03T09:15:08Z</time>
      </trkpt>
      <trkpt lat="47.16001" lon="-1.36522">
        <ele>23</ele>
        <time>2019-02-03T09:15:09Z</time>
      </trkpt>
      <trkpt lat="47.16069" lon="-1.3651">
        <ele>22</ele>
        <time>2019-02-03T09:15:20Z</time>
      </trkpt>
      <trkpt lat="47.16082" lon="-1.36506">
        <ele>23</ele>
        <time>2019-02-03T09:15:22Z</time>
      </trkpt>
      <trkpt lat="47.16087" lon="-1.36501">
        <ele>23</ele>
        <time>2019-02-03T09:15:23Z</time>
      </trkpt>
      <trkpt lat="47.16093" lon="-1.36498">
        <ele>23</ele>
        <time>2019-02-03T09:15:24Z</time>
      </trkpt>
      <trkpt lat="47.16104" lon="-1.36489">
        <ele>23</ele>
        <time>2019-02-03T09:15:26Z</time>
      </trkpt>
      <trkpt lat="47.16108" lon="-1.36483">
        <ele>22</ele>
        <time>2019-02-03T09:15:27Z</time>
      </trkpt>
      <trkpt lat="47.16119" lon="-1.36474">
        <ele>22</ele>
        <time>2019-02-03T09:15:29Z</time>
      </trkpt>
      <trkpt lat="47.16125" lon="-1.36472">
        <ele>22</ele>
        <time>2019-02-03T09:15:30Z</time>
      </trkpt>
      <trkpt lat="47.16131" lon="-1.36471">
        <ele>22</ele>
        <time>2019-02-03T09:15:31Z</time>
      </trkpt>
      <trkpt lat="47.16136" lon="-1.36475">
        <ele>21</ele>
        <time>2019-02-03T09:15:32Z</time>
      </trkpt>
      <trkpt lat="47.16146" lon="-1.36484">
        <ele>21</ele>
        <time>2019-02-03T09:15:34Z</time>
      </trkpt>
      <trkpt lat="47.16155" lon="-1.36497">
        <ele>21</ele>
        <time>2019-02-03T09:15:36Z</time>
      </trkpt>
      <trkpt lat="47.16158" lon="-1.36504">
        <ele>20</ele>
        <time>2019-02-03T09:15:37Z</time>
      </trkpt>
      <trkpt lat="47.1617" lon="-1.36525">
        <ele>20</ele>
        <time>2019-02-03T09:15:40Z</time>
      </trkpt>
      <trkpt lat="47.16177" lon="-1.36549">
        <ele>19</ele>
        <time>2019-02-03T09:15:43Z</time>
      </trkpt>
      <trkpt lat="47.16182" lon="-1.36581">
        <ele>20</ele>
        <time>2019-02-03T09:15:47Z</time>
      </trkpt>
      <trkpt lat="47.16184" lon="-1.3659">
        <ele>20</ele>
        <time>2019-02-03T09:15:48Z</time>
      </trkpt>
      <trkpt lat="47.16186" lon="-1.36599">
        <ele>21</ele>
        <time>2019-02-03T09:15:49Z</time>
      </trkpt>
      <trkpt lat="47.16187" lon="-1.36608">
        <ele>21</ele>
        <time>2019-02-03T09:15:50Z</time>
      </trkpt>
      <trkpt lat="47.16188" lon="-1.36615">
        <ele>21</ele>
        <time>2019-02-03T09:15:51Z</time>
      </trkpt>
      <trkpt lat="47.16229" lon="-1.36801">
        <ele>19</ele>
        <time>2019-02-03T09:16:13Z</time>
      </trkpt>
      <trkpt lat="47.16229" lon="-1.3681">
        <ele>19</ele>
        <time>2019-02-03T09:16:14Z</time>
      </trkpt>
      <trkpt lat="47.16225" lon="-1.36817">
        <ele>19</ele>
        <time>2019-02-03T09:16:15Z</time>
      </trkpt>
      <trkpt lat="47.16221" lon="-1.36823">
        <ele>19</ele>
        <time>2019-02-03T09:16:16Z</time>
      </trkpt>
      <trkpt lat="47.16188" lon="-1.36834">
        <ele>19</ele>
        <time>2019-02-03T09:16:22Z</time>
      </trkpt>
      <trkpt lat="47.16167" lon="-1.3685">
        <ele>19</ele>
        <time>2019-02-03T09:16:26Z</time>
      </trkpt>
      <trkpt lat="47.16162" lon="-1.36854">
        <ele>19</ele>
        <time>2019-02-03T09:16:27Z</time>
      </trkpt>
      <trkpt lat="47.16008" lon="-1.36989">
        <ele>18</ele>
        <time>2019-02-03T09:16:58Z</time>
      </trkpt>
      <trkpt lat="47.15897" lon="-1.37066">
        <ele>21</ele>
        <time>2019-02-03T09:17:21Z</time>
      </trkpt>
      <trkpt lat="47.15878" lon="-1.37076">
        <ele>21</ele>
        <time>2019-02-03T09:17:25Z</time>
      </trkpt>
      <trkpt lat="47.15868" lon="-1.37081">
        <ele>21</ele>
        <time>2019-02-03T09:17:27Z</time>
      </trkpt>
      <trkpt lat="47.15863" lon="-1.37083">
        <ele>21</ele>
        <time>2019-02-03T09:17:28Z</time>
      </trkpt>
      <trkpt lat="47.15819" lon="-1.37111">
        <ele>21</ele>
        <time>2019-02-03T09:17:38Z</time>
      </trkpt>
      <trkpt lat="47.15817" lon="-1.37117">
        <ele>21</ele>
        <time>2019-02-03T09:17:39Z</time>
      </trkpt>
      <trkpt lat="47.15817" lon="-1.37124">
        <ele>21</ele>
        <time>2019-02-03T09:17:40Z</time>
      </trkpt>
      <trkpt lat="47.15819" lon="-1.37131">
        <ele>21</ele>
        <time>2019-02-03T09:17:41Z</time>
      </trkpt>
      <trkpt lat="47.15847" lon="-1.37186">
        <ele>21</ele>
        <time>2019-02-03T09:17:50Z</time>
      </trkpt>
      <trkpt lat="47.15886" lon="-1.37348">
        <ele>25</ele>
        <time>2019-02-03T09:18:13Z</time>
      </trkpt>
      <trkpt lat="47.15888" lon="-1.37354">
        <ele>24</ele>
        <time>2019-02-03T09:18:14Z</time>
      </trkpt>
      <trkpt lat="47.15889" lon="-1.37362">
        <ele>25</ele>
        <time>2019-02-03T09:18:15Z</time>
      </trkpt>
      <trkpt lat="47.15892" lon="-1.37382">
        <ele>24</ele>
        <time>2019-02-03T09:18:18Z</time>
      </trkpt>
      <trkpt lat="47.15894" lon="-1.3739">
        <ele>24</ele>
        <time>2019-02-03T09:18:19Z</time>
      </trkpt>
      <trkpt lat="47.15895" lon="-1.37397">
        <ele>24</ele>
        <time>2019-02-03T09:18:20Z</time>
      </trkpt>
      <trkpt lat="47.15897" lon="-1.37404">
        <ele>23</ele>
        <time>2019-02-03T09:18:21Z</time>
      </trkpt>
      <trkpt lat="47.15899" lon="-1.37411">
        <ele>23</ele>
        <time>2019-02-03T09:18:22Z</time>
      </trkpt>
      <trkpt lat="47.15902" lon="-1.37426">
        <ele>23</ele>
        <time>2019-02-03T09:18:24Z</time>
      </trkpt>
      <trkpt lat="47.15903" lon="-1.37433">
        <ele>23</ele>
        <time>2019-02-03T09:18:25Z</time>
      </trkpt>
      <trkpt lat="47.15906" lon="-1.37446">
        <ele>23</ele>
        <time>2019-02-03T09:18:27Z</time>
      </trkpt>
      <trkpt lat="47.15908" lon="-1.37459">
        <ele>22</ele>
        <time>2019-02-03T09:18:29Z</time>
      </trkpt>
      <trkpt lat="47.15901" lon="-1.37473">
        <ele>23</ele>
        <time>2019-02-03T09:18:31Z</time>
      </trkpt>
      <trkpt lat="47.15894" lon="-1.37485">
        <ele>22</ele>
        <time>2019-02-03T09:18:33Z</time>
      </trkpt>
      <trkpt lat="47.1589" lon="-1.37491">
        <ele>22</ele>
        <time>2019-02-03T09:18:34Z</time>
      </trkpt>
      <trkpt lat="47.15881" lon="-1.37511">
        <ele>23</ele>
        <time>2019-02-03T09:18:37Z</time>
      </trkpt>
      <trkpt lat="47.15863" lon="-1.37578">
        <ele>23</ele>
        <time>2019-02-03T09:18:47Z</time>
      </trkpt>
      <trkpt lat="47.15863" lon="-1.37586">
        <ele>23</ele>
        <time>2019-02-03T09:18:48Z</time>
      </trkpt>
      <trkpt lat="47.15861" lon="-1.37593">
        <ele>23</ele>
        <time>2019-02-03T09:18:49Z</time>
      </trkpt>
      <trkpt lat="47.15857" lon="-1.37606">
        <ele>22</ele>
        <time>2019-02-03T09:18:51Z</time>
      </trkpt>
      <trkpt lat="47.15855" lon="-1.37613">
        <ele>22</ele>
        <time>2019-02-03T09:18:52Z</time>
      </trkpt>
      <trkpt lat="47.15853" lon="-1.37619">
        <ele>22</ele>
        <time>2019-02-03T09:18:53Z</time>
      </trkpt>
      <trkpt lat="47.15832" lon="-1.37639">
        <ele>22</ele>
        <time>2019-02-03T09:18:59Z</time>
      </trkpt>
      <trkpt lat="47.15825" lon="-1.37636">
        <ele>22</ele>
        <time>2019-02-03T09:19:02Z</time>
      </trkpt>
      <trkpt lat="47.15821" lon="-1.37627">
        <ele>23</ele>
        <time>2019-02-03T09:19:04Z</time>
      </trkpt>
      <trkpt lat="47.15818" lon="-1.37619">
        <ele>23</ele>
        <time>2019-02-03T09:19:06Z</time>
      </trkpt>
      <trkpt lat="47.15816" lon="-1.37612">
        <ele>22</ele>
        <time>2019-02-03T09:19:08Z</time>
      </trkpt>
      <trkpt lat="47.1581" lon="-1.37597">
        <ele>22</ele>
        <time>2019-02-03T09:19:12Z</time>
      </trkpt>
      <trkpt lat="47.15805" lon="-1.37584">
        <ele>24</ele>
        <time>2019-02-03T09:19:16Z</time>
      </trkpt>
      <trkpt lat="47.15801" lon="-1.37578">
        <ele>24</ele>
        <time>2019-02-03T09:19:18Z</time>
      </trkpt>
      <trkpt lat="47.15799" lon="-1.37573">
        <ele>23</ele>
        <time>2019-02-03T09:19:20Z</time>
      </trkpt>
      <trkpt lat="47.15793" lon="-1.37561">
        <ele>24</ele>
        <time>2019-02-03T09:19:24Z</time>
      </trkpt>
      <trkpt lat="47.15788" lon="-1.37547">
        <ele>23</ele>
        <time>2019-02-03T09:19:29Z</time>
      </trkpt>
      <trkpt lat="47.15782" lon="-1.37535">
        <ele>25</ele>
        <time>2019-02-03T09:19:33Z</time>
      </trkpt>
      <trkpt lat="47.15779" lon="-1.37529">
        <ele>25</ele>
        <time>2019-02-03T09:19:35Z</time>
      </trkpt>
      <trkpt lat="47.15776" lon="-1.37521">
        <ele>25</ele>
        <time>2019-02-03T09:19:37Z</time>
      </trkpt>
      <trkpt lat="47.1577" lon="-1.37508">
        <ele>25</ele>
        <time>2019-02-03T09:19:41Z</time>
      </trkpt>
      <trkpt lat="47.15765" lon="-1.37495">
        <ele>26</ele>
        <time>2019-02-03T09:19:45Z</time>
      </trkpt>
      <trkpt lat="47.15759" lon="-1.37485">
        <ele>26</ele>
        <time>2019-02-03T09:19:49Z</time>
      </trkpt>
      <trkpt lat="47.15757" lon="-1.37479">
        <ele>27</ele>
        <time>2019-02-03T09:19:51Z</time>
      </trkpt>
      <trkpt lat="47.15746" lon="-1.37456">
        <ele>27</ele>
        <time>2019-02-03T09:19:59Z</time>
      </trkpt>
      <trkpt lat="47.15743" lon="-1.37451">
        <ele>28</ele>
        <time>2019-02-03T09:20:01Z</time>
      </trkpt>
      <trkpt lat="47.15704" lon="-1.37463">
        <ele>28</ele>
        <time>2019-02-03T09:20:31Z</time>
      </trkpt>
      <trkpt lat="47.15693" lon="-1.37468">
        <ele>28</ele>
        <time>2019-02-03T09:20:35Z</time>
      </trkpt>
      <trkpt lat="47.15688" lon="-1.3747">
        <ele>29</ele>
        <time>2019-02-03T09:20:37Z</time>
      </trkpt>
      <trkpt lat="47.15683" lon="-1.37472">
        <ele>29</ele>
        <time>2019-02-03T09:20:39Z</time>
      </trkpt>
      <trkpt lat="47.15674" lon="-1.37476">
        <ele>29</ele>
        <time>2019-02-03T09:20:43Z</time>
      </trkpt>
      <trkpt lat="47.15626" lon="-1.37491">
        <ele>32</ele>
        <time>2019-02-03T09:21:01Z</time>
      </trkpt>
      <trkpt lat="47.15622" lon="-1.37494">
        <ele>32</ele>
        <time>2019-02-03T09:21:03Z</time>
      </trkpt>
      <trkpt lat="47.15576" lon="-1.37514">
        <ele>35</ele>
        <time>2019-02-03T09:21:21Z</time>
      </trkpt>
      <trkpt lat="47.15571" lon="-1.37516">
        <ele>35</ele>
        <time>2019-02-03T09:21:23Z</time>
      </trkpt>
      <trkpt lat="47.15549" lon="-1.37525">
        <ele>36</ele>
        <time>2019-02-03T09:21:31Z</time>
      </trkpt>
      <trkpt lat="47.15544" lon="-1.37529">
        <ele>37</ele>
        <time>2019-02-03T09:21:33Z</time>
      </trkpt>
      <trkpt lat="47.15541" lon="-1.37535">
        <ele>37</ele>
        <time>2019-02-03T09:21:35Z</time>
      </trkpt>
      <trkpt lat="47.15543" lon="-1.37553">
        <ele>37</ele>
        <time>2019-02-03T09:21:39Z</time>
      </trkpt>
      <trkpt lat="47.15546" lon="-1.37561">
        <ele>37</ele>
        <time>2019-02-03T09:21:41Z</time>
      </trkpt>
      <trkpt lat="47.15564" lon="-1.37593">
        <ele>39</ele>
        <time>2019-02-03T09:21:49Z</time>
      </trkpt>
      <trkpt lat="47.15577" lon="-1.37609">
        <ele>38</ele>
        <time>2019-02-03T09:21:53Z</time>
      </trkpt>
      <trkpt lat="47.15582" lon="-1.37619">
        <ele>38</ele>
        <time>2019-02-03T09:21:55Z</time>
      </trkpt>
      <trkpt lat="47.15587" lon="-1.3763">
        <ele>38</ele>
        <time>2019-02-03T09:21:57Z</time>
      </trkpt>
      <trkpt lat="47.15588" lon="-1.37637">
        <ele>37</ele>
        <time>2019-02-03T09:21:58Z</time>
      </trkpt>
      <trkpt lat="47.15595" lon="-1.37655">
        <ele>38</ele>
        <time>2019-02-03T09:22:01Z</time>
      </trkpt>
      <trkpt lat="47.15614" lon="-1.37756">
        <ele>38</ele>
        <time>2019-02-03T09:22:18Z</time>
      </trkpt>
      <trkpt lat="47.15612" lon="-1.37767">
        <ele>38</ele>
        <time>2019-02-03T09:22:20Z</time>
      </trkpt>
      <trkpt lat="47.15608" lon="-1.37773">
        <ele>38</ele>
        <time>2019-02-03T09:22:22Z</time>
      </trkpt>
      <trkpt lat="47.15523" lon="-1.37769">
        <ele>42</ele>
        <time>2019-02-03T09:22:52Z</time>
      </trkpt>
      <trkpt lat="47.15473" lon="-1.37776">
        <ele>44</ele>
        <time>2019-02-03T09:23:10Z</time>
      </trkpt>
      <trkpt lat="47.15467" lon="-1.37777">
        <ele>44</ele>
        <time>2019-02-03T09:23:12Z</time>
      </trkpt>
      <trkpt lat="47.15462" lon="-1.37779">
        <ele>44</ele>
        <time>2019-02-03T09:23:14Z</time>
      </trkpt>
      <trkpt lat="47.15459" lon="-1.37784">
        <ele>44</ele>
        <time>2019-02-03T09:23:16Z</time>
      </trkpt>
      <trkpt lat="47.15463" lon="-1.378">
        <ele>45</ele>
        <time>2019-02-03T09:23:21Z</time>
      </trkpt>
      <trkpt lat="47.1552" lon="-1.37937">
        <ele>47</ele>
        <time>2019-02-03T09:23:53Z</time>
      </trkpt>
      <trkpt lat="47.15537" lon="-1.37982">
        <ele>47</ele>
        <time>2019-02-03T09:24:03Z</time>
      </trkpt>
      <trkpt lat="47.1554" lon="-1.3799">
        <ele>47</ele>
        <time>2019-02-03T09:24:05Z</time>
      </trkpt>
      <trkpt lat="47.1554" lon="-1.37998">
        <ele>47</ele>
        <time>2019-02-03T09:24:07Z</time>
      </trkpt>
      <trkpt lat="47.15537" lon="-1.38007">
        <ele>47</ele>
        <time>2019-02-03T09:24:10Z</time>
      </trkpt>
      <trkpt lat="47.15503" lon="-1.38031">
        <ele>49</ele>
        <time>2019-02-03T09:24:22Z</time>
      </trkpt>
      <trkpt lat="47.15492" lon="-1.38039">
        <ele>49</ele>
        <time>2019-02-03T09:24:26Z</time>
      </trkpt>
      <trkpt lat="47.15474" lon="-1.38052">
        <ele>50</ele>
        <time>2019-02-03T09:24:32Z</time>
      </trkpt>
      <trkpt lat="47.15411" lon="-1.38103">
        <ele>50</ele>
        <time>2019-02-03T09:24:52Z</time>
      </trkpt>
      <trkpt lat="47.15334" lon="-1.38249">
        <ele>50</ele>
        <time>2019-02-03T09:25:22Z</time>
      </trkpt>
      <trkpt lat="47.1533" lon="-1.38258">
        <ele>50</ele>
        <time>2019-02-03T09:25:24Z</time>
      </trkpt>
      <trkpt lat="47.15325" lon="-1.38268">
        <ele>50</ele>
        <time>2019-02-03T09:25:26Z</time>
      </trkpt>
      <trkpt lat="47.15321" lon="-1.38277">
        <ele>50</ele>
        <time>2019-02-03T09:25:28Z</time>
      </trkpt>
      <trkpt lat="47.15306" lon="-1.38304">
        <ele>49</ele>
        <time>2019-02-03T09:25:34Z</time>
      </trkpt>
      <trkpt lat="47.15301" lon="-1.38314">
        <ele>49</ele>
        <time>2019-02-03T09:25:36Z</time>
      </trkpt>
      <trkpt lat="47.15296" lon="-1.38324">
        <ele>48</ele>
        <time>2019-02-03T09:25:38Z</time>
      </trkpt>
      <trkpt lat="47.15288" lon="-1.38339">
        <ele>49</ele>
        <time>2019-02-03T09:25:41Z</time>
      </trkpt>
      <trkpt lat="47.15283" lon="-1.38349">
        <ele>50</ele>
        <time>2019-02-03T09:25:43Z</time>
      </trkpt>
      <trkpt lat="47.15247" lon="-1.38414">
        <ele>52</ele>
        <time>2019-02-03T09:25:56Z</time>
      </trkpt>
      <trkpt lat="47.15242" lon="-1.38423">
        <ele>53</ele>
        <time>2019-02-03T09:25:58Z</time>
      </trkpt>
      <trkpt lat="47.15227" lon="-1.38453">
        <ele>53</ele>
        <time>2019-02-03T09:26:04Z</time>
      </trkpt>
      <trkpt lat="47.15222" lon="-1.38463">
        <ele>53</ele>
        <time>2019-02-03T09:26:06Z</time>
      </trkpt>
      <trkpt lat="47.15218" lon="-1.38473">
        <ele>53</ele>
        <time>2019-02-03T09:26:08Z</time>
      </trkpt>
      <trkpt lat="47.15214" lon="-1.38483">
        <ele>53</ele>
        <time>2019-02-03T09:26:10Z</time>
      </trkpt>
      <trkpt lat="47.15216" lon="-1.38496">
        <ele>51</ele>
        <time>2019-02-03T09:26:12Z</time>
      </trkpt>
      <trkpt lat="47.15219" lon="-1.38507">
        <ele>52</ele>
        <time>2019-02-03T09:26:14Z</time>
      </trkpt>
      <trkpt lat="47.15229" lon="-1.38526">
        <ele>53</ele>
        <time>2019-02-03T09:26:18Z</time>
      </trkpt>
      <trkpt lat="47.15232" lon="-1.38532">
        <ele>53</ele>
        <time>2019-02-03T09:26:19Z</time>
      </trkpt>
      <trkpt lat="47.15238" lon="-1.38541">
        <ele>55</ele>
        <time>2019-02-03T09:26:21Z</time>
      </trkpt>
      <trkpt lat="47.15242" lon="-1.3855">
        <ele>55</ele>
        <time>2019-02-03T09:26:23Z</time>
      </trkpt>
      <trkpt lat="47.15247" lon="-1.38558">
        <ele>54</ele>
        <time>2019-02-03T09:26:25Z</time>
      </trkpt>
      <trkpt lat="47.15253" lon="-1.38568">
        <ele>54</ele>
        <time>2019-02-03T09:26:27Z</time>
      </trkpt>
      <trkpt lat="47.15274" lon="-1.38582">
        <ele>54</ele>
        <time>2019-02-03T09:26:33Z</time>
      </trkpt>
      <trkpt lat="47.15281" lon="-1.38587">
        <ele>56</ele>
        <time>2019-02-03T09:26:35Z</time>
      </trkpt>
      <trkpt lat="47.15288" lon="-1.38591">
        <ele>56</ele>
        <time>2019-02-03T09:26:37Z</time>
      </trkpt>
      <trkpt lat="47.15311" lon="-1.38605">
        <ele>57</ele>
        <time>2019-02-03T09:26:43Z</time>
      </trkpt>
      <trkpt lat="47.1534" lon="-1.38625">
        <ele>56</ele>
        <time>2019-02-03T09:26:51Z</time>
      </trkpt>
      <trkpt lat="47.15348" lon="-1.38628">
        <ele>57</ele>
        <time>2019-02-03T09:26:53Z</time>
      </trkpt>
      <trkpt lat="47.15366" lon="-1.38633">
        <ele>56</ele>
        <time>2019-02-03T09:26:57Z</time>
      </trkpt>
      <trkpt lat="47.15393" lon="-1.38633">
        <ele>56</ele>
        <time>2019-02-03T09:27:03Z</time>
      </trkpt>
      <trkpt lat="47.15398" lon="-1.38633">
        <ele>56</ele>
        <time>2019-02-03T09:27:04Z</time>
      </trkpt>
      <trkpt lat="47.15408" lon="-1.38631">
        <ele>56</ele>
        <time>2019-02-03T09:27:06Z</time>
      </trkpt>
      <trkpt lat="47.15418" lon="-1.3863">
        <ele>55</ele>
        <time>2019-02-03T09:27:08Z</time>
      </trkpt>
      <trkpt lat="47.15427" lon="-1.38628">
        <ele>55</ele>
        <time>2019-02-03T09:27:10Z</time>
      </trkpt>
      <trkpt lat="47.15578" lon="-1.3858">
        <ele>52</ele>
        <time>2019-02-03T09:27:36Z</time>
      </trkpt>
      <trkpt lat="47.15608" lon="-1.38582">
        <ele>51</ele>
        <time>2019-02-03T09:27:41Z</time>
      </trkpt>
      <trkpt lat="47.15651" lon="-1.38576">
        <ele>48</ele>
        <time>2019-02-03T09:27:48Z</time>
      </trkpt>
      <trkpt lat="47.15667" lon="-1.38571">
        <ele>46</ele>
        <time>2019-02-03T09:27:52Z</time>
      </trkpt>
      <trkpt lat="47.15673" lon="-1.38566">
        <ele>45</ele>
        <time>2019-02-03T09:27:55Z</time>
      </trkpt>
      <trkpt lat="47.1568" lon="-1.38561">
        <ele>45</ele>
        <time>2019-02-03T09:27:57Z</time>
      </trkpt>
      <trkpt lat="47.15689" lon="-1.38556">
        <ele>43</ele>
        <time>2019-02-03T09:27:59Z</time>
      </trkpt>
      <trkpt lat="47.15695" lon="-1.38558">
        <ele>43</ele>
        <time>2019-02-03T09:28:00Z</time>
      </trkpt>
      <trkpt lat="47.157" lon="-1.38564">
        <ele>43</ele>
        <time>2019-02-03T09:28:01Z</time>
      </trkpt>
      <trkpt lat="47.15702" lon="-1.38572">
        <ele>43</ele>
        <time>2019-02-03T09:28:02Z</time>
      </trkpt>
      <trkpt lat="47.15702" lon="-1.3858">
        <ele>43</ele>
        <time>2019-02-03T09:28:03Z</time>
      </trkpt>
      <trkpt lat="47.15692" lon="-1.38625">
        <ele>44</ele>
        <time>2019-02-03T09:28:09Z</time>
      </trkpt>
      <trkpt lat="47.15691" lon="-1.38673">
        <ele>45</ele>
        <time>2019-02-03T09:28:17Z</time>
      </trkpt>
      <trkpt lat="47.15702" lon="-1.3874">
        <ele>46</ele>
        <time>2019-02-03T09:28:29Z</time>
      </trkpt>
      <trkpt lat="47.15704" lon="-1.38752">
        <ele>46</ele>
        <time>2019-02-03T09:28:31Z</time>
      </trkpt>
      <trkpt lat="47.15708" lon="-1.38779">
        <ele>46</ele>
        <time>2019-02-03T09:28:35Z</time>
      </trkpt>
      <trkpt lat="47.15717" lon="-1.38872">
        <ele>43</ele>
        <time>2019-02-03T09:28:47Z</time>
      </trkpt>
      <trkpt lat="47.15723" lon="-1.39029">
        <ele>41</ele>
        <time>2019-02-03T09:29:07Z</time>
      </trkpt>
      <trkpt lat="47.15772" lon="-1.39259">
        <ele>41</ele>
        <time>2019-02-03T09:29:38Z</time>
      </trkpt>
      <trkpt lat="47.15813" lon="-1.39369">
        <ele>40</ele>
        <time>2019-02-03T09:29:54Z</time>
      </trkpt>
      <trkpt lat="47.15817" lon="-1.39373">
        <ele>39</ele>
        <time>2019-02-03T09:29:55Z</time>
      </trkpt>
      <trkpt lat="47.15823" lon="-1.39374">
        <ele>39</ele>
        <time>2019-02-03T09:29:56Z</time>
      </trkpt>
      <trkpt lat="47.15834" lon="-1.3937">
        <ele>39</ele>
        <time>2019-02-03T09:29:58Z</time>
      </trkpt>
      <trkpt lat="47.16055" lon="-1.39263">
        <ele>29</ele>
        <time>2019-02-03T09:30:29Z</time>
      </trkpt>
      <trkpt lat="47.1608" lon="-1.39254">
        <ele>28</ele>
        <time>2019-02-03T09:30:32Z</time>
      </trkpt>
      <trkpt lat="47.16086" lon="-1.39247">
        <ele>27</ele>
        <time>2019-02-03T09:30:33Z</time>
      </trkpt>
      <trkpt lat="47.16104" lon="-1.39235">
        <ele>27</ele>
        <time>2019-02-03T09:30:36Z</time>
      </trkpt>
      <trkpt lat="47.16111" lon="-1.39233">
        <ele>27</ele>
        <time>2019-02-03T09:30:37Z</time>
      </trkpt>
      <trkpt lat="47.16134" lon="-1.39225">
        <ele>26</ele>
        <time>2019-02-03T09:30:41Z</time>
      </trkpt>
      <trkpt lat="47.16139" lon="-1.39233">
        <ele>25</ele>
        <time>2019-02-03T09:30:43Z</time>
      </trkpt>
      <trkpt lat="47.16143" lon="-1.39252">
        <ele>25</ele>
        <time>2019-02-03T09:30:46Z</time>
      </trkpt>
      <trkpt lat="47.16152" lon="-1.3932">
        <ele>23</ele>
        <time>2019-02-03T09:30:55Z</time>
      </trkpt>
      <trkpt lat="47.16154" lon="-1.39327">
        <ele>24</ele>
        <time>2019-02-03T09:30:56Z</time>
      </trkpt>
      <trkpt lat="47.16164" lon="-1.39373">
        <ele>22</ele>
        <time>2019-02-03T09:31:02Z</time>
      </trkpt>
      <trkpt lat="47.16173" lon="-1.39428">
        <ele>23</ele>
        <time>2019-02-03T09:31:09Z</time>
      </trkpt>
      <trkpt lat="47.16176" lon="-1.39449">
        <ele>21</ele>
        <time>2019-02-03T09:31:12Z</time>
      </trkpt>
      <trkpt lat="47.16177" lon="-1.39457">
        <ele>22</ele>
        <time>2019-02-03T09:31:13Z</time>
      </trkpt>
      <trkpt lat="47.16179" lon="-1.39471">
        <ele>21</ele>
        <time>2019-02-03T09:31:15Z</time>
      </trkpt>
      <trkpt lat="47.16178" lon="-1.39478">
        <ele>22</ele>
        <time>2019-02-03T09:31:16Z</time>
      </trkpt>
      <trkpt lat="47.1618" lon="-1.39504">
        <ele>21</ele>
        <time>2019-02-03T09:31:20Z</time>
      </trkpt>
      <trkpt lat="47.16182" lon="-1.39512">
        <ele>20</ele>
        <time>2019-02-03T09:31:22Z</time>
      </trkpt>
      <trkpt lat="47.16186" lon="-1.39521">
        <ele>21</ele>
        <time>2019-02-03T09:31:26Z</time>
      </trkpt>
      <trkpt lat="47.16189" lon="-1.39531">
        <ele>20</ele>
        <time>2019-02-03T09:31:28Z</time>
      </trkpt>
      <trkpt lat="47.16195" lon="-1.39549">
        <ele>20</ele>
        <time>2019-02-03T09:31:31Z</time>
      </trkpt>
      <trkpt lat="47.16206" lon="-1.39569">
        <ele>20</ele>
        <time>2019-02-03T09:31:34Z</time>
      </trkpt>
      <trkpt lat="47.16209" lon="-1.39576">
        <ele>19</ele>
        <time>2019-02-03T09:31:35Z</time>
      </trkpt>
      <trkpt lat="47.16212" lon="-1.39583">
        <ele>19</ele>
        <time>2019-02-03T09:31:36Z</time>
      </trkpt>
      <trkpt lat="47.16216" lon="-1.39596">
        <ele>20</ele>
        <time>2019-02-03T09:31:38Z</time>
      </trkpt>
      <trkpt lat="47.16218" lon="-1.39603">
        <ele>20</ele>
        <time>2019-02-03T09:31:39Z</time>
      </trkpt>
      <trkpt lat="47.16222" lon="-1.39621">
        <ele>21</ele>
        <time>2019-02-03T09:31:42Z</time>
      </trkpt>
      <trkpt lat="47.16221" lon="-1.39633">
        <ele>21</ele>
        <time>2019-02-03T09:31:44Z</time>
      </trkpt>
      <trkpt lat="47.16212" lon="-1.39654">
        <ele>22</ele>
        <time>2019-02-03T09:31:48Z</time>
      </trkpt>
      <trkpt lat="47.16194" lon="-1.39687">
        <ele>23</ele>
        <time>2019-02-03T09:31:56Z</time>
      </trkpt>
      <trkpt lat="47.16186" lon="-1.39704">
        <ele>23</ele>
        <time>2019-02-03T09:32:00Z</time>
      </trkpt>
      <trkpt lat="47.16156" lon="-1.39762">
        <ele>25</ele>
        <time>2019-02-03T09:32:16Z</time>
      </trkpt>
      <trkpt lat="47.16154" lon="-1.39769">
        <ele>26</ele>
        <time>2019-02-03T09:32:18Z</time>
      </trkpt>
      <trkpt lat="47.16155" lon="-1.39777">
        <ele>26</ele>
        <time>2019-02-03T09:32:21Z</time>
      </trkpt>
      <trkpt lat="47.16165" lon="-1.39787">
        <ele>26</ele>
        <time>2019-02-03T09:32:25Z</time>
      </trkpt>
      <trkpt lat="47.1617" lon="-1.39795">
        <ele>27</ele>
        <time>2019-02-03T09:32:27Z</time>
      </trkpt>
      <trkpt lat="47.16185" lon="-1.39839">
        <ele>28</ele>
        <time>2019-02-03T09:32:37Z</time>
      </trkpt>
      <trkpt lat="47.16189" lon="-1.39846">
        <ele>28</ele>
        <time>2019-02-03T09:32:39Z</time>
      </trkpt>
      <trkpt lat="47.16195" lon="-1.39852">
        <ele>29</ele>
        <time>2019-02-03T09:32:41Z</time>
      </trkpt>
      <trkpt lat="47.16296" lon="-1.39976">
        <ele>28</ele>
        <time>2019-02-03T09:33:11Z</time>
      </trkpt>
      <trkpt lat="47.16309" lon="-1.39989">
        <ele>29</ele>
        <time>2019-02-03T09:33:14Z</time>
      </trkpt>
      <trkpt lat="47.16362" lon="-1.4004">
        <ele>27</ele>
        <time>2019-02-03T09:33:26Z</time>
      </trkpt>
      <trkpt lat="47.16367" lon="-1.40044">
        <ele>27</ele>
        <time>2019-02-03T09:33:27Z</time>
      </trkpt>
      <trkpt lat="47.16436" lon="-1.40073">
        <ele>25</ele>
        <time>2019-02-03T09:33:43Z</time>
      </trkpt>
      <trkpt lat="47.16441" lon="-1.40077">
        <ele>24</ele>
        <time>2019-02-03T09:33:44Z</time>
      </trkpt>
      <trkpt lat="47.16445" lon="-1.40082">
        <ele>24</ele>
        <time>2019-02-03T09:33:45Z</time>
      </trkpt>
      <trkpt lat="47.1647" lon="-1.40112">
        <ele>25</ele>
        <time>2019-02-03T09:33:51Z</time>
      </trkpt>
      <trkpt lat="47.16486" lon="-1.40135">
        <ele>25</ele>
        <time>2019-02-03T09:33:55Z</time>
      </trkpt>
      <trkpt lat="47.16489" lon="-1.4014">
        <ele>25</ele>
        <time>2019-02-03T09:33:56Z</time>
      </trkpt>
      <trkpt lat="47.16492" lon="-1.40146">
        <ele>25</ele>
        <time>2019-02-03T09:33:57Z</time>
      </trkpt>
      <trkpt lat="47.16496" lon="-1.40152">
        <ele>25</ele>
        <time>2019-02-03T09:33:58Z</time>
      </trkpt>
      <trkpt lat="47.16502" lon="-1.40165">
        <ele>24</ele>
        <time>2019-02-03T09:34:00Z</time>
      </trkpt>
      <trkpt lat="47.16506" lon="-1.40171">
        <ele>23</ele>
        <time>2019-02-03T09:34:01Z</time>
      </trkpt>
      <trkpt lat="47.1651" lon="-1.40177">
        <ele>24</ele>
        <time>2019-02-03T09:34:02Z</time>
      </trkpt>
      <trkpt lat="47.16539" lon="-1.40223">
        <ele>24</ele>
        <time>2019-02-03T09:34:10Z</time>
      </trkpt>
      <trkpt lat="47.16545" lon="-1.40246">
        <ele>24</ele>
        <time>2019-02-03T09:34:14Z</time>
      </trkpt>
      <trkpt lat="47.16547" lon="-1.40259">
        <ele>23</ele>
        <time>2019-02-03T09:34:16Z</time>
      </trkpt>
      <trkpt lat="47.16546" lon="-1.40265">
        <ele>23</ele>
        <time>2019-02-03T09:34:17Z</time>
      </trkpt>
      <trkpt lat="47.16533" lon="-1.40285">
        <ele>23</ele>
        <time>2019-02-03T09:34:21Z</time>
      </trkpt>
      <trkpt lat="47.16525" lon="-1.40296">
        <ele>24</ele>
        <time>2019-02-03T09:34:23Z</time>
      </trkpt>
      <trkpt lat="47.1652" lon="-1.40314">
        <ele>24</ele>
        <time>2019-02-03T09:34:26Z</time>
      </trkpt>
      <trkpt lat="47.16519" lon="-1.40326">
        <ele>24</ele>
        <time>2019-02-03T09:34:28Z</time>
      </trkpt>
      <trkpt lat="47.16528" lon="-1.40372">
        <ele>26</ele>
        <time>2019-02-03T09:34:36Z</time>
      </trkpt>
      <trkpt lat="47.16538" lon="-1.40403">
        <ele>27</ele>
        <time>2019-02-03T09:34:42Z</time>
      </trkpt>
      <trkpt lat="47.16543" lon="-1.40424">
        <ele>27</ele>
        <time>2019-02-03T09:34:46Z</time>
      </trkpt>
      <trkpt lat="47.16545" lon="-1.40467">
        <ele>28</ele>
        <time>2019-02-03T09:34:54Z</time>
      </trkpt>
      <trkpt lat="47.16538" lon="-1.40527">
        <ele>31</ele>
        <time>2019-02-03T09:35:06Z</time>
      </trkpt>
      <trkpt lat="47.16526" lon="-1.40625">
        <ele>33</ele>
        <time>2019-02-03T09:35:32Z</time>
      </trkpt>
      <trkpt lat="47.16526" lon="-1.40633">
        <ele>34</ele>
        <time>2019-02-03T09:35:34Z</time>
      </trkpt>
      <trkpt lat="47.16524" lon="-1.40649">
        <ele>34</ele>
        <time>2019-02-03T09:35:38Z</time>
      </trkpt>
      <trkpt lat="47.16523" lon="-1.40672">
        <ele>34</ele>
        <time>2019-02-03T09:35:44Z</time>
      </trkpt>
      <trkpt lat="47.16521" lon="-1.40703">
        <ele>37</ele>
        <time>2019-02-03T09:35:52Z</time>
      </trkpt>
      <trkpt lat="47.16521" lon="-1.40711">
        <ele>37</ele>
        <time>2019-02-03T09:35:54Z</time>
      </trkpt>
      <trkpt lat="47.1652" lon="-1.40719">
        <ele>38</ele>
        <time>2019-02-03T09:35:56Z</time>
      </trkpt>
      <trkpt lat="47.16519" lon="-1.40727">
        <ele>38</ele>
        <time>2019-02-03T09:35:58Z</time>
      </trkpt>
      <trkpt lat="47.16519" lon="-1.40743">
        <ele>38</ele>
        <time>2019-02-03T09:36:02Z</time>
      </trkpt>
      <trkpt lat="47.16519" lon="-1.40758">
        <ele>39</ele>
        <time>2019-02-03T09:36:06Z</time>
      </trkpt>
      <trkpt lat="47.16517" lon="-1.40774">
        <ele>39</ele>
        <time>2019-02-03T09:36:10Z</time>
      </trkpt>
      <trkpt lat="47.16517" lon="-1.4079">
        <ele>40</ele>
        <time>2019-02-03T09:36:14Z</time>
      </trkpt>
      <trkpt lat="47.16514" lon="-1.40853">
        <ele>39</ele>
        <time>2019-02-03T09:36:28Z</time>
      </trkpt>
      <trkpt lat="47.16514" lon="-1.40862">
        <ele>40</ele>
        <time>2019-02-03T09:36:30Z</time>
      </trkpt>
      <trkpt lat="47.16513" lon="-1.40871">
        <ele>41</ele>
        <time>2019-02-03T09:36:32Z</time>
      </trkpt>
      <trkpt lat="47.16512" lon="-1.40879">
        <ele>41</ele>
        <time>2019-02-03T09:36:34Z</time>
      </trkpt>
      <trkpt lat="47.16516" lon="-1.40885">
        <ele>42</ele>
        <time>2019-02-03T09:36:36Z</time>
      </trkpt>
      <trkpt lat="47.16522" lon="-1.40887">
        <ele>42</ele>
        <time>2019-02-03T09:36:38Z</time>
      </trkpt>
      <trkpt lat="47.16556" lon="-1.40891">
        <ele>41</ele>
        <time>2019-02-03T09:36:48Z</time>
      </trkpt>
      <trkpt lat="47.16579" lon="-1.40901">
        <ele>40</ele>
        <time>2019-02-03T09:36:54Z</time>
      </trkpt>
      <trkpt lat="47.16588" lon="-1.40904">
        <ele>40</ele>
        <time>2019-02-03T09:36:56Z</time>
      </trkpt>
      <trkpt lat="47.16596" lon="-1.40906">
        <ele>40</ele>
        <time>2019-02-03T09:36:58Z</time>
      </trkpt>
      <trkpt lat="47.16614" lon="-1.40913">
        <ele>39</ele>
        <time>2019-02-03T09:37:02Z</time>
      </trkpt>
      <trkpt lat="47.16618" lon="-1.40915">
        <ele>39</ele>
        <time>2019-02-03T09:37:03Z</time>
      </trkpt>
      <trkpt lat="47.1664" lon="-1.40924">
        <ele>38</ele>
        <time>2019-02-03T09:37:08Z</time>
      </trkpt>
      <trkpt lat="47.16649" lon="-1.40927">
        <ele>38</ele>
        <time>2019-02-03T09:37:10Z</time>
      </trkpt>
      <trkpt lat="47.16658" lon="-1.4093">
        <ele>38</ele>
        <time>2019-02-03T09:37:12Z</time>
      </trkpt>
      <trkpt lat="47.16662" lon="-1.40932">
        <ele>38</ele>
        <time>2019-02-03T09:37:13Z</time>
      </trkpt>
      <trkpt lat="47.16729" lon="-1.40955">
        <ele>37</ele>
        <time>2019-02-03T09:37:27Z</time>
      </trkpt>
      <trkpt lat="47.16739" lon="-1.40954">
        <ele>37</ele>
        <time>2019-02-03T09:37:29Z</time>
      </trkpt>
      <trkpt lat="47.16743" lon="-1.40952">
        <ele>37</ele>
        <time>2019-02-03T09:37:30Z</time>
      </trkpt>
      <trkpt lat="47.16747" lon="-1.40949">
        <ele>37</ele>
        <time>2019-02-03T09:37:31Z</time>
      </trkpt>
      <trkpt lat="47.16763" lon="-1.40938">
        <ele>37</ele>
        <time>2019-02-03T09:37:34Z</time>
      </trkpt>
      <trkpt lat="47.16769" lon="-1.40934">
        <ele>37</ele>
        <time>2019-02-03T09:37:35Z</time>
      </trkpt>
      <trkpt lat="47.16803" lon="-1.40912">
        <ele>35</ele>
        <time>2019-02-03T09:37:41Z</time>
      </trkpt>
      <trkpt lat="47.1681" lon="-1.40908">
        <ele>35</ele>
        <time>2019-02-03T09:37:42Z</time>
      </trkpt>
      <trkpt lat="47.16836" lon="-1.40893">
        <ele>35</ele>
        <time>2019-02-03T09:37:46Z</time>
      </trkpt>
      <trkpt lat="47.16843" lon="-1.4089">
        <ele>34</ele>
        <time>2019-02-03T09:37:47Z</time>
      </trkpt>
      <trkpt lat="47.16853" lon="-1.40882">
        <ele>34</ele>
        <time>2019-02-03T09:37:49Z</time>
      </trkpt>
      <trkpt lat="47.16865" lon="-1.40876">
        <ele>33</ele>
        <time>2019-02-03T09:37:51Z</time>
      </trkpt>
      <trkpt lat="47.1687" lon="-1.40872">
        <ele>33</ele>
        <time>2019-02-03T09:37:52Z</time>
      </trkpt>
      <trkpt lat="47.1688" lon="-1.40864">
        <ele>33</ele>
        <time>2019-02-03T09:37:54Z</time>
      </trkpt>
      <trkpt lat="47.16923" lon="-1.40828">
        <ele>30</ele>
        <time>2019-02-03T09:38:03Z</time>
      </trkpt>
      <trkpt lat="47.16929" lon="-1.40826">
        <ele>30</ele>
        <time>2019-02-03T09:38:04Z</time>
      </trkpt>
      <trkpt lat="47.16934" lon="-1.40824">
        <ele>30</ele>
        <time>2019-02-03T09:38:05Z</time>
      </trkpt>
      <trkpt lat="47.16941" lon="-1.40825">
        <ele>31</ele>
        <time>2019-02-03T09:38:07Z</time>
      </trkpt>
      <trkpt lat="47.16947" lon="-1.40833">
        <ele>31</ele>
        <time>2019-02-03T09:38:09Z</time>
      </trkpt>
      <trkpt lat="47.16969" lon="-1.40874">
        <ele>30</ele>
        <time>2019-02-03T09:38:16Z</time>
      </trkpt>
      <trkpt lat="47.16972" lon="-1.4088">
        <ele>30</ele>
        <time>2019-02-03T09:38:17Z</time>
      </trkpt>
      <trkpt lat="47.17044" lon="-1.4099">
        <ele>29</ele>
        <time>2019-02-03T09:38:37Z</time>
      </trkpt>
      <trkpt lat="47.17049" lon="-1.40996">
        <ele>30</ele>
        <time>2019-02-03T09:38:39Z</time>
      </trkpt>
      <trkpt lat="47.17146" lon="-1.41144">
        <ele>28</ele>
        <time>2019-02-03T09:39:10Z</time>
      </trkpt>
      <trkpt lat="47.17193" lon="-1.41229">
        <ele>26</ele>
        <time>2019-02-03T09:39:27Z</time>
      </trkpt>
      <trkpt lat="47.17196" lon="-1.41239">
        <ele>26</ele>
        <time>2019-02-03T09:39:29Z</time>
      </trkpt>
      <trkpt lat="47.17193" lon="-1.4125">
        <ele>26</ele>
        <time>2019-02-03T09:39:31Z</time>
      </trkpt>
      <trkpt lat="47.1719" lon="-1.41254">
        <ele>26</ele>
        <time>2019-02-03T09:39:32Z</time>
      </trkpt>
      <trkpt lat="47.1717" lon="-1.41265">
        <ele>25</ele>
        <time>2019-02-03T09:39:35Z</time>
      </trkpt>
      <trkpt lat="47.17133" lon="-1.41271">
        <ele>24</ele>
        <time>2019-02-03T09:39:42Z</time>
      </trkpt>
      <trkpt lat="47.17051" lon="-1.41306">
        <ele>24</ele>
        <time>2019-02-03T09:40:01Z</time>
      </trkpt>
      <trkpt lat="47.17044" lon="-1.41307">
        <ele>25</ele>
        <time>2019-02-03T09:40:03Z</time>
      </trkpt>
      <trkpt lat="47.17044" lon="-1.41313">
        <ele>26</ele>
        <time>2019-02-03T09:40:08Z</time>
      </trkpt>
      <trkpt lat="47.17058" lon="-1.41306">
        <ele>24</ele>
        <time>2019-02-03T09:40:11Z</time>
      </trkpt>
      <trkpt lat="47.17087" lon="-1.41293">
        <ele>24</ele>
        <time>2019-02-03T09:40:16Z</time>
      </trkpt>
      <trkpt lat="47.17092" lon="-1.41291">
        <ele>24</ele>
        <time>2019-02-03T09:40:17Z</time>
      </trkpt>
      <trkpt lat="47.17098" lon="-1.41289">
        <ele>24</ele>
        <time>2019-02-03T09:40:18Z</time>
      </trkpt>
      <trkpt lat="47.17104" lon="-1.41287">
        <ele>25</ele>
        <time>2019-02-03T09:40:19Z</time>
      </trkpt>
      <trkpt lat="47.17121" lon="-1.41278">
        <ele>24</ele>
        <time>2019-02-03T09:40:22Z</time>
      </trkpt>
      <trkpt lat="47.17132" lon="-1.41273">
        <ele>24</ele>
        <time>2019-02-03T09:40:24Z</time>
      </trkpt>
      <trkpt lat="47.17152" lon="-1.41264">
        <ele>23</ele>
        <time>2019-02-03T09:40:28Z</time>
      </trkpt>
      <trkpt lat="47.17161" lon="-1.41261">
        <ele>24</ele>
        <time>2019-02-03T09:40:30Z</time>
      </trkpt>
      <trkpt lat="47.17166" lon="-1.4126">
        <ele>24</ele>
        <time>2019-02-03T09:40:31Z</time>
      </trkpt>
      <trkpt lat="47.17171" lon="-1.41258">
        <ele>24</ele>
        <time>2019-02-03T09:40:32Z</time>
      </trkpt>
      <trkpt lat="47.17176" lon="-1.41256">
        <ele>24</ele>
        <time>2019-02-03T09:40:33Z</time>
      </trkpt>
      <trkpt lat="47.1718" lon="-1.41254">
        <ele>24</ele>
        <time>2019-02-03T09:40:34Z</time>
      </trkpt>
      <trkpt lat="47.17192" lon="-1.41246">
        <ele>25</ele>
        <time>2019-02-03T09:40:37Z</time>
      </trkpt>
      <trkpt lat="47.17199" lon="-1.41242">
        <ele>26</ele>
        <time>2019-02-03T09:40:39Z</time>
      </trkpt>
      <trkpt lat="47.1721" lon="-1.41243">
        <ele>26</ele>
        <time>2019-02-03T09:40:43Z</time>
      </trkpt>
      <trkpt lat="47.17215" lon="-1.41242">
        <ele>27</ele>
        <time>2019-02-03T09:40:45Z</time>
      </trkpt>
      <trkpt lat="47.17225" lon="-1.41236">
        <ele>27</ele>
        <time>2019-02-03T09:40:49Z</time>
      </trkpt>
      <trkpt lat="47.17231" lon="-1.41233">
        <ele>27</ele>
        <time>2019-02-03T09:40:51Z</time>
      </trkpt>
      <trkpt lat="47.17261" lon="-1.41229">
        <ele>26</ele>
        <time>2019-02-03T09:40:58Z</time>
      </trkpt>
      <trkpt lat="47.17268" lon="-1.41228">
        <ele>27</ele>
        <time>2019-02-03T09:41:00Z</time>
      </trkpt>
      <trkpt lat="47.17284" lon="-1.41225">
        <ele>27</ele>
        <time>2019-02-03T09:41:04Z</time>
      </trkpt>
      <trkpt lat="47.17291" lon="-1.41225">
        <ele>27</ele>
        <time>2019-02-03T09:41:06Z</time>
      </trkpt>
      <trkpt lat="47.17296" lon="-1.41237">
        <ele>28</ele>
        <time>2019-02-03T09:41:08Z</time>
      </trkpt>
      <trkpt lat="47.17306" lon="-1.41273">
        <ele>26</ele>
        <time>2019-02-03T09:41:14Z</time>
      </trkpt>
      <trkpt lat="47.17308" lon="-1.41282">
        <ele>26</ele>
        <time>2019-02-03T09:41:16Z</time>
      </trkpt>
      <trkpt lat="47.1731" lon="-1.41314">
        <ele>26</ele>
        <time>2019-02-03T09:41:22Z</time>
      </trkpt>
      <trkpt lat="47.17311" lon="-1.41327">
        <ele>25</ele>
        <time>2019-02-03T09:41:24Z</time>
      </trkpt>
      <trkpt lat="47.17316" lon="-1.41374">
        <ele>25</ele>
        <time>2019-02-03T09:41:31Z</time>
      </trkpt>
      <trkpt lat="47.17318" lon="-1.41381">
        <ele>25</ele>
        <time>2019-02-03T09:41:32Z</time>
      </trkpt>
      <trkpt lat="47.1732" lon="-1.41388">
        <ele>25</ele>
        <time>2019-02-03T09:41:33Z</time>
      </trkpt>
      <trkpt lat="47.17323" lon="-1.41402">
        <ele>26</ele>
        <time>2019-02-03T09:41:35Z</time>
      </trkpt>
      <trkpt lat="47.17327" lon="-1.41417">
        <ele>26</ele>
        <time>2019-02-03T09:41:37Z</time>
      </trkpt>
      <trkpt lat="47.17339" lon="-1.41458">
        <ele>25</ele>
        <time>2019-02-03T09:41:43Z</time>
      </trkpt>
      <trkpt lat="47.17364" lon="-1.41514">
        <ele>23</ele>
        <time>2019-02-03T09:41:52Z</time>
      </trkpt>
      <trkpt lat="47.17372" lon="-1.41534">
        <ele>23</ele>
        <time>2019-02-03T09:41:55Z</time>
      </trkpt>
      <trkpt lat="47.17381" lon="-1.41553">
        <ele>22</ele>
        <time>2019-02-03T09:41:58Z</time>
      </trkpt>
      <trkpt lat="47.17396" lon="-1.41578">
        <ele>22</ele>
        <time>2019-02-03T09:42:02Z</time>
      </trkpt>
      <trkpt lat="47.174" lon="-1.41584">
        <ele>22</ele>
        <time>2019-02-03T09:42:03Z</time>
      </trkpt>
      <trkpt lat="47.17415" lon="-1.41612">
        <ele>22</ele>
        <time>2019-02-03T09:42:07Z</time>
      </trkpt>
      <trkpt lat="47.17419" lon="-1.41619">
        <ele>22</ele>
        <time>2019-02-03T09:42:08Z</time>
      </trkpt>
      <trkpt lat="47.17423" lon="-1.41625">
        <ele>22</ele>
        <time>2019-02-03T09:42:09Z</time>
      </trkpt>
      <trkpt lat="47.17485" lon="-1.41767">
        <ele>21</ele>
        <time>2019-02-03T09:42:40Z</time>
      </trkpt>
      <trkpt lat="47.17489" lon="-1.41774">
        <ele>22</ele>
        <time>2019-02-03T09:42:42Z</time>
      </trkpt>
      <trkpt lat="47.17496" lon="-1.41792">
        <ele>23</ele>
        <time>2019-02-03T09:42:46Z</time>
      </trkpt>
      <trkpt lat="47.175" lon="-1.41801">
        <ele>22</ele>
        <time>2019-02-03T09:42:48Z</time>
      </trkpt>
      <trkpt lat="47.17504" lon="-1.4181">
        <ele>22</ele>
        <time>2019-02-03T09:42:50Z</time>
      </trkpt>
      <trkpt lat="47.17507" lon="-1.41819">
        <ele>21</ele>
        <time>2019-02-03T09:42:52Z</time>
      </trkpt>
      <trkpt lat="47.17511" lon="-1.41826">
        <ele>22</ele>
        <time>2019-02-03T09:42:54Z</time>
      </trkpt>
      <trkpt lat="47.17513" lon="-1.41833">
        <ele>22</ele>
        <time>2019-02-03T09:42:56Z</time>
      </trkpt>
      <trkpt lat="47.17519" lon="-1.41846">
        <ele>21</ele>
        <time>2019-02-03T09:43:00Z</time>
      </trkpt>
      <trkpt lat="47.17523" lon="-1.41853">
        <ele>21</ele>
        <time>2019-02-03T09:43:02Z</time>
      </trkpt>
      <trkpt lat="47.1753" lon="-1.41868">
        <ele>22</ele>
        <time>2019-02-03T09:43:06Z</time>
      </trkpt>
      <trkpt lat="47.17538" lon="-1.41883">
        <ele>22</ele>
        <time>2019-02-03T09:43:10Z</time>
      </trkpt>
      <trkpt lat="47.17541" lon="-1.4189">
        <ele>22</ele>
        <time>2019-02-03T09:43:12Z</time>
      </trkpt>
      <trkpt lat="47.17553" lon="-1.41913">
        <ele>21</ele>
        <time>2019-02-03T09:43:18Z</time>
      </trkpt>
      <trkpt lat="47.17556" lon="-1.4192">
        <ele>21</ele>
        <time>2019-02-03T09:43:20Z</time>
      </trkpt>
      <trkpt lat="47.1756" lon="-1.41926">
        <ele>22</ele>
        <time>2019-02-03T09:43:22Z</time>
      </trkpt>
      <trkpt lat="47.1757" lon="-1.41946">
        <ele>23</ele>
        <time>2019-02-03T09:43:28Z</time>
      </trkpt>
      <trkpt lat="47.17573" lon="-1.41952">
        <ele>22</ele>
        <time>2019-02-03T09:43:30Z</time>
      </trkpt>
      <trkpt lat="47.17585" lon="-1.41979">
        <ele>23</ele>
        <time>2019-02-03T09:43:38Z</time>
      </trkpt>
      <trkpt lat="47.17635" lon="-1.42122">
        <ele>24</ele>
        <time>2019-02-03T09:44:10Z</time>
      </trkpt>
      <trkpt lat="47.17639" lon="-1.42132">
        <ele>24</ele>
        <time>2019-02-03T09:44:12Z</time>
      </trkpt>
      <trkpt lat="47.17643" lon="-1.42141">
        <ele>24</ele>
        <time>2019-02-03T09:44:14Z</time>
      </trkpt>
      <trkpt lat="47.17647" lon="-1.4215">
        <ele>24</ele>
        <time>2019-02-03T09:44:16Z</time>
      </trkpt>
      <trkpt lat="47.17651" lon="-1.42159">
        <ele>25</ele>
        <time>2019-02-03T09:44:18Z</time>
      </trkpt>
      <trkpt lat="47.17665" lon="-1.42193">
        <ele>25</ele>
        <time>2019-02-03T09:44:26Z</time>
      </trkpt>
      <trkpt lat="47.17684" lon="-1.42225">
        <ele>25</ele>
        <time>2019-02-03T09:44:34Z</time>
      </trkpt>
      <trkpt lat="47.17693" lon="-1.42255">
        <ele>26</ele>
        <time>2019-02-03T09:44:40Z</time>
      </trkpt>
      <trkpt lat="47.177" lon="-1.4229">
        <ele>24</ele>
        <time>2019-02-03T09:44:46Z</time>
      </trkpt>
      <trkpt lat="47.17704" lon="-1.42301">
        <ele>25</ele>
        <time>2019-02-03T09:44:49Z</time>
      </trkpt>
      <trkpt lat="47.17713" lon="-1.42315">
        <ele>24</ele>
        <time>2019-02-03T09:44:52Z</time>
      </trkpt>
      <trkpt lat="47.17724" lon="-1.4233">
        <ele>26</ele>
        <time>2019-02-03T09:44:56Z</time>
      </trkpt>
      <trkpt lat="47.17729" lon="-1.42338">
        <ele>26</ele>
        <time>2019-02-03T09:44:58Z</time>
      </trkpt>
      <trkpt lat="47.1774" lon="-1.42353">
        <ele>27</ele>
        <time>2019-02-03T09:45:02Z</time>
      </trkpt>
      <trkpt lat="47.17752" lon="-1.42369">
        <ele>25</ele>
        <time>2019-02-03T09:45:06Z</time>
      </trkpt>
      <trkpt lat="47.17763" lon="-1.42385">
        <ele>25</ele>
        <time>2019-02-03T09:45:10Z</time>
      </trkpt>
      <trkpt lat="47.17768" lon="-1.42394">
        <ele>25</ele>
        <time>2019-02-03T09:45:12Z</time>
      </trkpt>
      <trkpt lat="47.17774" lon="-1.42403">
        <ele>26</ele>
        <time>2019-02-03T09:45:14Z</time>
      </trkpt>
      <trkpt lat="47.1778" lon="-1.42411">
        <ele>25</ele>
        <time>2019-02-03T09:45:16Z</time>
      </trkpt>
      <trkpt lat="47.17785" lon="-1.42419">
        <ele>26</ele>
        <time>2019-02-03T09:45:18Z</time>
      </trkpt>
      <trkpt lat="47.17789" lon="-1.42428">
        <ele>26</ele>
        <time>2019-02-03T09:45:20Z</time>
      </trkpt>
      <trkpt lat="47.17792" lon="-1.42435">
        <ele>26</ele>
        <time>2019-02-03T09:45:21Z</time>
      </trkpt>
      <trkpt lat="47.17796" lon="-1.42445">
        <ele>25</ele>
        <time>2019-02-03T09:45:23Z</time>
      </trkpt>
      <trkpt lat="47.17821" lon="-1.42493">
        <ele>26</ele>
        <time>2019-02-03T09:45:33Z</time>
      </trkpt>
      <trkpt lat="47.17827" lon="-1.42515">
        <ele>28</ele>
        <time>2019-02-03T09:45:37Z</time>
      </trkpt>
      <trkpt lat="47.1783" lon="-1.42526">
        <ele>27</ele>
        <time>2019-02-03T09:45:39Z</time>
      </trkpt>
      <trkpt lat="47.17833" lon="-1.42536">
        <ele>27</ele>
        <time>2019-02-03T09:45:41Z</time>
      </trkpt>
      <trkpt lat="47.17851" lon="-1.42623">
        <ele>27</ele>
        <time>2019-02-03T09:45:54Z</time>
      </trkpt>
      <trkpt lat="47.17854" lon="-1.42657">
        <ele>27</ele>
        <time>2019-02-03T09:45:59Z</time>
      </trkpt>
      <trkpt lat="47.1786" lon="-1.42678">
        <ele>27</ele>
        <time>2019-02-03T09:46:02Z</time>
      </trkpt>
      <trkpt lat="47.17865" lon="-1.42704">
        <ele>27</ele>
        <time>2019-02-03T09:46:06Z</time>
      </trkpt>
      <trkpt lat="47.17867" lon="-1.42717">
        <ele>27</ele>
        <time>2019-02-03T09:46:08Z</time>
      </trkpt>
      <trkpt lat="47.17869" lon="-1.42724">
        <ele>27</ele>
        <time>2019-02-03T09:46:09Z</time>
      </trkpt>
      <trkpt lat="47.17872" lon="-1.42731">
        <ele>27</ele>
        <time>2019-02-03T09:46:10Z</time>
      </trkpt>
      <trkpt lat="47.17874" lon="-1.42738">
        <ele>27</ele>
        <time>2019-02-03T09:46:11Z</time>
      </trkpt>
      <trkpt lat="47.17876" lon="-1.42744">
        <ele>26</ele>
        <time>2019-02-03T09:46:12Z</time>
      </trkpt>
      <trkpt lat="47.17882" lon="-1.4277">
        <ele>27</ele>
        <time>2019-02-03T09:46:16Z</time>
      </trkpt>
      <trkpt lat="47.17885" lon="-1.42776">
        <ele>27</ele>
        <time>2019-02-03T09:46:17Z</time>
      </trkpt>
      <trkpt lat="47.17889" lon="-1.42779">
        <ele>27</ele>
        <time>2019-02-03T09:46:18Z</time>
      </trkpt>
      <trkpt lat="47.17893" lon="-1.42781">
        <ele>27</ele>
        <time>2019-02-03T09:46:19Z</time>
      </trkpt>
      <trkpt lat="47.17898" lon="-1.42783">
        <ele>27</ele>
        <time>2019-02-03T09:46:20Z</time>
      </trkpt>
      <trkpt lat="47.17902" lon="-1.42785">
        <ele>27</ele>
        <time>2019-02-03T09:46:21Z</time>
      </trkpt>
      <trkpt lat="47.1791" lon="-1.42791">
        <ele>27</ele>
        <time>2019-02-03T09:46:23Z</time>
      </trkpt>
      <trkpt lat="47.1792" lon="-1.4281">
        <ele>26</ele>
        <time>2019-02-03T09:46:27Z</time>
      </trkpt>
      <trkpt lat="47.17934" lon="-1.42841">
        <ele>27</ele>
        <time>2019-02-03T09:46:33Z</time>
      </trkpt>
      <trkpt lat="47.17939" lon="-1.4285">
        <ele>28</ele>
        <time>2019-02-03T09:46:35Z</time>
      </trkpt>
      <trkpt lat="47.17944" lon="-1.42858">
        <ele>28</ele>
        <time>2019-02-03T09:46:37Z</time>
      </trkpt>
      <trkpt lat="47.17959" lon="-1.4289">
        <ele>31</ele>
        <time>2019-02-03T09:46:44Z</time>
      </trkpt>
      <trkpt lat="47.17973" lon="-1.42914">
        <ele>31</ele>
        <time>2019-02-03T09:46:50Z</time>
      </trkpt>
      <trkpt lat="47.17978" lon="-1.42922">
        <ele>31</ele>
        <time>2019-02-03T09:46:52Z</time>
      </trkpt>
      <trkpt lat="47.17983" lon="-1.42929">
        <ele>32</ele>
        <time>2019-02-03T09:46:54Z</time>
      </trkpt>
      <trkpt lat="47.17988" lon="-1.42937">
        <ele>32</ele>
        <time>2019-02-03T09:46:56Z</time>
      </trkpt>
      <trkpt lat="47.17994" lon="-1.42943">
        <ele>33</ele>
        <time>2019-02-03T09:46:57Z</time>
      </trkpt>
      <trkpt lat="47.18023" lon="-1.42984">
        <ele>33</ele>
        <time>2019-02-03T09:47:09Z</time>
      </trkpt>
      <trkpt lat="47.18034" lon="-1.43012">
        <ele>33</ele>
        <time>2019-02-03T09:47:15Z</time>
      </trkpt>
      <trkpt lat="47.18045" lon="-1.43051">
        <ele>34</ele>
        <time>2019-02-03T09:47:23Z</time>
      </trkpt>
      <trkpt lat="47.18052" lon="-1.43104">
        <ele>34</ele>
        <time>2019-02-03T09:47:33Z</time>
      </trkpt>
      <trkpt lat="47.18049" lon="-1.43128">
        <ele>35</ele>
        <time>2019-02-03T09:47:37Z</time>
      </trkpt>
      <trkpt lat="47.18048" lon="-1.43141">
        <ele>35</ele>
        <time>2019-02-03T09:47:39Z</time>
      </trkpt>
      <trkpt lat="47.18048" lon="-1.43153">
        <ele>34</ele>
        <time>2019-02-03T09:47:41Z</time>
      </trkpt>
      <trkpt lat="47.1805" lon="-1.43179">
        <ele>33</ele>
        <time>2019-02-03T09:47:45Z</time>
      </trkpt>
      <trkpt lat="47.18062" lon="-1.43225">
        <ele>35</ele>
        <time>2019-02-03T09:47:53Z</time>
      </trkpt>
      <trkpt lat="47.18062" lon="-1.43237">
        <ele>36</ele>
        <time>2019-02-03T09:47:55Z</time>
      </trkpt>
      <trkpt lat="47.18062" lon="-1.4325">
        <ele>35</ele>
        <time>2019-02-03T09:47:57Z</time>
      </trkpt>
      <trkpt lat="47.18059" lon="-1.43256">
        <ele>35</ele>
        <time>2019-02-03T09:47:58Z</time>
      </trkpt>
      <trkpt lat="47.18057" lon="-1.43263">
        <ele>35</ele>
        <time>2019-02-03T09:47:59Z</time>
      </trkpt>
      <trkpt lat="47.18054" lon="-1.43275">
        <ele>35</ele>
        <time>2019-02-03T09:48:01Z</time>
      </trkpt>
      <trkpt lat="47.18051" lon="-1.43289">
        <ele>34</ele>
        <time>2019-02-03T09:48:03Z</time>
      </trkpt>
      <trkpt lat="47.18046" lon="-1.43304">
        <ele>34</ele>
        <time>2019-02-03T09:48:05Z</time>
      </trkpt>
      <trkpt lat="47.18042" lon="-1.43316">
        <ele>33</ele>
        <time>2019-02-03T09:48:07Z</time>
      </trkpt>
      <trkpt lat="47.18036" lon="-1.43345">
        <ele>34</ele>
        <time>2019-02-03T09:48:11Z</time>
      </trkpt>
      <trkpt lat="47.18034" lon="-1.43352">
        <ele>34</ele>
        <time>2019-02-03T09:48:12Z</time>
      </trkpt>
      <trkpt lat="47.18031" lon="-1.43358">
        <ele>35</ele>
        <time>2019-02-03T09:48:13Z</time>
      </trkpt>
      <trkpt lat="47.18029" lon="-1.43369">
        <ele>35</ele>
        <time>2019-02-03T09:48:15Z</time>
      </trkpt>
      <trkpt lat="47.18032" lon="-1.4338">
        <ele>34</ele>
        <time>2019-02-03T09:48:17Z</time>
      </trkpt>
      <trkpt lat="47.1803" lon="-1.43392">
        <ele>34</ele>
        <time>2019-02-03T09:48:19Z</time>
      </trkpt>
      <trkpt lat="47.18024" lon="-1.4341">
        <ele>35</ele>
        <time>2019-02-03T09:48:22Z</time>
      </trkpt>
      <trkpt lat="47.1802" lon="-1.43422">
        <ele>34</ele>
        <time>2019-02-03T09:48:24Z</time>
      </trkpt>
      <trkpt lat="47.18016" lon="-1.43433">
        <ele>34</ele>
        <time>2019-02-03T09:48:26Z</time>
      </trkpt>
      <trkpt lat="47.18014" lon="-1.43442">
        <ele>35</ele>
        <time>2019-02-03T09:48:28Z</time>
      </trkpt>
      <trkpt lat="47.18011" lon="-1.43454">
        <ele>36</ele>
        <time>2019-02-03T09:48:30Z</time>
      </trkpt>
      <trkpt lat="47.18008" lon="-1.43463">
        <ele>36</ele>
        <time>2019-02-03T09:48:32Z</time>
      </trkpt>
      <trkpt lat="47.18004" lon="-1.43486">
        <ele>36</ele>
        <time>2019-02-03T09:48:36Z</time>
      </trkpt>
      <trkpt lat="47.18004" lon="-1.43523">
        <ele>34</ele>
        <time>2019-02-03T09:48:42Z</time>
      </trkpt>
      <trkpt lat="47.18003" lon="-1.4355">
        <ele>35</ele>
        <time>2019-02-03T09:48:46Z</time>
      </trkpt>
      <trkpt lat="47.18001" lon="-1.43562">
        <ele>35</ele>
        <time>2019-02-03T09:48:48Z</time>
      </trkpt>
      <trkpt lat="47.17999" lon="-1.43575">
        <ele>35</ele>
        <time>2019-02-03T09:48:50Z</time>
      </trkpt>
      <trkpt lat="47.17992" lon="-1.43614">
        <ele>36</ele>
        <time>2019-02-03T09:48:56Z</time>
      </trkpt>
      <trkpt lat="47.17938" lon="-1.43804">
        <ele>36</ele>
        <time>2019-02-03T09:49:26Z</time>
      </trkpt>
      <trkpt lat="47.1792" lon="-1.43848">
        <ele>36</ele>
        <time>2019-02-03T09:49:33Z</time>
      </trkpt>
      <trkpt lat="47.17917" lon="-1.43854">
        <ele>35</ele>
        <time>2019-02-03T09:49:34Z</time>
      </trkpt>
      <trkpt lat="47.17832" lon="-1.44048">
        <ele>34</ele>
        <time>2019-02-03T09:50:06Z</time>
      </trkpt>
      <trkpt lat="47.17783" lon="-1.4412">
        <ele>32</ele>
        <time>2019-02-03T09:50:21Z</time>
      </trkpt>
      <trkpt lat="47.17782" lon="-1.44132">
        <ele>32</ele>
        <time>2019-02-03T09:50:23Z</time>
      </trkpt>
      <trkpt lat="47.17795" lon="-1.44178">
        <ele>32</ele>
        <time>2019-02-03T09:50:30Z</time>
      </trkpt>
      <trkpt lat="47.17798" lon="-1.44183">
        <ele>32</ele>
        <time>2019-02-03T09:50:31Z</time>
      </trkpt>
      <trkpt lat="47.17802" lon="-1.44189">
        <ele>31</ele>
        <time>2019-02-03T09:50:32Z</time>
      </trkpt>
      <trkpt lat="47.17806" lon="-1.44193">
        <ele>31</ele>
        <time>2019-02-03T09:50:33Z</time>
      </trkpt>
      <trkpt lat="47.17812" lon="-1.44195">
        <ele>31</ele>
        <time>2019-02-03T09:50:34Z</time>
      </trkpt>
      <trkpt lat="47.1782" lon="-1.44206">
        <ele>29</ele>
        <time>2019-02-03T09:50:36Z</time>
      </trkpt>
      <trkpt lat="47.17896" lon="-1.44298">
        <ele>29</ele>
        <time>2019-02-03T09:51:01Z</time>
      </trkpt>
      <trkpt lat="47.179" lon="-1.44308">
        <ele>29</ele>
        <time>2019-02-03T09:51:03Z</time>
      </trkpt>
      <trkpt lat="47.179" lon="-1.44319">
        <ele>29</ele>
        <time>2019-02-03T09:51:05Z</time>
      </trkpt>
      <trkpt lat="47.17894" lon="-1.4433">
        <ele>28</ele>
        <time>2019-02-03T09:51:07Z</time>
      </trkpt>
      <trkpt lat="47.17884" lon="-1.44337">
        <ele>28</ele>
        <time>2019-02-03T09:51:09Z</time>
      </trkpt>
      <trkpt lat="47.17878" lon="-1.4434">
        <ele>28</ele>
        <time>2019-02-03T09:51:10Z</time>
      </trkpt>
      <trkpt lat="47.17864" lon="-1.44341">
        <ele>28</ele>
        <time>2019-02-03T09:51:12Z</time>
      </trkpt>
      <trkpt lat="47.17854" lon="-1.44348">
        <ele>28</ele>
        <time>2019-02-03T09:51:14Z</time>
      </trkpt>
      <trkpt lat="47.1785" lon="-1.44352">
        <ele>28</ele>
        <time>2019-02-03T09:51:15Z</time>
      </trkpt>
      <trkpt lat="47.17843" lon="-1.44365">
        <ele>28</ele>
        <time>2019-02-03T09:51:17Z</time>
      </trkpt>
      <trkpt lat="47.17841" lon="-1.44371">
        <ele>28</ele>
        <time>2019-02-03T09:51:18Z</time>
      </trkpt>
      <trkpt lat="47.17839" lon="-1.44379">
        <ele>28</ele>
        <time>2019-02-03T09:51:19Z</time>
      </trkpt>
      <trkpt lat="47.1784" lon="-1.44387">
        <ele>28</ele>
        <time>2019-02-03T09:51:20Z</time>
      </trkpt>
      <trkpt lat="47.17848" lon="-1.44419">
        <ele>27</ele>
        <time>2019-02-03T09:51:24Z</time>
      </trkpt>
      <trkpt lat="47.1785" lon="-1.44427">
        <ele>27</ele>
        <time>2019-02-03T09:51:25Z</time>
      </trkpt>
      <trkpt lat="47.17899" lon="-1.44623">
        <ele>27</ele>
        <time>2019-02-03T09:51:52Z</time>
      </trkpt>
      <trkpt lat="47.17898" lon="-1.44633">
        <ele>27</ele>
        <time>2019-02-03T09:51:54Z</time>
      </trkpt>
      <trkpt lat="47.17891" lon="-1.4464">
        <ele>28</ele>
        <time>2019-02-03T09:51:56Z</time>
      </trkpt>
      <trkpt lat="47.17885" lon="-1.44641">
        <ele>27</ele>
        <time>2019-02-03T09:51:58Z</time>
      </trkpt>
      <trkpt lat="47.17881" lon="-1.44649">
        <ele>28</ele>
        <time>2019-02-03T09:52:01Z</time>
      </trkpt>
      <trkpt lat="47.17883" lon="-1.4468">
        <ele>26</ele>
        <time>2019-02-03T09:52:06Z</time>
      </trkpt>
      <trkpt lat="47.17892" lon="-1.44717">
        <ele>26</ele>
        <time>2019-02-03T09:52:11Z</time>
      </trkpt>
      <trkpt lat="47.179" lon="-1.44747">
        <ele>26</ele>
        <time>2019-02-03T09:52:15Z</time>
      </trkpt>
      <trkpt lat="47.17927" lon="-1.44844">
        <ele>26</ele>
        <time>2019-02-03T09:52:29Z</time>
      </trkpt>
      <trkpt lat="47.17933" lon="-1.44856">
        <ele>25</ele>
        <time>2019-02-03T09:52:31Z</time>
      </trkpt>
      <trkpt lat="47.17933" lon="-1.44864">
        <ele>25</ele>
        <time>2019-02-03T09:52:32Z</time>
      </trkpt>
      <trkpt lat="47.17934" lon="-1.44871">
        <ele>25</ele>
        <time>2019-02-03T09:52:33Z</time>
      </trkpt>
      <trkpt lat="47.17937" lon="-1.44886">
        <ele>25</ele>
        <time>2019-02-03T09:52:35Z</time>
      </trkpt>
      <trkpt lat="47.1794" lon="-1.44899">
        <ele>26</ele>
        <time>2019-02-03T09:52:37Z</time>
      </trkpt>
      <trkpt lat="47.17949" lon="-1.44929">
        <ele>27</ele>
        <time>2019-02-03T09:52:42Z</time>
      </trkpt>
      <trkpt lat="47.17954" lon="-1.44948">
        <ele>26</ele>
        <time>2019-02-03T09:52:45Z</time>
      </trkpt>
      <trkpt lat="47.17955" lon="-1.44955">
        <ele>26</ele>
        <time>2019-02-03T09:52:46Z</time>
      </trkpt>
      <trkpt lat="47.17956" lon="-1.44961">
        <ele>25</ele>
        <time>2019-02-03T09:52:47Z</time>
      </trkpt>
      <trkpt lat="47.17957" lon="-1.44968">
        <ele>26</ele>
        <time>2019-02-03T09:52:48Z</time>
      </trkpt>
      <trkpt lat="47.17995" lon="-1.45138">
        <ele>26</ele>
        <time>2019-02-03T09:53:15Z</time>
      </trkpt>
      <trkpt lat="47.17999" lon="-1.45146">
        <ele>27</ele>
        <time>2019-02-03T09:53:17Z</time>
      </trkpt>
      <trkpt lat="47.18004" lon="-1.45165">
        <ele>27</ele>
        <time>2019-02-03T09:53:20Z</time>
      </trkpt>
      <trkpt lat="47.18007" lon="-1.45182">
        <ele>27</ele>
        <time>2019-02-03T09:53:22Z</time>
      </trkpt>
      <trkpt lat="47.18011" lon="-1.45197">
        <ele>26</ele>
        <time>2019-02-03T09:53:24Z</time>
      </trkpt>
      <trkpt lat="47.18025" lon="-1.4525">
        <ele>24</ele>
        <time>2019-02-03T09:53:31Z</time>
      </trkpt>
      <trkpt lat="47.18028" lon="-1.45266">
        <ele>25</ele>
        <time>2019-02-03T09:53:33Z</time>
      </trkpt>
      <trkpt lat="47.18032" lon="-1.45282">
        <ele>24</ele>
        <time>2019-02-03T09:53:35Z</time>
      </trkpt>
      <trkpt lat="47.18034" lon="-1.45291">
        <ele>24</ele>
        <time>2019-02-03T09:53:36Z</time>
      </trkpt>
      <trkpt lat="47.18035" lon="-1.453">
        <ele>24</ele>
        <time>2019-02-03T09:53:37Z</time>
      </trkpt>
      <trkpt lat="47.18038" lon="-1.45309">
        <ele>24</ele>
        <time>2019-02-03T09:53:38Z</time>
      </trkpt>
      <trkpt lat="47.1804" lon="-1.45318">
        <ele>24</ele>
        <time>2019-02-03T09:53:39Z</time>
      </trkpt>
      <trkpt lat="47.18042" lon="-1.45328">
        <ele>25</ele>
        <time>2019-02-03T09:53:40Z</time>
      </trkpt>
      <trkpt lat="47.18045" lon="-1.45368">
        <ele>24</ele>
        <time>2019-02-03T09:53:44Z</time>
      </trkpt>
      <trkpt lat="47.1805" lon="-1.45378">
        <ele>23</ele>
        <time>2019-02-03T09:53:45Z</time>
      </trkpt>
      <trkpt lat="47.18051" lon="-1.45397">
        <ele>23</ele>
        <time>2019-02-03T09:53:46Z</time>
      </trkpt>
      <trkpt lat="47.18057" lon="-1.45426">
        <ele>24</ele>
        <time>2019-02-03T09:53:49Z</time>
      </trkpt>
      <trkpt lat="47.18075" lon="-1.45518">
        <ele>24</ele>
        <time>2019-02-03T09:53:59Z</time>
      </trkpt>
      <trkpt lat="47.18079" lon="-1.45524">
        <ele>23</ele>
        <time>2019-02-03T09:54:00Z</time>
      </trkpt>
      <trkpt lat="47.18086" lon="-1.45543">
        <ele>21</ele>
        <time>2019-02-03T09:54:03Z</time>
      </trkpt>
      <trkpt lat="47.18089" lon="-1.4555">
        <ele>22</ele>
        <time>2019-02-03T09:54:04Z</time>
      </trkpt>
      <trkpt lat="47.18089" lon="-1.45557">
        <ele>22</ele>
        <time>2019-02-03T09:54:05Z</time>
      </trkpt>
      <trkpt lat="47.18091" lon="-1.45565">
        <ele>23</ele>
        <time>2019-02-03T09:54:06Z</time>
      </trkpt>
      <trkpt lat="47.18092" lon="-1.45573">
        <ele>23</ele>
        <time>2019-02-03T09:54:07Z</time>
      </trkpt>
      <trkpt lat="47.18093" lon="-1.45586">
        <ele>21</ele>
        <time>2019-02-03T09:54:09Z</time>
      </trkpt>
      <trkpt lat="47.18094" lon="-1.45594">
        <ele>22</ele>
        <time>2019-02-03T09:54:10Z</time>
      </trkpt>
      <trkpt lat="47.18098" lon="-1.45605">
        <ele>22</ele>
        <time>2019-02-03T09:54:12Z</time>
      </trkpt>
      <trkpt lat="47.18102" lon="-1.45616">
        <ele>23</ele>
        <time>2019-02-03T09:54:14Z</time>
      </trkpt>
      <trkpt lat="47.18105" lon="-1.45626">
        <ele>23</ele>
        <time>2019-02-03T09:54:16Z</time>
      </trkpt>
      <trkpt lat="47.18103" lon="-1.45635">
        <ele>24</ele>
        <time>2019-02-03T09:54:18Z</time>
      </trkpt>
      <trkpt lat="47.18099" lon="-1.4564">
        <ele>24</ele>
        <time>2019-02-03T09:54:20Z</time>
      </trkpt>
      <trkpt lat="47.18092" lon="-1.45669">
        <ele>23</ele>
        <time>2019-02-03T09:54:25Z</time>
      </trkpt>
      <trkpt lat="47.1809" lon="-1.45682">
        <ele>23</ele>
        <time>2019-02-03T09:54:27Z</time>
      </trkpt>
      <trkpt lat="47.18086" lon="-1.4572">
        <ele>21</ele>
        <time>2019-02-03T09:54:32Z</time>
      </trkpt>
      <trkpt lat="47.1808" lon="-1.45735">
        <ele>21</ele>
        <time>2019-02-03T09:54:34Z</time>
      </trkpt>
      <trkpt lat="47.18078" lon="-1.45743">
        <ele>21</ele>
        <time>2019-02-03T09:54:35Z</time>
      </trkpt>
      <trkpt lat="47.18075" lon="-1.4575">
        <ele>21</ele>
        <time>2019-02-03T09:54:36Z</time>
      </trkpt>
      <trkpt lat="47.1807" lon="-1.45762">
        <ele>20</ele>
        <time>2019-02-03T09:54:38Z</time>
      </trkpt>
      <trkpt lat="47.18063" lon="-1.4578">
        <ele>19</ele>
        <time>2019-02-03T09:54:41Z</time>
      </trkpt>
      <trkpt lat="47.1803" lon="-1.45815">
        <ele>17</ele>
        <time>2019-02-03T09:54:48Z</time>
      </trkpt>
      <trkpt lat="47.18026" lon="-1.4582">
        <ele>17</ele>
        <time>2019-02-03T09:54:49Z</time>
      </trkpt>
      <trkpt lat="47.18025" lon="-1.45832">
        <ele>17</ele>
        <time>2019-02-03T09:54:50Z</time>
      </trkpt>
      <trkpt lat="47.1802" lon="-1.45836">
        <ele>17</ele>
        <time>2019-02-03T09:54:51Z</time>
      </trkpt>
      <trkpt lat="47.18017" lon="-1.4584">
        <ele>17</ele>
        <time>2019-02-03T09:54:52Z</time>
      </trkpt>
      <trkpt lat="47.18009" lon="-1.45844">
        <ele>17</ele>
        <time>2019-02-03T09:54:54Z</time>
      </trkpt>
      <trkpt lat="47.18002" lon="-1.45851">
        <ele>17</ele>
        <time>2019-02-03T09:54:56Z</time>
      </trkpt>
      <trkpt lat="47.17994" lon="-1.45852">
        <ele>16</ele>
        <time>2019-02-03T09:54:58Z</time>
      </trkpt>
      <trkpt lat="47.17988" lon="-1.45846">
        <ele>16</ele>
        <time>2019-02-03T09:55:00Z</time>
      </trkpt>
      <trkpt lat="47.17986" lon="-1.4584">
        <ele>16</ele>
        <time>2019-02-03T09:55:01Z</time>
      </trkpt>
      <trkpt lat="47.17982" lon="-1.45827">
        <ele>17</ele>
        <time>2019-02-03T09:55:03Z</time>
      </trkpt>
      <trkpt lat="47.1798" lon="-1.45821">
        <ele>17</ele>
        <time>2019-02-03T09:55:04Z</time>
      </trkpt>
      <trkpt lat="47.17976" lon="-1.45811">
        <ele>17</ele>
        <time>2019-02-03T09:55:06Z</time>
      </trkpt>
      <trkpt lat="47.17968" lon="-1.45805">
        <ele>18</ele>
        <time>2019-02-03T09:55:08Z</time>
      </trkpt>
      <trkpt lat="47.17963" lon="-1.458">
        <ele>18</ele>
        <time>2019-02-03T09:55:09Z</time>
      </trkpt>
      <trkpt lat="47.17958" lon="-1.458">
        <ele>18</ele>
        <time>2019-02-03T09:55:10Z</time>
      </trkpt>
      <trkpt lat="47.17949" lon="-1.45792">
        <ele>19</ele>
        <time>2019-02-03T09:55:12Z</time>
      </trkpt>
      <trkpt lat="47.17947" lon="-1.45786">
        <ele>19</ele>
        <time>2019-02-03T09:55:13Z</time>
      </trkpt>
      <trkpt lat="47.17943" lon="-1.45781">
        <ele>19</ele>
        <time>2019-02-03T09:55:14Z</time>
      </trkpt>
      <trkpt lat="47.17938" lon="-1.45777">
        <ele>18</ele>
        <time>2019-02-03T09:55:15Z</time>
      </trkpt>
      <trkpt lat="47.17932" lon="-1.45775">
        <ele>18</ele>
        <time>2019-02-03T09:55:16Z</time>
      </trkpt>
      <trkpt lat="47.17927" lon="-1.4577">
        <ele>19</ele>
        <time>2019-02-03T09:55:17Z</time>
      </trkpt>
      <trkpt lat="47.17923" lon="-1.45765">
        <ele>19</ele>
        <time>2019-02-03T09:55:18Z</time>
      </trkpt>
      <trkpt lat="47.17914" lon="-1.45751">
        <ele>19</ele>
        <time>2019-02-03T09:55:21Z</time>
      </trkpt>
      <trkpt lat="47.17888" lon="-1.45722">
        <ele>19</ele>
        <time>2019-02-03T09:55:32Z</time>
      </trkpt>
      <trkpt lat="47.17884" lon="-1.45718">
        <ele>19</ele>
        <time>2019-02-03T09:55:34Z</time>
      </trkpt>
      <trkpt lat="47.17881" lon="-1.45703">
        <ele>18</ele>
        <time>2019-02-03T09:55:38Z</time>
      </trkpt>
      <trkpt lat="47.17879" lon="-1.45696">
        <ele>18</ele>
        <time>2019-02-03T09:55:40Z</time>
      </trkpt>
      <trkpt lat="47.17876" lon="-1.45689">
        <ele>18</ele>
        <time>2019-02-03T09:55:42Z</time>
      </trkpt>
      <trkpt lat="47.1787" lon="-1.45683">
        <ele>19</ele>
        <time>2019-02-03T09:55:44Z</time>
      </trkpt>
      <trkpt lat="47.17856" lon="-1.45672">
        <ele>19</ele>
        <time>2019-02-03T09:55:48Z</time>
      </trkpt>
      <trkpt lat="47.17851" lon="-1.45666">
        <ele>19</ele>
        <time>2019-02-03T09:55:50Z</time>
      </trkpt>
      <trkpt lat="47.17847" lon="-1.45656">
        <ele>20</ele>
        <time>2019-02-03T09:55:52Z</time>
      </trkpt>
      <trkpt lat="47.17844" lon="-1.45646">
        <ele>20</ele>
        <time>2019-02-03T09:55:54Z</time>
      </trkpt>
      <trkpt lat="47.17841" lon="-1.45626">
        <ele>20</ele>
        <time>2019-02-03T09:55:58Z</time>
      </trkpt>
      <trkpt lat="47.17838" lon="-1.45618">
        <ele>21</ele>
        <time>2019-02-03T09:56:00Z</time>
      </trkpt>
      <trkpt lat="47.17834" lon="-1.45611">
        <ele>21</ele>
        <time>2019-02-03T09:56:02Z</time>
      </trkpt>
      <trkpt lat="47.17828" lon="-1.45598">
        <ele>20</ele>
        <time>2019-02-03T09:56:06Z</time>
      </trkpt>
      <trkpt lat="47.17824" lon="-1.45593">
        <ele>20</ele>
        <time>2019-02-03T09:56:08Z</time>
      </trkpt>
      <trkpt lat="47.17819" lon="-1.45587">
        <ele>20</ele>
        <time>2019-02-03T09:56:10Z</time>
      </trkpt>
      <trkpt lat="47.17809" lon="-1.45578">
        <ele>19</ele>
        <time>2019-02-03T09:56:13Z</time>
      </trkpt>
      <trkpt lat="47.17804" lon="-1.45573">
        <ele>20</ele>
        <time>2019-02-03T09:56:15Z</time>
      </trkpt>
      <trkpt lat="47.17799" lon="-1.45568">
        <ele>20</ele>
        <time>2019-02-03T09:56:17Z</time>
      </trkpt>
      <trkpt lat="47.17794" lon="-1.45566">
        <ele>20</ele>
        <time>2019-02-03T09:56:19Z</time>
      </trkpt>
      <trkpt lat="47.17789" lon="-1.45566">
        <ele>20</ele>
        <time>2019-02-03T09:56:21Z</time>
      </trkpt>
      <trkpt lat="47.17776" lon="-1.45567">
        <ele>20</ele>
        <time>2019-02-03T09:56:25Z</time>
      </trkpt>
      <trkpt lat="47.1777" lon="-1.45566">
        <ele>20</ele>
        <time>2019-02-03T09:56:27Z</time>
      </trkpt>
      <trkpt lat="47.17764" lon="-1.4556">
        <ele>21</ele>
        <time>2019-02-03T09:56:29Z</time>
      </trkpt>
      <trkpt lat="47.1775" lon="-1.45539">
        <ele>20</ele>
        <time>2019-02-03T09:56:35Z</time>
      </trkpt>
      <trkpt lat="47.1774" lon="-1.45528">
        <ele>21</ele>
        <time>2019-02-03T09:56:39Z</time>
      </trkpt>
      <trkpt lat="47.17735" lon="-1.45525">
        <ele>22</ele>
        <time>2019-02-03T09:56:41Z</time>
      </trkpt>
      <trkpt lat="47.1773" lon="-1.45521">
        <ele>22</ele>
        <time>2019-02-03T09:56:43Z</time>
      </trkpt>
      <trkpt lat="47.17725" lon="-1.45513">
        <ele>21</ele>
        <time>2019-02-03T09:56:45Z</time>
      </trkpt>
      <trkpt lat="47.17723" lon="-1.45507">
        <ele>21</ele>
        <time>2019-02-03T09:56:46Z</time>
      </trkpt>
      <trkpt lat="47.17719" lon="-1.45502">
        <ele>21</ele>
        <time>2019-02-03T09:56:47Z</time>
      </trkpt>
      <trkpt lat="47.17712" lon="-1.45493">
        <ele>21</ele>
        <time>2019-02-03T09:56:49Z</time>
      </trkpt>
      <trkpt lat="47.17708" lon="-1.4549">
        <ele>22</ele>
        <time>2019-02-03T09:56:50Z</time>
      </trkpt>
      <trkpt lat="47.17693" lon="-1.45476">
        <ele>22</ele>
        <time>2019-02-03T09:56:54Z</time>
      </trkpt>
      <trkpt lat="47.17688" lon="-1.45468">
        <ele>21</ele>
        <time>2019-02-03T09:56:56Z</time>
      </trkpt>
      <trkpt lat="47.17678" lon="-1.45457">
        <ele>22</ele>
        <time>2019-02-03T09:57:00Z</time>
      </trkpt>
      <trkpt lat="47.17667" lon="-1.45449">
        <ele>23</ele>
        <time>2019-02-03T09:57:04Z</time>
      </trkpt>
      <trkpt lat="47.17662" lon="-1.45445">
        <ele>23</ele>
        <time>2019-02-03T09:57:06Z</time>
      </trkpt>
      <trkpt lat="47.17657" lon="-1.45442">
        <ele>22</ele>
        <time>2019-02-03T09:57:08Z</time>
      </trkpt>
      <trkpt lat="47.17648" lon="-1.45434">
        <ele>21</ele>
        <time>2019-02-03T09:57:12Z</time>
      </trkpt>
      <trkpt lat="47.17638" lon="-1.45428">
        <ele>21</ele>
        <time>2019-02-03T09:57:16Z</time>
      </trkpt>
      <trkpt lat="47.17632" lon="-1.45427">
        <ele>20</ele>
        <time>2019-02-03T09:57:18Z</time>
      </trkpt>
      <trkpt lat="47.1761" lon="-1.45418">
        <ele>20</ele>
        <time>2019-02-03T09:57:26Z</time>
      </trkpt>
      <trkpt lat="47.17604" lon="-1.45414">
        <ele>20</ele>
        <time>2019-02-03T09:57:28Z</time>
      </trkpt>
      <trkpt lat="47.17598" lon="-1.45411">
        <ele>20</ele>
        <time>2019-02-03T09:57:30Z</time>
      </trkpt>
      <trkpt lat="47.17592" lon="-1.45407">
        <ele>21</ele>
        <time>2019-02-03T09:57:32Z</time>
      </trkpt>
      <trkpt lat="47.17584" lon="-1.45404">
        <ele>20</ele>
        <time>2019-02-03T09:57:34Z</time>
      </trkpt>
      <trkpt lat="47.17565" lon="-1.45395">
        <ele>22</ele>
        <time>2019-02-03T09:57:40Z</time>
      </trkpt>
      <trkpt lat="47.1756" lon="-1.4539">
        <ele>22</ele>
        <time>2019-02-03T09:57:42Z</time>
      </trkpt>
      <trkpt lat="47.17556" lon="-1.45384">
        <ele>23</ele>
        <time>2019-02-03T09:57:44Z</time>
      </trkpt>
      <trkpt lat="47.17552" lon="-1.45376">
        <ele>23</ele>
        <time>2019-02-03T09:57:46Z</time>
      </trkpt>
      <trkpt lat="47.17546" lon="-1.45369">
        <ele>23</ele>
        <time>2019-02-03T09:57:48Z</time>
      </trkpt>
      <trkpt lat="47.1754" lon="-1.45363">
        <ele>24</ele>
        <time>2019-02-03T09:57:50Z</time>
      </trkpt>
      <trkpt lat="47.17533" lon="-1.4536">
        <ele>24</ele>
        <time>2019-02-03T09:57:52Z</time>
      </trkpt>
      <trkpt lat="47.17517" lon="-1.45356">
        <ele>25</ele>
        <time>2019-02-03T09:57:55Z</time>
      </trkpt>
      <trkpt lat="47.17498" lon="-1.45341">
        <ele>25</ele>
        <time>2019-02-03T09:58:00Z</time>
      </trkpt>
      <trkpt lat="47.17494" lon="-1.45337">
        <ele>25</ele>
        <time>2019-02-03T09:58:01Z</time>
      </trkpt>
      <trkpt lat="47.17468" lon="-1.45316">
        <ele>26</ele>
        <time>2019-02-03T09:58:08Z</time>
      </trkpt>
      <trkpt lat="47.1746" lon="-1.45315">
        <ele>25</ele>
        <time>2019-02-03T09:58:10Z</time>
      </trkpt>
      <trkpt lat="47.17453" lon="-1.45322">
        <ele>25</ele>
        <time>2019-02-03T09:58:12Z</time>
      </trkpt>
      <trkpt lat="47.17441" lon="-1.4534">
        <ele>26</ele>
        <time>2019-02-03T09:58:16Z</time>
      </trkpt>
      <trkpt lat="47.17435" lon="-1.45349">
        <ele>26</ele>
        <time>2019-02-03T09:58:18Z</time>
      </trkpt>
      <trkpt lat="47.17415" lon="-1.45369">
        <ele>27</ele>
        <time>2019-02-03T09:58:24Z</time>
      </trkpt>
      <trkpt lat="47.17408" lon="-1.45375">
        <ele>27</ele>
        <time>2019-02-03T09:58:26Z</time>
      </trkpt>
      <trkpt lat="47.17392" lon="-1.45382">
        <ele>27</ele>
        <time>2019-02-03T09:58:30Z</time>
      </trkpt>
      <trkpt lat="47.17384" lon="-1.45384">
        <ele>28</ele>
        <time>2019-02-03T09:58:32Z</time>
      </trkpt>
      <trkpt lat="47.17377" lon="-1.45385">
        <ele>28</ele>
        <time>2019-02-03T09:58:34Z</time>
      </trkpt>
      <trkpt lat="47.1737" lon="-1.45388">
        <ele>28</ele>
        <time>2019-02-03T09:58:36Z</time>
      </trkpt>
      <trkpt lat="47.17362" lon="-1.45388">
        <ele>29</ele>
        <time>2019-02-03T09:58:38Z</time>
      </trkpt>
      <trkpt lat="47.17354" lon="-1.45386">
        <ele>28</ele>
        <time>2019-02-03T09:58:40Z</time>
      </trkpt>
      <trkpt lat="47.1732" lon="-1.45359">
        <ele>29</ele>
        <time>2019-02-03T09:58:50Z</time>
      </trkpt>
      <trkpt lat="47.17314" lon="-1.45353">
        <ele>29</ele>
        <time>2019-02-03T09:58:52Z</time>
      </trkpt>
      <trkpt lat="47.17282" lon="-1.45328">
        <ele>29</ele>
        <time>2019-02-03T09:59:02Z</time>
      </trkpt>
      <trkpt lat="47.17274" lon="-1.45328">
        <ele>29</ele>
        <time>2019-02-03T09:59:04Z</time>
      </trkpt>
      <trkpt lat="47.17266" lon="-1.45329">
        <ele>29</ele>
        <time>2019-02-03T09:59:06Z</time>
      </trkpt>
      <trkpt lat="47.17259" lon="-1.45332">
        <ele>29</ele>
        <time>2019-02-03T09:59:08Z</time>
      </trkpt>
      <trkpt lat="47.17251" lon="-1.45336">
        <ele>29</ele>
        <time>2019-02-03T09:59:10Z</time>
      </trkpt>
      <trkpt lat="47.172" lon="-1.4536">
        <ele>33</ele>
        <time>2019-02-03T09:59:24Z</time>
      </trkpt>
      <trkpt lat="47.17193" lon="-1.45363">
        <ele>33</ele>
        <time>2019-02-03T09:59:26Z</time>
      </trkpt>
      <trkpt lat="47.17161" lon="-1.45377">
        <ele>33</ele>
        <time>2019-02-03T09:59:35Z</time>
      </trkpt>
      <trkpt lat="47.17156" lon="-1.45378">
        <ele>33</ele>
        <time>2019-02-03T09:59:36Z</time>
      </trkpt>
      <trkpt lat="47.1715" lon="-1.45379">
        <ele>34</ele>
        <time>2019-02-03T09:59:38Z</time>
      </trkpt>
      <trkpt lat="47.1713" lon="-1.45376">
        <ele>32</ele>
        <time>2019-02-03T09:59:44Z</time>
      </trkpt>
      <trkpt lat="47.17124" lon="-1.45368">
        <ele>31</ele>
        <time>2019-02-03T09:59:46Z</time>
      </trkpt>
      <trkpt lat="47.17119" lon="-1.4537">
        <ele>31</ele>
        <time>2019-02-03T09:59:48Z</time>
      </trkpt>
      <trkpt lat="47.17113" lon="-1.45372">
        <ele>32</ele>
        <time>2019-02-03T09:59:51Z</time>
      </trkpt>
      <trkpt lat="47.17106" lon="-1.45376">
        <ele>31</ele>
        <time>2019-02-03T09:59:55Z</time>
      </trkpt>
      <trkpt lat="47.17098" lon="-1.4538">
        <ele>31</ele>
        <time>2019-02-03T09:59:58Z</time>
      </trkpt>
      <trkpt lat="47.17088" lon="-1.45386">
        <ele>30</ele>
        <time>2019-02-03T10:00:01Z</time>
      </trkpt>
      <trkpt lat="47.17088" lon="-1.454">
        <ele>30</ele>
        <time>2019-02-03T10:00:02Z</time>
      </trkpt>
      <trkpt lat="47.17075" lon="-1.45408">
        <ele>32</ele>
        <time>2019-02-03T10:00:06Z</time>
      </trkpt>
      <trkpt lat="47.17069" lon="-1.4541">
        <ele>32</ele>
        <time>2019-02-03T10:00:07Z</time>
      </trkpt>
      <trkpt lat="47.16996" lon="-1.45447">
        <ele>38</ele>
        <time>2019-02-03T10:00:27Z</time>
      </trkpt>
      <trkpt lat="47.16991" lon="-1.45453">
        <ele>38</ele>
        <time>2019-02-03T10:00:29Z</time>
      </trkpt>
      <trkpt lat="47.16987" lon="-1.45458">
        <ele>37</ele>
        <time>2019-02-03T10:00:31Z</time>
      </trkpt>
      <trkpt lat="47.16982" lon="-1.45462">
        <ele>37</ele>
        <time>2019-02-03T10:00:33Z</time>
      </trkpt>
      <trkpt lat="47.16969" lon="-1.45466">
        <ele>37</ele>
        <time>2019-02-03T10:00:37Z</time>
      </trkpt>
      <trkpt lat="47.16963" lon="-1.45469">
        <ele>36</ele>
        <time>2019-02-03T10:00:39Z</time>
      </trkpt>
      <trkpt lat="47.16959" lon="-1.45473">
        <ele>36</ele>
        <time>2019-02-03T10:00:41Z</time>
      </trkpt>
      <trkpt lat="47.16953" lon="-1.45477">
        <ele>35</ele>
        <time>2019-02-03T10:00:43Z</time>
      </trkpt>
      <trkpt lat="47.16929" lon="-1.45487">
        <ele>36</ele>
        <time>2019-02-03T10:00:51Z</time>
      </trkpt>
      <trkpt lat="47.16924" lon="-1.45491">
        <ele>35</ele>
        <time>2019-02-03T10:00:53Z</time>
      </trkpt>
      <trkpt lat="47.16918" lon="-1.45496">
        <ele>35</ele>
        <time>2019-02-03T10:00:55Z</time>
      </trkpt>
      <trkpt lat="47.16907" lon="-1.45506">
        <ele>36</ele>
        <time>2019-02-03T10:00:59Z</time>
      </trkpt>
      <trkpt lat="47.16893" lon="-1.45514">
        <ele>37</ele>
        <time>2019-02-03T10:01:03Z</time>
      </trkpt>
      <trkpt lat="47.16887" lon="-1.45517">
        <ele>37</ele>
        <time>2019-02-03T10:01:05Z</time>
      </trkpt>
      <trkpt lat="47.16874" lon="-1.4552">
        <ele>36</ele>
        <time>2019-02-03T10:01:09Z</time>
      </trkpt>
      <trkpt lat="47.16869" lon="-1.45522">
        <ele>37</ele>
        <time>2019-02-03T10:01:11Z</time>
      </trkpt>
      <trkpt lat="47.16866" lon="-1.45529">
        <ele>36</ele>
        <time>2019-02-03T10:01:15Z</time>
      </trkpt>
      <trkpt lat="47.16869" lon="-1.45548">
        <ele>35</ele>
        <time>2019-02-03T10:01:19Z</time>
      </trkpt>
      <trkpt lat="47.16871" lon="-1.45668">
        <ele>35</ele>
        <time>2019-02-03T10:01:39Z</time>
      </trkpt>
      <trkpt lat="47.16871" lon="-1.45679">
        <ele>37</ele>
        <time>2019-02-03T10:01:41Z</time>
      </trkpt>
      <trkpt lat="47.16873" lon="-1.45697">
        <ele>37</ele>
        <time>2019-02-03T10:01:44Z</time>
      </trkpt>
      <trkpt lat="47.16874" lon="-1.45709">
        <ele>36</ele>
        <time>2019-02-03T10:01:46Z</time>
      </trkpt>
      <trkpt lat="47.16876" lon="-1.45721">
        <ele>37</ele>
        <time>2019-02-03T10:01:48Z</time>
      </trkpt>
      <trkpt lat="47.16877" lon="-1.45733">
        <ele>36</ele>
        <time>2019-02-03T10:01:50Z</time>
      </trkpt>
      <trkpt lat="47.1688" lon="-1.45744">
        <ele>36</ele>
        <time>2019-02-03T10:01:52Z</time>
      </trkpt>
      <trkpt lat="47.16875" lon="-1.45763">
        <ele>36</ele>
        <time>2019-02-03T10:01:55Z</time>
      </trkpt>
      <trkpt lat="47.16875" lon="-1.45775">
        <ele>36</ele>
        <time>2019-02-03T10:01:56Z</time>
      </trkpt>
      <trkpt lat="47.16842" lon="-1.45813">
        <ele>36</ele>
        <time>2019-02-03T10:02:08Z</time>
      </trkpt>
      <trkpt lat="47.16835" lon="-1.45818">
        <ele>38</ele>
        <time>2019-02-03T10:02:10Z</time>
      </trkpt>
      <trkpt lat="47.16829" lon="-1.45824">
        <ele>39</ele>
        <time>2019-02-03T10:02:12Z</time>
      </trkpt>
      <trkpt lat="47.16759" lon="-1.45877">
        <ele>39</ele>
        <time>2019-02-03T10:02:28Z</time>
      </trkpt>
      <trkpt lat="47.16751" lon="-1.45886">
        <ele>38</ele>
        <time>2019-02-03T10:02:30Z</time>
      </trkpt>
      <trkpt lat="47.16741" lon="-1.45894">
        <ele>39</ele>
        <time>2019-02-03T10:02:33Z</time>
      </trkpt>
      <trkpt lat="47.16735" lon="-1.45897">
        <ele>38</ele>
        <time>2019-02-03T10:02:35Z</time>
      </trkpt>
      <trkpt lat="47.16731" lon="-1.45904">
        <ele>38</ele>
        <time>2019-02-03T10:02:36Z</time>
      </trkpt>
      <trkpt lat="47.16728" lon="-1.45907">
        <ele>38</ele>
        <time>2019-02-03T10:02:37Z</time>
      </trkpt>
      <trkpt lat="47.16723" lon="-1.4591">
        <ele>38</ele>
        <time>2019-02-03T10:02:38Z</time>
      </trkpt>
      <trkpt lat="47.16716" lon="-1.4591">
        <ele>38</ele>
        <time>2019-02-03T10:02:39Z</time>
      </trkpt>
      <trkpt lat="47.16709" lon="-1.45915">
        <ele>38</ele>
        <time>2019-02-03T10:02:41Z</time>
      </trkpt>
      <trkpt lat="47.16706" lon="-1.45925">
        <ele>38</ele>
        <time>2019-02-03T10:02:41Z</time>
      </trkpt>
      <trkpt lat="47.16702" lon="-1.45928">
        <ele>38</ele>
        <time>2019-02-03T10:02:42Z</time>
      </trkpt>
      <trkpt lat="47.16698" lon="-1.45932">
        <ele>38</ele>
        <time>2019-02-03T10:02:43Z</time>
      </trkpt>
      <trkpt lat="47.16693" lon="-1.45934">
        <ele>38</ele>
        <time>2019-02-03T10:02:44Z</time>
      </trkpt>
      <trkpt lat="47.16684" lon="-1.45941">
        <ele>38</ele>
        <time>2019-02-03T10:02:46Z</time>
      </trkpt>
      <trkpt lat="47.16671" lon="-1.45952">
        <ele>36</ele>
        <time>2019-02-03T10:02:49Z</time>
      </trkpt>
      <trkpt lat="47.16662" lon="-1.45959">
        <ele>36</ele>
        <time>2019-02-03T10:02:51Z</time>
      </trkpt>
      <trkpt lat="47.16558" lon="-1.46064">
        <ele>35</ele>
        <time>2019-02-03T10:03:17Z</time>
      </trkpt>
      <trkpt lat="47.16554" lon="-1.46073">
        <ele>35</ele>
        <time>2019-02-03T10:03:19Z</time>
      </trkpt>
      <trkpt lat="47.16554" lon="-1.46082">
        <ele>35</ele>
        <time>2019-02-03T10:03:21Z</time>
      </trkpt>
      <trkpt lat="47.16555" lon="-1.4609">
        <ele>35</ele>
        <time>2019-02-03T10:03:26Z</time>
      </trkpt>
      <trkpt lat="47.16551" lon="-1.46097">
        <ele>36</ele>
        <time>2019-02-03T10:03:31Z</time>
      </trkpt>
      <trkpt lat="47.16547" lon="-1.46102">
        <ele>36</ele>
        <time>2019-02-03T10:03:33Z</time>
      </trkpt>
      <trkpt lat="47.16541" lon="-1.46105">
        <ele>37</ele>
        <time>2019-02-03T10:03:35Z</time>
      </trkpt>
      <trkpt lat="47.16531" lon="-1.46095">
        <ele>37</ele>
        <time>2019-02-03T10:03:37Z</time>
      </trkpt>
      <trkpt lat="47.16529" lon="-1.46106">
        <ele>37</ele>
        <time>2019-02-03T10:03:38Z</time>
      </trkpt>
      <trkpt lat="47.16521" lon="-1.4611">
        <ele>37</ele>
        <time>2019-02-03T10:03:40Z</time>
      </trkpt>
      <trkpt lat="47.16501" lon="-1.46115">
        <ele>36</ele>
        <time>2019-02-03T10:03:45Z</time>
      </trkpt>
      <trkpt lat="47.16488" lon="-1.46118">
        <ele>35</ele>
        <time>2019-02-03T10:03:48Z</time>
      </trkpt>
      <trkpt lat="47.16481" lon="-1.46143">
        <ele>34</ele>
        <time>2019-02-03T10:03:52Z</time>
      </trkpt>
      <trkpt lat="47.1647" lon="-1.46132">
        <ele>34</ele>
        <time>2019-02-03T10:03:54Z</time>
      </trkpt>
      <trkpt lat="47.16447" lon="-1.46166">
        <ele>36</ele>
        <time>2019-02-03T10:04:01Z</time>
      </trkpt>
      <trkpt lat="47.16435" lon="-1.46182">
        <ele>35</ele>
        <time>2019-02-03T10:04:06Z</time>
      </trkpt>
      <trkpt lat="47.16429" lon="-1.46188">
        <ele>35</ele>
        <time>2019-02-03T10:04:08Z</time>
      </trkpt>
      <trkpt lat="47.16392" lon="-1.46231">
        <ele>37</ele>
        <time>2019-02-03T10:04:20Z</time>
      </trkpt>
      <trkpt lat="47.16386" lon="-1.4624">
        <ele>36</ele>
        <time>2019-02-03T10:04:22Z</time>
      </trkpt>
      <trkpt lat="47.16381" lon="-1.46249">
        <ele>35</ele>
        <time>2019-02-03T10:04:24Z</time>
      </trkpt>
      <trkpt lat="47.16375" lon="-1.46257">
        <ele>37</ele>
        <time>2019-02-03T10:04:26Z</time>
      </trkpt>
      <trkpt lat="47.16372" lon="-1.46268">
        <ele>36</ele>
        <time>2019-02-03T10:04:28Z</time>
      </trkpt>
      <trkpt lat="47.16371" lon="-1.4628">
        <ele>36</ele>
        <time>2019-02-03T10:04:30Z</time>
      </trkpt>
      <trkpt lat="47.16361" lon="-1.46299">
        <ele>36</ele>
        <time>2019-02-03T10:04:34Z</time>
      </trkpt>
      <trkpt lat="47.16358" lon="-1.46311">
        <ele>36</ele>
        <time>2019-02-03T10:04:36Z</time>
      </trkpt>
      <trkpt lat="47.16357" lon="-1.46322">
        <ele>36</ele>
        <time>2019-02-03T10:04:38Z</time>
      </trkpt>
      <trkpt lat="47.1636" lon="-1.46346">
        <ele>35</ele>
        <time>2019-02-03T10:04:42Z</time>
      </trkpt>
      <trkpt lat="47.16365" lon="-1.46382">
        <ele>35</ele>
        <time>2019-02-03T10:04:48Z</time>
      </trkpt>
      <trkpt lat="47.16369" lon="-1.46393">
        <ele>35</ele>
        <time>2019-02-03T10:04:50Z</time>
      </trkpt>
      <trkpt lat="47.1638" lon="-1.46408">
        <ele>36</ele>
        <time>2019-02-03T10:04:54Z</time>
      </trkpt>
      <trkpt lat="47.16386" lon="-1.46415">
        <ele>36</ele>
        <time>2019-02-03T10:04:56Z</time>
      </trkpt>
      <trkpt lat="47.16393" lon="-1.46422">
        <ele>36</ele>
        <time>2019-02-03T10:04:58Z</time>
      </trkpt>
      <trkpt lat="47.164" lon="-1.46429">
        <ele>35</ele>
        <time>2019-02-03T10:05:00Z</time>
      </trkpt>
      <trkpt lat="47.16407" lon="-1.46436">
        <ele>35</ele>
        <time>2019-02-03T10:05:02Z</time>
      </trkpt>
      <trkpt lat="47.16412" lon="-1.46442">
        <ele>35</ele>
        <time>2019-02-03T10:05:03Z</time>
      </trkpt>
      <trkpt lat="47.16416" lon="-1.46446">
        <ele>35</ele>
        <time>2019-02-03T10:05:04Z</time>
      </trkpt>
      <trkpt lat="47.16461" lon="-1.46512">
        <ele>35</ele>
        <time>2019-02-03T10:05:16Z</time>
      </trkpt>
      <trkpt lat="47.16465" lon="-1.46519">
        <ele>36</ele>
        <time>2019-02-03T10:05:17Z</time>
      </trkpt>
      <trkpt lat="47.16471" lon="-1.46532">
        <ele>36</ele>
        <time>2019-02-03T10:05:19Z</time>
      </trkpt>
      <trkpt lat="47.16476" lon="-1.46549">
        <ele>35</ele>
        <time>2019-02-03T10:05:21Z</time>
      </trkpt>
      <trkpt lat="47.16477" lon="-1.46576">
        <ele>33</ele>
        <time>2019-02-03T10:05:24Z</time>
      </trkpt>
      <trkpt lat="47.16478" lon="-1.46593">
        <ele>33</ele>
        <time>2019-02-03T10:05:26Z</time>
      </trkpt>
      <trkpt lat="47.16478" lon="-1.466">
        <ele>33</ele>
        <time>2019-02-03T10:05:27Z</time>
      </trkpt>
      <trkpt lat="47.16461" lon="-1.46616">
        <ele>33</ele>
        <time>2019-02-03T10:05:30Z</time>
      </trkpt>
      <trkpt lat="47.16446" lon="-1.46628">
        <ele>34</ele>
        <time>2019-02-03T10:05:33Z</time>
      </trkpt>
      <trkpt lat="47.16442" lon="-1.46634">
        <ele>34</ele>
        <time>2019-02-03T10:05:34Z</time>
      </trkpt>
      <trkpt lat="47.1644" lon="-1.4664">
        <ele>34</ele>
        <time>2019-02-03T10:05:35Z</time>
      </trkpt>
      <trkpt lat="47.16439" lon="-1.46646">
        <ele>34</ele>
        <time>2019-02-03T10:05:36Z</time>
      </trkpt>
      <trkpt lat="47.16443" lon="-1.46662">
        <ele>33</ele>
        <time>2019-02-03T10:05:38Z</time>
      </trkpt>
      <trkpt lat="47.16446" lon="-1.46668">
        <ele>33</ele>
        <time>2019-02-03T10:05:39Z</time>
      </trkpt>
      <trkpt lat="47.1645" lon="-1.46682">
        <ele>33</ele>
        <time>2019-02-03T10:05:41Z</time>
      </trkpt>
      <trkpt lat="47.16464" lon="-1.46749">
        <ele>30</ele>
        <time>2019-02-03T10:05:50Z</time>
      </trkpt>
      <trkpt lat="47.16466" lon="-1.46757">
        <ele>29</ele>
        <time>2019-02-03T10:05:51Z</time>
      </trkpt>
      <trkpt lat="47.1647" lon="-1.46785">
        <ele>29</ele>
        <time>2019-02-03T10:05:54Z</time>
      </trkpt>
      <trkpt lat="47.16471" lon="-1.46791">
        <ele>28</ele>
        <time>2019-02-03T10:05:55Z</time>
      </trkpt>
      <trkpt lat="47.16473" lon="-1.468">
        <ele>28</ele>
        <time>2019-02-03T10:05:56Z</time>
      </trkpt>
      <trkpt lat="47.16474" lon="-1.46809">
        <ele>28</ele>
        <time>2019-02-03T10:05:57Z</time>
      </trkpt>
      <trkpt lat="47.16476" lon="-1.46816">
        <ele>27</ele>
        <time>2019-02-03T10:05:58Z</time>
      </trkpt>
      <trkpt lat="47.16469" lon="-1.46823">
        <ele>26</ele>
        <time>2019-02-03T10:05:59Z</time>
      </trkpt>
      <trkpt lat="47.16467" lon="-1.46834">
        <ele>27</ele>
        <time>2019-02-03T10:06:01Z</time>
      </trkpt>
      <trkpt lat="47.16465" lon="-1.46842">
        <ele>26</ele>
        <time>2019-02-03T10:06:02Z</time>
      </trkpt>
      <trkpt lat="47.16464" lon="-1.46849">
        <ele>26</ele>
        <time>2019-02-03T10:06:03Z</time>
      </trkpt>
      <trkpt lat="47.16461" lon="-1.46855">
        <ele>26</ele>
        <time>2019-02-03T10:06:04Z</time>
      </trkpt>
      <trkpt lat="47.16457" lon="-1.46862">
        <ele>26</ele>
        <time>2019-02-03T10:06:06Z</time>
      </trkpt>
      <trkpt lat="47.16444" lon="-1.46854">
        <ele>26</ele>
        <time>2019-02-03T10:06:10Z</time>
      </trkpt>
      <trkpt lat="47.16438" lon="-1.46852">
        <ele>26</ele>
        <time>2019-02-03T10:06:12Z</time>
      </trkpt>
      <trkpt lat="47.16432" lon="-1.46853">
        <ele>25</ele>
        <time>2019-02-03T10:06:14Z</time>
      </trkpt>
      <trkpt lat="47.16423" lon="-1.46851">
        <ele>24</ele>
        <time>2019-02-03T10:06:17Z</time>
      </trkpt>
      <trkpt lat="47.16397" lon="-1.46829">
        <ele>26</ele>
        <time>2019-02-03T10:06:25Z</time>
      </trkpt>
      <trkpt lat="47.16392" lon="-1.46815">
        <ele>26</ele>
        <time>2019-02-03T10:06:27Z</time>
      </trkpt>
      <trkpt lat="47.16382" lon="-1.468">
        <ele>26</ele>
        <time>2019-02-03T10:06:31Z</time>
      </trkpt>
      <trkpt lat="47.16376" lon="-1.46793">
        <ele>26</ele>
        <time>2019-02-03T10:06:33Z</time>
      </trkpt>
      <trkpt lat="47.16369" lon="-1.46787">
        <ele>27</ele>
        <time>2019-02-03T10:06:35Z</time>
      </trkpt>
      <trkpt lat="47.16365" lon="-1.46782">
        <ele>26</ele>
        <time>2019-02-03T10:06:37Z</time>
      </trkpt>
      <trkpt lat="47.1636" lon="-1.46777">
        <ele>26</ele>
        <time>2019-02-03T10:06:39Z</time>
      </trkpt>
      <trkpt lat="47.16358" lon="-1.4677">
        <ele>27</ele>
        <time>2019-02-03T10:06:41Z</time>
      </trkpt>
      <trkpt lat="47.16359" lon="-1.46763">
        <ele>26</ele>
        <time>2019-02-03T10:06:43Z</time>
      </trkpt>
      <trkpt lat="47.16358" lon="-1.46754">
        <ele>26</ele>
        <time>2019-02-03T10:06:49Z</time>
      </trkpt>
      <trkpt lat="47.16353" lon="-1.46755">
        <ele>27</ele>
        <time>2019-02-03T10:06:54Z</time>
      </trkpt>
      <trkpt lat="47.16349" lon="-1.46752">
        <ele>27</ele>
        <time>2019-02-03T10:07:04Z</time>
      </trkpt>
    </trkseg>
  </trk>
</gpx>